GFSWCAN_sfc_wetblb_120.txt.gz
Wetbulb
54.58 54.66 54.52 54.14 53.67 52.79 52.23 52.01 53.18 53.37 52.20 50.79 49.95 49.90 49.53 49.54 48.99 42.11 38.92 38.59 36.12 31.90 32.26 35.88 36.30 34.02 33.37 31.25 28.29 29.69 30.19 30.31 29.64 27.05 25.75 24.08 22.96 23.49 20.65 21.85 24.00 24.53 22.35 22.72 24.65 21.24 18.22 31.60 29.75 26.74 30.10 29.72 31.53 32.08
54.15 54.55 54.33 54.12 53.68 52.82 51.97 51.69 52.68 52.87 52.81 51.55 50.33 49.65 49.34 49.30 48.84 44.01 37.85 40.81 39.46 35.55 34.35 36.68 36.98 36.77 36.26 35.66 32.98 31.81 29.98 30.40 31.88 27.19 26.26 25.34 25.42 21.95 21.58 21.30 22.43 23.03 26.94 24.62 26.06 26.08 31.09 31.17 31.42 31.99 32.54 32.20 32.39 31.89
53.89 54.41 54.23 54.07 53.63 52.85 51.80 51.75 52.24 52.56 52.66 52.49 51.35 49.96 48.94 48.87 48.65 44.45 39.54 39.34 38.33 35.40 33.99 34.28 34.84 35.75 37.55 36.36 37.63 33.38 32.73 34.49 33.08 33.00 29.41 27.82 26.49 26.56 22.84 22.29 21.43 25.77 27.91 26.91 27.29 28.41 29.89 33.06 33.25 33.30 33.14 32.90 34.57 34.58
53.07 53.91 54.03 53.80 53.45 52.42 51.76 51.74 51.97 52.25 52.14 52.34 52.76 51.38 49.00 48.43 48.09 45.02 39.83 39.70 38.70 36.15 31.73 32.98 37.96 34.81 36.36 36.52 36.92 37.08 36.14 36.63 35.50 34.05 31.20 28.80 27.80 29.44 25.26 26.29 24.49 27.80 27.56 26.31 26.26 30.05 32.60 31.54 31.07 32.65 34.45 35.43 34.59 33.93
52.61 53.46 53.79 53.54 53.10 51.93 51.38 51.55 51.77 51.64 51.01 51.28 51.64 52.13 49.91 48.26 46.73 41.32 38.59 37.88 38.74 35.72 31.46 32.27 35.80 35.58 36.31 36.49 36.36 36.92 36.82 35.08 33.85 32.26 30.27 30.58 30.71 30.03 28.69 28.22 26.53 28.23 28.62 26.59 26.37 29.99 30.28 32.32 33.99 34.38 32.91 33.23 34.47 33.90
52.46 52.98 53.39 53.23 52.54 51.53 51.07 51.15 51.16 50.90 50.50 50.38 50.64 51.61 50.39 48.06 45.04 40.27 36.02 37.75 38.37 38.12 31.28 28.25 33.41 32.34 35.00 35.56 35.01 34.65 35.21 33.93 33.06 32.62 31.49 31.64 33.05 31.17 26.64 26.25 32.16 31.53 32.01 32.66 31.60 32.86 33.52 34.61 34.36 32.66 32.51 33.59 34.35 33.73
52.22 52.56 52.81 52.67 51.82 51.06 50.88 50.62 50.43 49.81 49.28 49.20 49.62 50.72 49.84 47.45 40.53 37.39 35.88 37.94 40.78 38.16 32.29 28.37 27.56 31.91 31.81 31.35 31.96 32.29 32.66 31.60 32.23 31.01 30.48 31.00 31.97 33.23 28.83 26.89 32.72 32.70 33.73 34.07 33.02 31.74 30.50 30.95 31.49 33.78 32.51 33.30 34.58 33.41
52.06 52.32 52.31 51.66 50.96 50.62 50.26 49.79 49.26 49.02 48.89 49.03 49.34 50.35 48.57 47.37 44.00 37.56 37.61 42.21 39.92 35.38 33.00 22.31 24.61 28.19 31.04 29.31 28.87 30.59 29.94 30.38 30.36 29.55 29.80 30.00 30.87 30.04 27.98 32.55 33.80 34.70 34.32 33.02 33.13 32.96 32.87 33.67 32.36 31.60 31.30 31.79 31.57 31.87
51.44 51.70 51.65 50.81 50.25 49.90 49.41 49.21 48.94 48.49 48.52 48.68 49.49 48.34 44.12 40.68 38.23 38.10 42.40 39.93 36.54 34.16 28.63 30.47 25.33 20.67 31.34 29.17 29.40 29.67 29.50 26.28 29.39 28.85 28.62 29.75 28.22 26.37 30.51 31.82 31.91 32.49 30.72 31.52 31.20 30.04 29.92 29.13 29.46 28.80 28.27 29.58 28.99 29.85
51.02 50.95 50.16 49.41 49.01 48.97 48.72 48.73 48.65 48.41 48.53 48.88 44.32 41.07 36.21 36.59 42.19 40.33 34.52 31.82 30.44 30.50 28.96 30.42 31.92 27.71 28.11 27.65 27.77 27.53 27.84 25.88 17.99 27.22 29.22 27.39 26.81 31.00 32.85 33.16 33.04 32.72 30.56 28.96 27.07 27.78 26.99 27.17 28.01 28.33 27.97 29.13 28.73 28.84
49.60 48.72 48.34 48.32 48.36 48.32 48.45 48.70 49.14 49.23 47.12 42.12 38.00 33.66 35.11 40.47 34.79 32.01 28.81 29.50 30.55 29.72 31.37 30.70 30.54 25.12 29.24 25.43 26.50 28.87 23.85 28.35 24.97 22.52 27.45 24.29 24.89 28.97 31.64 30.83 30.84 29.22 26.85 27.35 27.67 28.48 28.44 27.58 27.05 27.58 28.97 29.25 28.98 28.99
47.74 47.63 47.58 47.38 47.41 47.88 48.84 49.51 48.57 44.02 41.87 41.04 38.55 36.44 34.00 32.45 33.02 27.07 24.31 29.22 29.78 27.73 28.47 26.96 28.54 28.47 28.32 29.37 28.67 28.47 23.64 27.48 22.50 26.29 26.55 22.58 25.26 29.49 29.62 28.70 28.59 28.61 27.11 27.36 27.44 27.87 28.73 29.13 28.76 28.08 28.37 28.92 29.19 29.01
44.55 44.64 44.84 45.51 46.31 46.59 47.82 48.45 47.40 45.14 42.73 39.12 34.71 33.36 29.14 29.20 26.11 22.89 16.42 24.90 26.70 29.20 24.27 26.63 25.47 28.09 27.75 28.67 26.37 25.41 24.58 23.58 23.67 23.44 21.45 22.61 26.88 28.05 28.54 29.18 28.79 28.34 27.79 27.65 28.89 29.15 29.37 29.06 29.75 27.75 27.91 28.95 27.77 27.68
44.01 44.00 44.01 44.21 45.52 46.83 48.03 47.75 45.77 44.17 39.57 33.58 29.25 25.73 24.17 22.51 21.84 22.08 22.66 22.86 25.72 24.36 23.06 24.77 23.22 25.03 26.96 25.39 25.58 23.52 25.43 24.64 21.83 20.31 18.18 21.60 24.39 27.34 28.00 28.74 28.48 28.96 29.34 28.23 28.87 29.67 29.12 28.50 28.55 28.42 28.58 28.47 27.83 28.91
43.62 43.93 44.25 44.36 45.32 45.31 46.26 46.67 45.22 40.95 35.46 30.64 30.87 23.43 20.42 24.78 21.98 26.88 24.84 26.39 25.42 27.19 26.19 25.19 24.88 25.69 23.45 23.01 27.07 25.47 23.31 21.76 22.52 19.37 21.67 21.31 26.24 27.41 28.35 28.34 28.99 29.10 29.24 28.98 29.71 29.72 29.99 29.87 29.84 30.22 29.02 28.37 28.31 28.72
43.21 42.91 41.18 43.74 44.18 44.69 46.12 44.10 41.00 37.88 33.25 30.40 29.44 23.84 25.45 23.19 22.74 23.63 25.04 26.27 26.98 28.40 27.06 27.29 21.70 17.01 20.32 24.82 24.32 23.74 22.74 19.53 20.86 23.14 23.54 23.48 26.62 27.66 28.08 28.82 28.89 29.46 29.12 29.28 29.35 29.59 30.16 29.89 30.13 30.97 31.46 29.70 29.29 28.90
41.95 37.04 43.11 44.40 44.74 44.50 42.72 37.41 34.11 31.46 29.52 26.60 26.85 28.84 27.12 28.24 27.10 25.27 27.34 27.57 29.67 29.79 26.28 24.23 18.83 19.83 21.66 22.32 20.72 21.49 20.16 23.01 24.61 23.94 24.50 26.08 26.36 26.82 26.97 28.00 28.82 28.91 28.64 29.57 29.13 29.66 29.88 31.23 29.25 25.45 26.57 30.67 30.49 29.93
36.40 39.75 44.32 44.53 42.14 39.95 36.64 34.51 29.44 25.30 18.34 26.94 26.27 24.58 28.70 28.81 26.91 27.75 27.73 27.55 29.27 28.91 27.35 25.65 19.77 13.61 16.63 18.19 17.54 22.22 22.75 23.23 24.23 25.72 26.67 27.63 28.13 30.61 30.57 30.05 30.74 29.97 29.18 29.51 29.28 29.90 29.28 26.95 25.81 27.15 29.88 31.01 28.50 28.16
37.48 40.73 44.18 43.47 38.73 32.89 29.95 31.60 29.20 19.82 21.38 24.86 25.38 25.21 26.96 27.82 29.01 29.80 29.40 29.72 28.46 28.18 24.32 21.13 14.78 16.36 20.93 21.11 19.68 19.57 21.85 22.65 26.86 28.58 29.77 30.26 28.04 29.48 29.99 29.32 28.55 27.15 27.41 28.45 28.61 29.59 31.41 31.60 31.05 31.54 31.76 31.22 29.73 30.55
42.04 43.67 43.10 41.40 38.09 28.30 25.44 28.16 32.16 26.30 21.93 22.44 24.91 24.48 23.18 24.39 25.56 26.23 26.98 28.02 28.17 26.79 25.38 23.54 20.94 24.98 23.90 24.98 25.62 27.23 28.95 29.11 27.73 27.03 28.29 30.47 31.21 27.36 27.00 27.45 29.47 30.65 30.60 30.37 30.57 33.40 31.52 30.89 31.25 31.78 30.81 29.55 28.98 29.54
39.14 39.29 40.45 36.65 33.32 29.15 23.96 25.56 26.61 26.35 25.46 23.31 26.06 25.01 20.39 24.46 20.81 20.32 23.05 24.68 26.03 26.06 18.84 24.19 26.99 29.98 31.43 32.00 32.59 31.97 31.06 30.38 29.07 29.24 28.82 28.51 31.07 30.23 30.57 31.31 31.06 30.95 30.27 30.46 30.00 30.41 31.93 30.46 31.61 32.21 31.58 31.22 31.66 31.56
36.89 40.26 35.59 35.66 30.31 28.79 24.88 28.52 23.71 23.40 19.51 15.92 19.79 20.70 18.92 20.10 20.95 22.32 15.45 12.92 14.89 23.43 25.74 28.12 28.92 29.63 29.53 29.24 30.30 31.01 31.32 30.87 30.79 30.80 33.13 32.39 29.20 29.15 29.28 30.25 29.49 29.17 30.01 30.50 30.51 30.21 30.70 31.77 32.46 32.09 31.29 31.60 33.07 31.93
38.59 36.28 32.47 29.35 21.26 25.33 18.99 29.54 25.00 25.54 19.93 14.48 22.01 19.84 18.05 19.30 16.79 14.76 11.35 15.01 19.92 24.03 28.86 29.09 29.78 30.46 29.74 30.83 30.53 29.94 30.06 29.20 28.84 29.74 30.09 30.23 30.56 30.45 29.88 30.01 30.60 29.56 29.16 30.07 31.41 30.89 31.31 33.52 33.13 32.62 32.16 32.16 31.44 30.71
38.10 31.26 27.84 25.18 15.19 17.07 21.76 23.11 26.15 21.96 21.26 18.30 15.85 12.69 11.01 13.15 9.11 9.57 9.19 13.88 24.72 26.34 27.01 27.29 27.79 27.42 28.19 27.48 26.72 27.95 29.31 30.06 28.85 29.16 29.68 28.70 27.89 28.66 29.88 30.08 30.61 30.76 30.72 31.14 31.31 31.45 31.35 31.18 33.24 31.74 31.10 29.89 29.04 28.68
26.38 26.40 26.44 22.87 15.99 18.62 20.26 19.93 14.27 20.07 16.73 17.66 14.23 6.49 9.22 6.16 5.95 5.60 8.06 15.89 22.16 25.78 26.78 27.36 27.02 26.83 25.69 26.70 27.76 28.33 29.96 28.67 27.14 26.46 28.50 28.58 28.32 28.54 28.23 29.14 29.95 31.07 31.84 29.10 30.05 31.09 31.41 31.54 31.21 30.16 29.56 28.74 27.39 27.94
22.01 25.40 23.24 21.91 17.00 15.87 15.35 13.33 17.03 12.74 7.20 8.70 11.59 7.54 3.46 3.37 1.67 9.51 13.15 22.98 24.66 25.35 25.86 26.00 26.14 26.12 25.99 27.02 26.25 26.96 28.45 30.32 28.37 26.18 27.98 29.23 28.34 27.36 26.66 26.54 27.24 29.10 30.38 30.45 31.65 30.88 30.70 30.99 30.72 28.92 29.47 28.97 31.14 30.33
21.50 22.06 25.03 23.26 20.88 17.80 15.59 15.13 13.15 9.45 6.00 7.98 8.42 7.92 6.77 8.32 8.87 13.90 22.86 22.10 25.20 25.61 28.32 29.04 28.15 27.13 26.95 27.94 29.49 30.21 30.56 30.25 28.79 29.21 30.95 30.32 29.92 30.18 29.65 27.90 27.37 30.22 32.28 28.59 30.72 31.31 29.79 29.82 29.93 29.76 29.68 29.31 29.10 27.96
24.54 21.17 17.89 19.33 17.40 15.75 11.20 8.54 8.01 9.18 11.20 13.44 11.31 5.22 6.57 9.22 14.98 25.04 24.09 24.23 24.48 27.47 27.39 28.26 28.83 28.91 28.75 29.10 29.96 29.93 29.79 30.24 29.86 27.73 20.14 26.58 29.10 30.33 30.59 30.98 31.46 32.95 32.28 32.18 32.05 32.02 31.08 30.25 29.39 28.85 27.70 27.08 27.87 27.99
20.85 18.73 19.33 16.71 16.82 17.14 13.42 13.45 12.74 15.65 19.81 15.31 12.14 16.54 17.15 24.94 27.90 27.72 29.11 29.86 29.92 27.46 26.44 26.90 28.25 29.96 28.90 28.41 28.27 28.01 27.69 26.79 24.85 22.58 21.98 22.71 24.65 27.17 29.67 29.53 29.54 30.31 30.72 30.17 32.77 32.95 30.62 27.62 27.93 28.09 27.34 27.01 27.81 27.49
16.87 20.02 13.99 10.79 12.63 12.24 15.02 17.57 14.95 18.57 19.51 23.69 23.20 20.32 24.34 25.91 28.43 30.21 28.77 28.51 27.45 26.80 27.78 28.17 28.34 27.60 26.39 26.21 26.22 27.09 28.93 28.52 26.17 25.18 24.09 23.89 25.44 28.51 29.08 25.42 27.48 28.15 27.60 24.23 26.28 26.63 30.57 25.50 23.27 19.94 20.70 20.39 22.30 22.74
19.43 17.24 13.90 11.99 12.33 14.19 21.23 19.98 16.25 23.44 16.15 14.11 20.78 19.78 22.17 25.13 28.03 29.53 29.31 29.53 29.32 28.43 27.14 26.25 26.67 27.54 26.87 26.48 26.40 25.81 25.43 29.01 29.42 29.49 29.49 29.07 28.82 28.69 28.86 29.20 29.40 28.87 25.32 22.02 23.40 24.51 24.09 18.75 18.01 19.90 20.21 20.07 19.39 23.46
15.79 14.46 12.60 7.65 9.24 11.67 8.40 11.11 8.02 9.51 9.61 10.59 20.64 17.00 22.47 18.80 19.23 24.86 28.97 29.65 27.76 25.90 27.96 28.25 26.23 26.59 28.73 29.11 29.59 29.98 31.95 30.53 30.10 30.16 28.93 29.96 30.36 29.87 29.67 29.50 29.44 27.87 22.49 22.49 24.61 24.72 19.85 18.80 21.56 19.14 19.49 18.50 17.00 18.21
-0.04 -1.36 -3.34 2.99 5.76 6.27 5.27 13.22 6.16 4.58 4.11 10.58 19.89 22.13 21.95 20.49 17.66 20.87 21.78 25.88 28.82 27.58 27.08 28.28 27.94 27.63 26.82 27.43 29.58 30.55 32.23 31.52 31.92 33.45 33.77 33.86 33.78 32.01 29.19 28.26 27.67 23.66 21.63 23.46 24.16 23.30 19.93 19.08 18.57 17.91 17.68 18.21 18.71 16.36

GFSWCAN_sfc_wetblb_123.txt.gz
Wetbulb
52.68 53.37 54.43 54.55 54.21 53.78 52.92 52.37 52.23 53.09 53.01 51.35 50.19 49.92 49.70 49.76 48.27 41.60 38.40 38.41 36.24 31.44 31.34 35.33 35.39 32.35 32.00 30.25 27.71 29.03 30.37 29.91 29.04 26.43 25.32 24.17 22.96 23.03 20.92 22.33 24.24 23.95 23.14 22.56 24.47 21.77 18.29 30.90 29.85 26.92 30.21 30.87 32.07 32.23
52.60 53.31 54.04 54.33 54.09 53.70 53.01 52.52 52.00 52.54 52.82 52.39 50.95 49.73 49.32 49.45 48.43 43.57 37.40 40.61 39.23 35.48 33.66 35.66 36.14 35.76 35.00 34.70 31.78 30.44 29.16 29.28 31.34 26.94 26.02 24.99 25.05 21.82 22.19 21.63 23.09 22.87 27.06 24.81 26.20 26.05 30.92 30.96 31.74 32.13 32.72 32.73 32.69 32.23
52.43 53.04 53.88 54.18 54.04 53.76 53.02 52.53 52.00 52.36 52.45 52.45 51.85 50.63 48.90 48.94 48.16 43.49 38.64 38.38 37.55 34.65 33.61 33.79 33.65 35.10 37.47 36.14 37.09 33.14 32.24 33.75 31.91 32.43 28.69 27.26 25.87 26.26 21.91 22.37 21.38 25.35 27.84 26.83 26.92 27.63 31.23 33.11 32.29 33.12 33.21 32.54 33.06 33.68
51.81 52.38 53.34 53.93 53.80 53.62 53.00 52.28 51.99 52.17 52.24 52.30 52.60 52.00 49.46 48.33 47.21 44.10 38.19 37.82 37.24 35.11 31.03 31.64 37.47 33.05 36.01 36.91 36.85 37.35 36.01 36.54 35.41 34.30 31.15 28.63 27.63 28.85 25.61 26.33 24.96 27.87 27.40 26.14 26.18 29.04 31.54 30.12 31.71 32.99 33.43 33.51 32.63 33.44
51.53 52.05 52.92 53.60 53.56 53.24 52.48 51.82 51.76 51.97 51.93 51.60 51.60 52.11 50.35 48.30 45.12 39.65 37.20 36.86 37.73 35.52 31.29 31.40 34.37 34.51 35.51 35.82 35.36 35.69 36.93 35.03 33.46 31.51 29.76 29.38 29.21 28.74 27.88 27.41 25.57 27.73 27.73 26.48 26.16 30.09 31.98 32.75 33.87 34.56 32.92 32.61 32.53 31.61
51.47 51.79 52.38 53.09 53.25 52.88 51.94 51.32 51.43 51.39 50.42 50.59 50.09 50.96 50.39 48.25 45.00 39.06 35.27 36.91 37.95 37.03 31.83 28.37 32.45 30.66 33.88 34.41 34.40 33.92 34.38 33.21 32.77 32.11 30.53 30.93 32.49 30.45 26.43 26.53 31.05 30.04 30.62 32.19 31.25 31.15 32.10 33.95 33.93 32.97 31.90 32.53 32.65 32.90
51.24 51.45 51.88 52.50 52.96 52.53 51.51 50.96 51.10 50.99 50.50 49.90 49.53 50.13 49.65 46.93 41.03 38.08 36.22 37.69 40.73 37.28 31.68 27.87 26.70 31.21 31.31 31.24 31.27 31.72 31.87 31.03 31.56 30.16 29.54 29.15 30.64 31.51 27.68 25.87 31.53 32.17 33.40 33.42 33.20 31.18 29.29 29.84 30.14 32.25 31.59 31.85 32.53 32.29
51.01 51.27 51.57 52.07 52.56 52.03 50.97 50.67 50.69 50.38 49.70 49.39 49.43 49.95 48.27 46.68 43.36 37.69 37.60 41.80 39.33 34.56 32.19 21.32 23.98 27.52 30.90 28.79 28.32 29.57 29.42 29.80 30.11 29.32 29.03 29.05 29.22 28.05 26.56 30.32 31.82 31.80 31.12 31.70 31.34 31.39 31.30 31.69 30.87 30.73 30.46 29.58 29.36 29.81
50.73 51.06 51.38 51.89 52.20 51.47 50.62 50.30 49.85 49.31 49.21 49.50 49.56 48.60 44.16 40.29 37.16 35.89 41.97 39.50 36.35 34.17 27.51 30.18 25.79 21.05 30.63 28.79 29.36 29.66 28.90 25.51 28.67 27.24 27.48 29.32 27.60 26.33 29.12 30.57 29.48 29.69 29.26 29.58 30.01 28.55 28.37 27.67 28.29 28.32 27.60 28.29 27.80 29.25
50.37 50.73 51.13 51.38 51.55 50.78 50.20 49.66 49.18 48.87 49.16 48.64 43.78 40.40 33.66 37.48 42.18 40.13 34.92 32.30 30.77 30.91 29.76 30.35 31.89 27.87 28.21 27.80 27.80 27.53 28.04 26.54 19.31 27.10 28.71 27.68 27.08 30.70 32.29 32.31 32.06 31.53 29.47 28.01 25.78 27.12 26.19 26.23 27.37 27.38 27.55 27.73 27.52 28.03
50.27 50.58 50.90 50.95 50.30 49.74 49.32 49.11 48.80 49.03 47.56 42.62 38.83 36.16 34.98 40.07 34.41 31.71 28.46 28.11 28.89 28.77 31.70 31.18 31.01 26.87 29.22 25.66 26.79 29.17 24.67 26.58 25.12 23.32 27.57 26.47 25.28 28.94 30.80 29.64 29.90 28.64 26.89 25.73 26.23 27.05 27.14 26.58 26.13 26.99 28.13 28.52 28.39 28.41
50.31 50.39 50.36 49.92 49.30 48.84 48.79 48.77 48.93 45.05 43.00 41.64 38.74 37.76 35.37 34.05 32.92 25.40 22.01 28.40 28.47 24.26 27.91 28.39 29.28 28.67 27.68 28.58 28.02 28.42 24.04 27.15 22.24 26.34 26.54 22.15 25.30 28.92 29.14 29.02 28.49 28.68 26.96 27.71 26.65 27.69 27.99 28.40 28.64 28.10 27.84 28.29 29.39 29.32
50.21 49.82 49.15 48.68 48.51 48.66 48.57 48.86 47.59 44.47 42.97 39.83 35.65 32.56 30.51 27.54 25.63 22.47 14.79 24.30 26.08 29.55 24.10 27.87 24.18 26.95 27.10 28.20 26.24 25.87 25.46 24.02 24.01 24.88 22.38 22.29 26.57 28.08 27.89 28.80 28.69 28.02 27.38 27.92 28.74 29.21 29.38 28.80 29.23 28.38 28.50 29.99 28.81 28.07
47.65 47.38 47.33 47.38 47.58 47.83 48.63 47.65 45.59 44.15 40.14 33.73 30.37 26.56 24.81 23.63 20.68 22.25 20.79 21.77 25.22 23.96 23.06 27.09 22.58 24.46 26.31 24.43 25.07 19.28 25.74 25.25 21.62 19.96 17.75 22.41 25.56 27.29 27.45 27.78 27.02 27.75 28.57 27.58 26.99 28.27 28.26 27.74 27.82 28.22 28.89 29.30 28.35 28.80
44.00 43.98 43.97 44.05 44.58 46.26 47.33 46.08 44.75 41.49 35.64 31.46 30.60 24.19 24.41 25.08 24.01 26.74 27.04 27.13 27.32 26.53 25.94 25.61 23.44 25.59 24.34 24.39 26.63 25.68 22.49 21.21 22.48 18.36 21.45 22.60 25.71 26.77 27.05 27.66 27.52 27.51 27.88 27.63 28.06 27.03 26.87 27.31 27.60 28.52 28.37 28.22 27.96 29.51
43.10 42.10 41.21 43.54 45.21 45.55 45.64 43.73 41.26 38.43 32.82 30.33 28.42 25.43 26.47 25.68 24.24 25.79 22.97 21.99 27.37 27.81 25.70 26.78 21.61 19.45 22.10 25.85 23.96 22.79 21.16 17.92 19.94 21.37 22.45 23.37 25.89 26.42 26.86 27.49 27.58 27.67 27.35 27.92 28.33 28.53 28.77 27.91 28.20 29.77 30.42 29.93 29.47 29.10
39.98 37.75 41.81 42.45 43.56 43.69 42.36 37.36 34.78 30.78 29.25 25.49 23.81 29.29 27.95 26.98 26.78 26.19 26.90 27.78 30.87 31.23 27.78 27.19 21.58 21.71 22.01 21.88 19.51 20.55 20.15 21.61 23.15 21.94 22.19 25.29 26.25 26.81 26.77 26.74 26.89 26.76 26.31 26.29 26.19 26.16 26.54 28.87 28.50 26.27 26.47 29.40 29.84 29.81
36.29 40.09 43.01 43.52 41.41 39.21 35.98 33.63 29.56 26.05 25.13 26.25 25.52 26.37 29.29 29.16 27.82 27.95 27.61 27.63 28.08 28.59 25.63 20.00 18.95 17.44 17.69 16.94 17.27 21.08 19.85 19.98 21.76 24.98 26.37 26.46 26.18 25.79 26.26 26.48 28.34 27.37 27.07 26.60 24.92 25.91 25.68 24.92 26.07 27.20 28.16 29.28 29.79 30.13
38.76 41.00 43.14 42.29 38.59 33.09 29.75 29.88 28.31 21.57 21.82 25.92 26.36 25.99 27.39 28.09 29.15 29.37 28.36 28.06 26.92 27.08 23.69 24.70 16.08 19.27 19.95 20.78 20.43 18.97 20.32 21.37 24.50 27.88 27.72 27.64 26.40 26.53 27.70 26.81 26.45 25.46 25.51 25.92 26.91 28.48 30.03 30.32 29.79 30.41 30.90 30.75 29.46 30.23
42.62 43.03 42.08 40.60 37.23 29.13 25.86 28.75 30.02 23.97 20.77 24.02 25.31 24.92 24.96 25.01 24.65 25.74 26.35 26.54 27.21 26.64 25.13 24.26 22.20 23.23 22.56 25.38 25.74 27.43 28.60 28.96 26.05 25.58 26.77 28.96 28.58 24.98 25.78 26.39 27.99 28.93 28.43 28.62 28.62 32.12 30.24 29.76 30.22 30.53 30.51 30.26 29.41 29.68
39.86 39.76 39.64 36.51 32.85 28.73 25.53 26.62 25.96 23.27 23.78 22.74 24.01 25.04 22.05 24.99 24.38 19.72 19.71 26.02 18.91 16.88 19.39 25.17 26.04 27.94 28.42 30.00 30.86 30.49 29.85 28.40 27.58 27.70 27.48 27.43 30.16 29.40 28.99 29.87 27.98 28.60 28.64 28.98 28.74 29.31 31.00 29.23 30.46 31.08 30.64 30.79 31.36 31.77
37.30 39.91 35.21 34.14 28.82 28.70 21.90 24.06 22.30 23.94 21.37 16.30 22.71 22.37 20.99 19.90 20.92 22.78 17.67 16.75 22.38 22.03 24.85 25.51 27.06 27.91 28.11 27.83 29.01 29.22 29.35 28.63 28.36 28.85 31.95 31.35 28.27 28.48 28.52 29.20 28.51 27.83 28.09 28.58 29.07 28.78 29.42 30.48 30.99 30.90 30.69 30.98 32.63 31.70
38.02 35.04 31.80 23.15 22.98 22.06 16.31 28.12 24.57 24.91 20.61 15.76 21.11 20.21 20.47 20.06 16.59 17.98 9.99 14.62 19.14 23.33 26.56 28.13 29.20 29.45 28.32 29.42 28.83 28.32 28.76 28.43 27.93 28.50 28.98 29.23 29.52 29.46 29.07 29.05 29.33 28.16 27.83 28.89 29.86 29.31 29.19 32.02 31.74 31.57 31.20 31.28 30.73 30.57
37.86 26.98 24.61 24.20 15.70 21.15 24.34 22.42 24.89 19.64 21.34 18.85 17.43 14.33 13.80 13.02 14.28 11.75 9.15 13.00 19.88 23.04 23.38 25.21 25.73 25.92 26.67 26.00 25.50 27.14 28.46 29.13 27.68 27.85 28.54 27.57 26.59 27.38 28.73 28.51 28.97 29.24 29.28 29.78 29.71 29.21 29.32 29.74 32.14 30.59 30.14 29.39 29.47 29.49
26.64 26.00 25.70 18.71 11.65 17.76 18.18 17.20 16.61 19.37 16.22 17.52 14.06 10.35 7.73 3.63 4.86 7.79 7.44 13.51 15.00 22.35 24.60 24.23 23.98 25.36 24.62 25.61 26.97 27.61 29.48 28.58 26.72 25.88 28.07 28.12 27.15 27.17 26.98 27.68 28.14 29.12 29.76 28.20 27.72 27.60 28.12 29.28 29.52 28.99 28.99 27.77 27.80 28.55
21.36 25.01 20.76 15.33 10.21 14.55 15.13 10.64 13.40 13.18 10.73 12.66 12.97 4.62 -0.38 2.57 -0.31 7.76 10.57 14.77 21.30 22.84 23.83 24.27 25.11 24.80 24.86 26.09 25.54 26.37 27.99 29.94 26.05 25.58 27.50 28.83 27.85 26.39 25.41 25.07 25.46 27.07 29.37 28.79 28.26 27.45 27.42 28.13 28.43 28.21 28.07 26.84 30.42 29.62
21.41 21.99 24.28 22.55 19.71 16.47 13.81 13.00 14.09 10.59 6.60 8.99 9.21 8.83 7.77 2.65 6.16 12.85 18.45 18.40 21.40 23.23 26.50 27.90 27.10 26.16 26.14 27.35 28.98 29.81 30.26 29.99 28.52 28.85 30.40 30.29 30.19 29.82 28.22 26.21 25.51 28.45 30.63 29.75 26.66 27.22 27.16 27.60 27.99 28.18 27.86 27.75 25.45 27.33
25.22 23.43 18.72 18.62 14.22 12.47 13.22 11.38 10.90 11.92 14.82 15.37 11.46 4.63 7.09 8.86 12.95 20.42 19.01 19.78 23.40 25.60 23.67 26.24 26.63 27.66 27.76 28.02 29.07 29.06 28.94 29.41 29.08 28.71 28.90 28.04 27.48 28.55 29.06 29.61 30.12 31.85 31.02 30.50 29.78 29.27 28.67 28.37 28.12 28.15 27.74 27.07 27.15 27.84
21.74 20.67 21.58 16.49 14.51 12.67 15.82 14.69 14.45 16.42 20.87 16.94 15.15 11.99 11.92 16.68 20.94 18.46 24.90 26.81 21.36 17.27 21.52 25.48 27.69 27.94 27.50 27.76 28.12 28.09 27.25 26.09 23.33 21.60 20.92 21.82 23.86 25.95 29.31 29.06 28.53 28.32 28.45 28.66 31.77 32.22 30.27 28.92 29.08 28.59 27.82 27.26 26.96 27.92
18.30 18.24 14.48 12.99 14.99 16.24 20.12 21.07 21.50 21.99 20.53 20.52 20.43 18.36 21.42 23.52 27.69 29.85 23.22 27.29 26.35 26.10 27.51 27.81 27.63 26.29 25.75 25.67 25.53 26.20 27.66 27.52 26.82 24.77 22.84 23.25 25.21 28.49 29.32 27.85 27.71 27.55 27.47 27.12 26.67 26.45 30.30 27.74 24.69 19.81 21.49 19.88 17.26 20.74
17.89 17.73 17.97 16.29 17.53 19.09 22.16 17.01 15.91 22.23 13.33 10.49 11.70 17.68 22.21 24.74 27.75 29.59 28.57 28.66 28.44 28.37 26.94 25.82 25.85 26.30 25.20 24.59 24.08 23.56 24.00 26.95 25.77 27.41 28.78 29.70 29.99 29.43 29.25 29.52 29.73 29.92 29.34 26.18 25.36 24.48 23.81 20.49 18.94 18.58 18.89 19.49 19.01 22.51
16.25 18.18 19.04 14.83 13.40 11.47 7.01 12.89 9.03 11.21 8.46 5.06 19.51 8.55 8.60 10.14 13.10 25.06 23.90 27.29 26.33 25.15 27.15 27.09 24.21 24.75 26.91 27.92 28.00 28.47 31.17 28.83 28.39 29.00 29.88 30.51 30.58 31.15 31.01 30.52 30.53 30.43 29.72 27.44 25.18 23.94 21.49 17.56 18.70 19.32 20.80 16.91 16.26 16.29
7.43 3.36 2.10 7.26 7.22 7.07 4.21 8.37 1.88 2.73 0.29 0.50 9.02 15.87 15.67 15.39 14.35 19.12 20.55 23.76 24.73 25.72 26.12 27.02 27.52 28.10 27.35 25.59 27.30 27.18 29.67 28.56 27.96 30.83 30.66 30.18 30.16 30.17 30.86 30.97 29.29 28.73 26.63 24.67 23.86 22.86 16.28 16.71 18.70 18.80 16.88 16.30 16.91 15.86

GFSWCAN_sfc_wetblb_126.txt.gz
Wetbulb
53.05 52.87 52.85 53.34 54.39 54.40 54.10 53.41 52.62 52.27 53.02 52.23 50.46 49.79 49.71 49.79 47.66 45.63 43.45 43.29 42.36 39.08 38.08 39.27 39.67 37.75 37.07 36.91 35.67 35.38 36.88 36.19 35.48 32.94 32.02 32.01 30.79 30.93 29.25 30.81 31.06 30.33 29.09 28.59 29.63 27.03 26.95 37.12 35.64 33.43 35.39 38.82 38.62 38.51
53.02 52.79 52.73 52.86 53.76 54.24 53.93 53.20 52.53 51.92 52.57 52.71 51.43 49.87 49.15 49.50 48.27 44.60 42.91 43.73 42.78 41.11 38.67 39.93 40.73 40.45 39.73 39.62 37.91 36.35 35.17 35.69 38.74 35.38 33.46 32.75 30.51 30.33 31.20 30.62 31.11 29.63 34.03 32.12 33.40 33.90 36.73 37.71 37.98 37.83 38.71 37.29 37.26 36.37
52.72 52.63 52.50 52.64 53.49 54.16 53.83 53.17 52.58 52.05 52.36 52.47 51.94 51.20 49.20 48.85 47.84 45.15 44.13 43.15 42.16 39.83 38.32 38.91 38.33 39.68 40.58 39.64 40.39 38.28 37.57 37.59 36.18 38.04 36.45 35.49 32.24 33.73 30.33 30.49 30.51 31.86 33.94 33.41 31.30 34.64 36.19 38.19 37.85 38.76 38.33 37.00 37.21 36.72
52.20 52.25 52.38 52.53 53.20 53.70 53.63 53.12 52.59 52.18 52.44 52.67 52.64 52.15 50.20 48.34 46.91 44.58 42.84 41.97 42.07 40.28 37.74 36.85 40.35 38.17 39.78 40.16 40.08 40.80 39.86 39.92 39.61 39.03 37.00 35.64 33.15 34.73 33.27 32.05 32.10 34.12 33.31 33.12 33.14 35.13 36.07 35.61 37.72 37.34 37.13 36.91 36.10 36.33
52.01 52.01 52.12 52.34 52.72 53.17 53.32 52.98 52.31 52.01 52.36 52.33 52.23 52.38 50.55 47.91 44.33 42.38 41.64 41.08 41.78 40.54 37.09 36.37 37.76 38.02 38.85 39.15 39.07 39.87 40.10 39.71 39.39 37.21 36.23 34.90 35.77 33.56 33.40 32.92 32.02 33.42 33.80 32.81 33.64 36.23 37.57 37.71 38.00 37.44 35.74 35.31 35.74 35.17
51.96 51.77 51.77 51.87 52.35 52.70 53.02 52.58 51.81 51.64 51.73 51.32 50.62 50.97 50.62 48.30 45.71 42.79 39.72 40.76 41.56 40.69 38.88 35.43 36.35 36.08 37.55 38.30 37.86 37.64 38.34 38.14 38.63 37.90 36.34 36.09 35.67 35.86 31.97 31.13 35.87 35.61 35.95 36.95 36.81 37.13 37.20 38.01 37.31 37.15 34.89 35.25 35.51 35.64
51.78 51.52 51.36 51.51 52.00 52.44 52.71 52.11 51.33 51.31 50.95 50.61 50.13 50.48 49.85 47.50 43.83 41.42 39.59 41.08 42.31 41.10 37.64 35.61 33.76 35.49 36.36 36.25 36.25 37.20 37.07 37.07 37.64 36.78 34.96 35.35 35.41 36.28 33.19 30.40 35.50 36.74 37.46 37.66 37.95 36.20 34.09 34.88 34.55 35.63 35.10 35.09 35.26 35.01
51.52 51.34 51.15 51.24 51.76 52.12 52.34 51.59 50.98 51.03 50.80 50.54 49.93 50.35 48.24 46.54 44.31 41.38 41.08 42.57 41.53 38.27 36.78 33.47 32.60 32.30 35.37 33.43 33.54 34.65 35.38 36.37 35.65 35.17 34.74 34.41 34.41 34.01 30.37 34.67 35.81 36.89 36.06 36.35 35.48 34.83 34.74 34.32 35.04 34.90 34.65 34.46 34.19 34.97
51.14 51.05 50.98 51.10 51.44 51.80 52.00 51.22 50.66 50.54 50.11 49.81 49.80 48.25 45.22 42.74 40.20 39.92 41.91 40.24 39.86 38.49 34.58 32.71 32.17 31.18 34.55 32.37 33.14 33.56 33.64 31.21 33.30 32.19 32.15 32.94 31.60 29.48 34.22 35.13 35.51 35.77 34.91 35.06 34.32 34.87 34.73 33.65 33.56 34.31 33.85 34.99 33.60 34.52
50.66 50.65 50.69 50.81 51.00 51.31 51.53 50.88 50.37 49.69 49.38 49.40 45.61 41.56 37.12 39.32 42.39 41.59 37.47 35.70 36.05 35.51 34.89 32.26 34.03 30.89 32.88 31.81 31.26 32.21 31.91 30.53 28.89 31.04 32.43 29.40 29.66 34.23 35.55 36.29 36.54 35.75 34.48 33.71 33.02 32.20 32.44 32.05 32.82 33.07 33.16 34.06 33.77 33.94
50.44 50.36 50.37 50.43 50.50 50.76 50.85 50.45 49.71 49.31 48.26 43.15 39.38 37.40 37.93 41.02 37.49 34.95 32.59 31.61 31.52 30.29 33.25 32.98 33.23 31.00 33.05 31.28 31.24 32.25 30.52 30.45 26.38 28.55 28.55 27.80 27.36 31.89 33.81 34.37 35.13 33.63 33.48 32.87 33.10 32.77 32.63 31.87 31.19 31.41 32.40 33.60 33.96 33.81
50.18 50.09 50.08 50.20 50.35 50.67 50.45 49.81 49.34 46.55 44.43 43.23 39.04 38.57 37.24 35.71 33.63 30.73 28.00 29.60 28.41 27.73 30.88 30.12 30.95 32.47 31.73 33.05 32.10 30.69 28.96 28.35 24.70 30.39 27.22 24.53 30.07 32.12 32.24 31.47 31.69 33.38 33.29 32.95 32.50 32.73 33.02 32.62 33.12 32.38 32.30 32.79 33.68 34.41
49.93 49.91 50.04 50.17 50.39 50.65 49.88 49.00 48.30 45.13 44.21 40.93 37.21 34.26 33.61 31.61 26.87 24.95 20.73 25.23 27.36 30.64 29.64 29.99 29.69 31.33 30.58 31.78 29.96 29.78 26.82 25.64 28.41 25.02 24.34 27.89 30.17 31.87 32.42 33.05 33.23 33.66 33.16 33.00 33.22 33.88 33.52 33.23 33.74 32.86 32.37 33.69 34.06 33.57
49.68 49.70 49.82 49.99 50.15 49.69 48.86 48.46 46.26 44.97 40.29 33.03 31.84 26.80 29.25 26.03 27.45 27.25 25.37 27.89 30.09 30.45 29.62 30.94 28.73 29.84 29.79 28.98 28.59 24.61 27.09 26.61 22.40 21.18 22.87 29.34 30.87 31.94 32.44 33.19 32.74 33.31 33.31 32.10 31.92 32.78 32.14 31.25 31.14 31.69 32.09 33.11 33.05 32.67
49.58 49.59 49.58 49.40 49.29 48.75 48.30 46.44 45.41 41.78 36.48 31.87 31.52 26.34 26.99 29.18 27.84 28.63 29.44 30.35 29.72 31.17 30.68 29.05 28.52 29.97 27.94 26.45 27.84 26.72 22.95 21.87 23.87 24.07 28.59 30.13 31.51 31.94 31.93 31.94 32.29 32.26 32.33 32.00 32.26 31.25 30.29 30.18 30.20 30.76 32.08 32.46 32.57 32.82
48.07 46.67 44.84 48.31 48.18 47.71 46.10 43.52 40.98 38.83 32.18 31.50 29.97 26.76 27.81 28.58 27.14 29.24 29.40 29.76 29.65 30.80 30.52 30.94 26.83 26.46 26.26 27.82 25.23 23.69 23.04 21.58 25.96 29.20 30.99 30.52 30.26 30.78 31.05 31.35 31.45 31.83 31.58 31.43 31.62 31.45 31.76 31.59 31.19 31.57 32.57 32.43 32.30 32.03
41.75 39.11 45.38 46.94 45.29 44.18 42.21 37.31 35.82 31.96 31.43 29.26 27.95 30.73 30.04 29.65 29.46 29.40 29.86 30.39 31.59 32.16 29.85 29.34 25.24 24.29 25.39 23.93 22.85 26.54 25.04 28.33 30.17 30.59 29.99 30.22 30.97 31.30 31.43 30.81 30.46 30.27 30.09 30.40 30.40 30.73 30.84 31.76 31.39 29.71 28.83 31.78 32.46 32.15
37.87 41.99 43.66 42.06 40.27 38.26 34.61 33.60 31.21 30.01 27.00 28.42 27.05 28.77 30.64 30.60 29.82 29.53 29.98 31.50 32.49 31.28 30.71 28.34 25.71 22.62 22.17 20.39 22.46 26.98 28.24 30.04 29.43 30.56 31.33 31.47 31.22 31.05 30.51 30.46 30.59 30.22 30.09 30.25 29.53 29.87 29.66 28.23 28.38 29.69 31.01 32.22 32.39 32.55
39.06 40.30 41.84 40.57 38.45 33.62 30.94 30.74 30.42 23.94 24.69 27.73 27.92 28.42 29.76 29.56 30.27 30.86 30.49 30.74 30.06 30.36 28.45 26.93 23.22 23.15 24.27 25.69 27.20 29.21 28.49 27.46 28.56 30.61 30.90 30.79 30.03 30.18 30.31 30.04 29.56 29.32 29.16 29.60 30.40 30.99 32.08 32.33 31.93 31.98 32.35 32.63 31.66 32.41
42.17 41.84 40.60 39.48 37.51 31.11 28.16 28.86 31.18 26.17 24.08 26.19 27.12 26.76 27.47 27.35 26.86 28.55 29.08 29.19 29.33 29.16 26.19 23.78 24.11 26.32 26.84 29.62 29.62 30.28 30.71 30.50 29.11 28.12 28.95 31.06 32.43 30.49 29.53 29.90 30.92 31.55 31.36 31.59 31.60 32.54 31.66 31.68 32.47 32.62 32.63 32.49 31.88 31.93
39.62 39.12 38.94 36.54 32.23 29.73 28.23 27.85 26.04 25.60 24.72 24.34 25.75 26.14 24.26 25.94 25.59 25.04 25.38 28.35 26.09 24.04 22.47 26.34 27.45 29.44 30.99 31.42 32.18 31.20 30.59 30.11 29.27 29.41 28.91 28.80 31.57 31.74 31.56 32.07 31.79 31.43 30.23 30.34 30.36 30.88 31.90 31.01 32.06 32.74 32.41 32.11 32.68 32.93
37.84 39.16 34.23 33.46 28.66 26.52 25.92 27.08 25.69 26.36 22.78 22.66 23.94 24.56 21.92 22.04 23.04 24.05 24.43 23.42 23.28 24.57 26.77 27.84 28.58 29.83 29.64 29.15 29.68 30.16 30.54 30.41 30.44 30.22 31.72 31.60 29.21 29.39 29.76 30.72 30.56 29.99 30.34 30.46 30.58 30.17 30.70 31.82 32.33 32.28 32.01 32.04 33.08 32.64
37.52 34.85 30.21 26.30 23.84 22.09 22.35 27.76 23.03 25.10 20.84 20.19 22.11 20.88 21.11 20.82 20.29 21.86 19.45 21.07 23.32 25.91 28.15 29.03 29.74 29.86 29.11 30.06 29.10 29.11 29.84 29.25 28.88 29.37 29.70 29.98 30.41 30.51 30.36 30.51 30.92 29.72 29.08 30.09 31.52 31.04 30.72 32.48 32.21 31.98 32.18 32.23 31.81 31.42
35.76 26.99 23.27 22.04 18.17 17.23 25.10 23.33 23.97 21.98 21.39 19.78 19.14 16.51 16.69 17.16 18.42 17.28 15.91 18.71 22.81 25.52 25.91 26.77 28.24 27.49 28.12 26.87 26.66 28.19 29.28 30.03 28.93 29.10 29.71 29.01 28.19 28.73 30.03 30.04 30.60 30.79 30.64 30.95 30.85 30.68 30.78 30.38 31.61 30.72 30.49 30.36 30.51 30.15
22.88 20.55 20.93 16.25 16.38 17.52 15.11 19.34 18.26 19.08 16.86 18.38 15.42 13.18 13.58 12.40 13.04 13.22 13.73 16.96 19.77 24.03 26.41 26.49 25.72 26.08 25.80 26.91 28.07 28.55 30.07 29.48 28.04 27.46 29.61 30.25 29.47 29.15 28.62 29.24 29.88 30.53 31.25 29.77 28.82 28.96 29.26 29.86 29.85 29.52 29.37 29.47 29.16 28.90
19.43 22.23 22.48 16.76 14.70 15.04 15.38 13.11 13.64 14.47 17.50 15.14 13.86 9.43 8.78 10.87 8.51 12.09 15.21 19.12 23.28 25.44 26.66 25.93 25.98 25.88 25.60 26.86 26.68 27.69 29.13 31.10 28.68 27.02 28.64 30.15 29.50 28.26 27.14 26.48 26.62 28.19 31.33 30.31 29.20 28.20 28.14 28.60 28.54 28.14 28.42 28.96 30.79 29.83
21.11 20.25 19.50 22.87 19.50 16.53 14.35 14.41 14.82 12.09 10.68 10.18 9.84 9.10 9.68 6.20 9.28 15.81 20.47 21.69 24.16 26.09 27.75 29.34 28.32 27.41 27.49 28.96 30.20 30.33 30.72 30.57 28.69 29.55 31.25 31.17 31.01 30.89 29.65 27.55 26.65 29.37 31.61 30.84 30.30 29.35 28.10 27.96 27.92 28.09 28.17 29.01 29.42 29.10
25.97 23.26 14.81 15.70 14.31 13.18 13.24 10.03 10.57 9.83 12.23 14.31 12.33 7.69 8.56 11.45 15.91 21.14 21.86 24.66 25.65 27.19 26.83 26.89 27.55 28.76 29.02 29.48 30.09 30.05 29.97 30.38 29.89 28.89 29.03 29.13 29.74 29.94 29.81 30.26 30.57 31.55 31.19 30.96 30.59 30.27 29.77 28.99 28.32 28.10 27.83 27.78 28.55 29.99
18.95 22.08 21.95 14.66 12.72 12.64 13.79 14.20 13.71 16.20 19.44 16.02 15.32 14.31 14.41 18.90 21.09 23.36 26.79 24.34 19.85 19.51 22.40 27.35 29.57 29.23 27.31 26.64 27.13 27.91 27.78 27.18 24.84 21.34 21.23 22.51 24.65 26.80 29.97 29.67 29.55 29.75 29.76 29.11 30.79 31.21 30.69 30.34 29.67 29.32 29.16 29.25 29.85 30.43
18.40 22.67 19.41 17.07 17.40 15.17 17.76 19.16 17.28 18.99 21.16 21.95 22.15 20.12 21.02 23.27 25.73 24.74 23.68 26.59 22.95 26.58 28.87 29.08 28.96 27.84 26.39 26.04 25.95 26.82 28.38 27.71 27.14 25.46 23.52 23.76 25.74 29.05 29.76 29.84 29.65 30.22 30.31 30.07 29.41 29.18 31.03 30.63 30.50 29.54 28.21 27.39 25.20 24.30
18.05 17.38 16.90 17.43 16.56 19.20 21.79 20.88 18.03 22.41 15.31 14.56 12.20 17.91 22.93 23.54 27.30 30.05 29.20 29.50 29.21 28.56 27.19 26.17 26.26 26.65 25.67 25.48 25.13 24.44 24.20 26.93 26.69 26.80 27.79 28.33 28.69 28.88 29.51 30.55 31.31 31.68 31.44 30.75 29.68 27.80 27.66 27.43 27.40 26.14 24.17 22.58 21.56 24.76
12.27 11.60 13.61 9.71 11.85 12.38 9.91 11.28 9.21 12.83 9.06 8.78 21.14 11.28 9.98 12.57 13.58 21.52 24.43 25.16 25.30 22.75 26.62 27.33 24.52 25.06 27.31 27.37 27.58 27.88 30.24 28.54 26.39 26.27 25.69 27.30 28.09 29.17 29.67 30.14 30.00 29.88 30.41 30.41 30.18 29.44 27.86 26.31 25.44 24.50 22.34 21.27 20.81 21.37
7.70 4.31 -0.68 3.49 5.95 6.05 5.31 8.31 2.92 4.64 1.32 1.21 8.60 12.64 15.15 16.29 15.31 20.65 20.04 21.74 25.32 26.18 26.19 26.63 27.18 27.76 27.68 26.57 27.29 28.16 29.94 28.74 27.89 30.48 31.47 32.26 32.29 30.89 29.99 28.80 26.95 26.84 27.08 28.62 29.26 29.09 27.14 24.98 22.76 21.36 20.90 20.67 20.09 18.44

GFSWCAN_sfc_wetblb_129.txt.gz
Wetbulb
53.51 53.40 53.11 52.98 53.06 53.60 54.47 54.23 53.55 52.72 52.34 52.84 51.67 50.25 49.85 49.90 48.15 47.27 46.97 47.11 45.26 44.03 41.58 41.35 41.65 40.65 40.59 40.78 38.83 39.33 38.79 38.66 38.05 34.96 34.50 35.15 33.36 34.25 32.58 35.35 33.75 33.22 31.73 30.93 32.38 29.54 28.37 38.99 37.11 34.73 37.72 40.19 40.09 39.55
53.52 53.46 53.19 52.83 52.83 53.33 54.20 54.08 53.32 52.32 51.87 52.45 52.41 50.94 49.80 49.59 48.63 45.65 46.60 46.73 45.87 44.39 41.60 42.76 42.76 42.11 41.39 41.00 41.08 40.63 38.92 39.01 41.43 37.70 36.56 36.81 34.09 34.62 34.96 33.53 35.56 31.91 36.99 35.51 35.79 36.48 39.10 40.59 39.17 40.19 40.46 38.08 38.43 37.42
53.35 53.43 53.23 52.92 52.76 52.93 53.53 54.02 53.22 52.38 51.80 51.93 52.42 51.76 50.52 49.22 48.06 46.68 47.38 46.56 45.52 43.49 41.91 41.42 40.36 41.70 43.04 42.03 43.16 40.69 41.20 40.65 40.23 40.76 39.40 38.16 34.41 37.62 33.60 34.13 34.52 35.67 37.97 35.08 34.22 38.04 38.82 39.72 39.79 40.10 39.04 37.84 37.82 37.68
50.48 53.13 53.08 52.79 52.48 52.64 53.34 53.76 53.21 52.54 52.15 51.98 52.59 52.34 51.25 48.74 46.95 45.63 46.24 45.85 44.96 43.77 40.22 39.64 42.58 40.59 42.06 42.79 41.94 42.63 41.64 42.25 41.88 41.79 39.60 37.73 34.66 37.37 35.67 34.66 34.09 36.43 35.70 35.88 35.89 37.43 37.87 38.04 39.76 38.36 38.12 38.03 37.64 38.18
48.37 51.38 52.85 52.59 52.24 52.19 52.76 53.30 53.03 52.46 52.24 52.11 52.34 52.39 51.35 47.97 44.58 45.63 45.80 45.10 44.43 42.20 39.97 39.11 40.21 39.86 41.20 41.33 41.03 41.91 42.34 42.00 41.90 39.77 38.58 36.54 38.40 35.55 36.10 34.48 33.63 36.28 36.05 34.17 35.32 39.23 39.60 37.87 38.58 38.27 36.91 36.90 37.44 36.97
47.23 48.87 52.25 52.25 52.02 52.01 52.33 52.85 52.64 52.09 51.73 51.68 51.55 51.63 50.82 47.31 45.12 45.70 42.32 43.45 44.77 43.69 41.29 37.22 38.65 38.18 39.86 40.98 40.41 40.39 41.23 41.27 41.68 39.97 39.08 40.09 38.64 37.40 34.19 33.29 39.66 39.80 38.66 39.03 38.45 39.95 39.45 38.60 38.47 38.16 36.97 37.03 37.53 37.31
45.96 47.36 49.55 52.01 51.82 51.71 51.91 52.44 52.30 51.78 51.52 51.45 51.08 50.29 50.41 48.33 46.33 43.41 41.21 42.56 43.87 43.93 39.91 37.22 35.76 36.86 38.17 38.74 39.10 39.41 40.06 40.37 40.54 39.52 37.27 37.74 37.55 37.79 35.64 32.28 38.78 39.29 39.47 39.01 40.23 38.24 35.50 37.09 36.21 37.44 37.10 37.33 37.24 37.13
45.16 45.94 48.42 51.49 51.62 51.50 51.58 51.94 51.92 51.42 51.21 50.96 50.44 50.63 49.05 46.74 44.91 42.63 43.09 43.15 43.34 41.07 39.62 36.12 34.34 33.55 36.52 35.10 34.48 37.25 37.15 38.26 37.72 38.04 37.00 35.91 36.57 36.13 31.79 37.70 38.13 38.78 39.37 38.33 36.81 37.08 37.20 37.03 36.93 36.48 36.68 36.60 36.04 36.68
44.75 45.24 46.47 49.75 51.44 51.32 51.35 51.79 51.50 50.86 50.62 50.35 49.90 48.02 45.94 43.92 42.10 42.37 42.12 41.75 42.94 40.64 37.39 35.11 34.19 33.45 36.02 34.84 35.83 35.41 36.78 33.06 35.81 33.95 34.13 34.56 33.73 30.54 35.44 37.35 37.44 37.83 36.20 35.74 35.57 35.86 35.76 35.20 35.18 35.74 35.69 35.64 34.55 34.92
44.26 44.74 45.85 47.71 51.10 50.96 51.03 51.56 51.16 50.53 50.03 48.93 46.19 42.22 39.11 40.47 43.04 42.68 39.86 37.88 38.50 38.56 37.48 34.38 35.98 32.35 35.37 34.43 33.43 33.99 34.53 33.09 30.75 32.92 34.38 30.15 31.12 37.04 37.87 38.18 39.86 38.52 36.95 36.70 33.53 32.62 33.61 33.57 33.42 33.56 33.59 34.61 34.61 34.59
44.35 45.21 45.59 46.67 50.54 50.49 50.69 51.29 50.93 50.00 48.71 44.34 40.08 38.30 38.59 42.25 39.12 36.91 34.70 33.58 34.25 32.14 34.82 34.90 34.48 32.07 35.01 33.36 33.59 34.81 32.72 32.93 28.48 30.84 29.33 28.88 28.90 33.69 37.14 37.93 37.94 36.77 36.45 35.80 36.09 35.24 34.61 33.78 32.88 32.80 33.59 34.54 34.88 35.10
43.80 44.34 45.26 46.17 50.31 50.40 50.69 50.94 50.18 47.33 44.50 43.58 40.12 40.18 38.59 36.63 34.55 32.34 31.81 31.42 29.71 29.95 32.83 31.21 31.97 34.50 33.46 35.59 34.07 32.15 30.88 29.52 26.21 32.07 27.71 25.18 32.16 33.63 35.08 35.31 34.78 35.91 35.87 35.15 35.17 34.96 35.10 34.56 35.10 34.47 34.14 34.11 34.60 34.98
43.84 44.30 45.29 46.74 50.34 50.53 50.61 50.37 49.05 45.67 44.79 41.99 38.09 34.08 33.89 32.39 29.11 28.30 24.88 26.79 28.40 31.99 31.34 30.86 29.99 32.95 32.18 33.97 32.63 31.52 27.31 27.15 30.72 26.05 25.28 30.10 32.57 33.48 33.97 34.40 34.41 35.39 35.19 35.21 35.19 35.64 35.73 35.18 35.34 34.44 33.86 34.57 34.75 34.30
43.26 44.16 45.78 48.64 50.15 50.25 50.32 49.30 46.40 45.13 40.14 33.40 32.03 28.27 31.38 28.20 30.65 31.44 31.01 32.31 32.29 33.48 32.01 33.31 30.25 31.49 32.15 30.69 31.06 26.86 29.11 28.07 23.08 22.41 25.04 32.46 32.76 33.83 34.91 35.14 34.81 34.16 34.97 33.42 32.87 33.59 33.14 32.27 32.01 32.62 32.86 33.61 33.22 32.52
45.92 45.84 47.09 49.52 49.74 49.89 49.57 46.79 46.24 41.19 35.17 31.76 31.81 29.26 29.39 33.03 31.41 32.63 32.86 32.01 31.65 34.30 32.02 30.80 30.97 31.80 29.72 28.18 29.53 27.92 23.80 22.87 24.80 25.70 31.36 33.34 34.06 34.01 33.96 33.77 34.19 33.83 33.68 33.29 33.51 32.45 31.53 31.37 31.20 31.56 32.81 33.33 33.18 32.83
47.41 48.23 48.72 49.56 49.66 49.43 46.74 45.88 41.35 37.11 32.05 31.79 31.04 30.11 31.08 31.14 28.46 30.41 32.24 31.26 32.34 33.04 32.89 33.19 29.50 29.04 28.35 29.40 26.26 25.06 24.58 23.44 28.32 32.27 33.50 33.17 32.27 32.69 32.94 33.46 33.51 33.71 33.19 32.91 32.87 32.74 32.73 32.26 31.76 32.25 33.36 33.19 32.95 32.47
47.99 40.72 48.65 49.12 48.78 46.38 44.72 36.49 34.60 31.85 31.67 30.59 29.50 32.33 32.35 33.56 31.50 32.21 33.42 32.11 33.97 32.67 31.16 30.95 27.45 27.54 27.77 26.22 25.22 28.06 26.28 30.89 32.94 32.60 33.01 33.02 33.08 33.22 33.54 32.90 32.41 32.15 32.25 32.35 32.10 32.17 31.90 32.75 32.38 31.07 29.95 31.93 32.59 32.38
43.06 47.33 48.31 45.89 43.22 39.68 33.45 32.33 31.94 31.51 28.41 30.36 29.34 30.52 32.29 33.19 31.67 30.95 31.79 32.28 32.90 33.00 32.47 31.23 29.04 25.77 24.95 23.55 25.06 29.77 31.39 34.44 33.78 33.86 33.56 33.40 32.96 33.06 32.60 32.08 32.07 31.97 31.72 31.18 30.59 30.87 30.78 30.13 29.61 30.04 30.93 31.94 32.06 32.33
39.18 42.69 44.15 43.68 39.98 33.72 31.31 30.63 31.80 26.11 27.68 29.75 30.19 31.93 31.90 30.87 31.77 33.54 32.96 32.89 32.61 33.32 30.97 30.06 27.59 26.57 26.82 28.66 30.89 33.34 33.66 32.29 31.24 31.99 32.21 32.50 32.26 31.67 31.43 31.11 30.68 30.61 30.40 30.54 30.95 31.25 32.09 32.47 32.26 32.33 32.38 32.40 31.39 32.38
39.95 39.49 39.17 39.05 37.32 32.28 28.78 28.67 32.87 28.72 26.43 27.60 29.99 29.65 29.30 28.68 29.73 31.77 30.88 30.95 31.50 32.10 28.76 27.04 27.60 29.77 29.91 32.51 33.39 34.06 33.90 33.54 31.43 29.29 29.69 31.86 33.21 31.77 31.23 31.12 31.44 31.88 31.83 31.89 31.99 33.42 32.27 32.11 32.91 32.98 32.86 32.53 31.72 31.58
37.54 37.26 37.58 35.62 32.36 31.80 30.15 28.98 26.77 27.51 27.73 26.01 28.49 28.77 25.84 28.77 28.79 29.23 28.51 30.31 28.95 27.02 26.51 29.06 29.92 32.11 33.48 33.60 34.15 33.79 32.85 32.52 30.85 30.95 30.39 29.85 32.45 32.40 32.15 32.54 32.50 32.53 31.53 31.31 30.85 31.25 32.28 31.42 32.48 33.15 32.65 32.07 32.46 32.72
36.88 38.66 34.71 34.38 29.77 29.51 28.19 29.23 27.41 27.12 25.27 25.80 25.87 26.45 25.47 25.14 25.40 26.05 28.09 26.25 26.04 28.63 28.81 29.98 31.08 31.79 31.91 31.11 31.97 32.29 32.65 32.46 32.27 32.07 32.88 32.49 29.83 30.00 30.39 31.33 31.11 30.57 30.81 30.98 31.23 30.81 31.31 32.22 32.65 32.53 32.02 31.90 33.12 32.38
36.99 35.16 31.48 30.56 25.53 25.94 24.84 29.64 24.99 25.56 21.79 21.62 24.42 22.23 21.95 22.38 22.48 24.79 22.87 25.16 27.37 29.84 30.56 31.03 31.82 31.94 31.18 32.21 31.11 30.81 31.15 30.54 30.25 30.72 31.07 31.30 31.77 31.60 31.25 31.29 31.65 30.32 29.75 30.67 31.93 31.37 31.00 33.02 32.57 32.07 31.85 31.69 31.21 30.88
35.57 29.47 24.99 23.31 24.51 21.29 26.59 23.59 25.04 22.65 22.86 21.51 21.16 18.77 19.42 21.10 21.37 20.63 20.36 24.53 26.66 28.23 27.85 28.49 29.80 29.57 30.56 29.69 28.93 29.99 30.96 31.81 30.90 30.82 31.19 30.28 29.28 30.03 31.33 31.23 31.81 31.91 31.36 31.37 30.99 30.61 30.66 30.44 31.79 30.66 30.33 29.86 29.76 29.36
25.72 23.89 25.19 20.17 21.63 21.01 20.23 20.57 19.97 20.00 17.58 19.36 17.48 16.62 16.66 17.62 18.36 17.84 17.76 23.13 24.79 26.19 28.39 29.29 29.57 29.60 28.44 29.40 30.44 30.86 31.93 31.26 29.72 28.69 30.71 31.28 30.69 30.55 30.05 30.63 31.22 31.81 32.02 30.26 29.35 29.34 29.46 29.92 29.80 29.47 29.22 29.02 28.49 28.30
18.69 23.45 22.57 20.96 19.69 19.64 19.20 16.99 17.81 17.93 18.33 16.89 16.95 12.83 15.11 16.87 14.21 15.75 21.25 23.68 25.68 28.38 28.69 28.18 27.78 27.72 27.88 29.05 28.53 29.54 30.99 32.54 30.90 28.76 30.04 31.30 30.43 29.23 28.18 27.45 27.47 28.85 32.04 31.37 30.10 29.14 28.93 29.19 28.87 28.23 28.15 28.47 30.25 29.16
17.03 21.56 23.77 24.13 21.81 19.42 17.64 17.97 18.70 17.48 15.40 15.32 15.42 12.52 14.40 11.35 14.02 20.36 25.12 26.82 28.11 30.04 30.93 31.66 30.74 29.69 29.64 30.51 31.77 32.42 32.68 32.23 30.20 30.60 32.26 31.99 31.71 31.55 30.38 28.25 27.19 29.76 31.83 31.01 30.36 29.55 28.58 28.38 28.20 28.21 28.10 28.66 28.77 28.67
25.41 23.63 17.55 20.60 18.37 19.61 15.55 16.21 15.56 14.79 17.10 18.30 16.23 12.11 11.88 15.31 18.81 26.08 26.57 30.83 30.65 32.38 31.75 31.09 30.98 31.34 31.21 31.38 31.76 31.65 31.44 31.69 31.18 30.61 30.73 30.58 30.77 30.68 30.33 30.69 30.96 31.86 31.31 30.87 30.40 30.08 29.70 29.47 28.98 28.86 28.47 27.97 28.20 29.22
24.48 22.79 22.39 13.80 15.98 18.13 17.20 17.11 17.58 20.27 22.37 18.48 17.82 18.14 18.16 22.61 27.30 28.50 29.78 30.14 30.26 28.28 26.99 27.43 29.24 30.54 29.88 29.52 29.89 29.73 28.98 28.40 26.31 23.44 22.74 23.60 25.70 27.99 30.81 30.63 30.56 30.62 30.63 30.20 31.91 32.12 31.16 30.60 30.28 30.02 29.73 29.50 29.62 30.27
22.71 25.95 20.79 17.56 16.31 17.87 23.47 23.27 24.08 24.64 23.71 24.38 24.93 24.66 24.35 26.08 29.23 30.87 29.47 29.02 27.01 26.83 28.64 30.00 30.94 30.64 29.03 28.40 27.91 28.32 30.10 29.58 28.15 26.25 24.31 24.42 26.61 29.81 29.74 29.90 29.89 30.44 30.89 30.94 30.74 30.83 32.76 31.68 31.09 30.19 29.55 28.90 28.51 27.92
23.99 23.69 20.94 21.09 19.76 24.12 25.77 24.44 23.81 24.37 23.31 23.17 23.04 22.78 24.36 27.48 29.56 31.67 31.44 31.53 30.60 29.69 28.81 28.21 28.47 28.76 27.56 26.85 26.57 25.92 25.73 29.43 29.07 28.75 28.87 29.29 29.46 29.46 29.61 29.77 30.18 30.54 30.57 29.65 29.17 28.34 28.36 29.10 28.63 28.25 27.84 27.02 26.38 26.89
19.62 19.93 17.60 13.93 17.84 18.95 18.27 20.69 20.17 21.95 22.02 19.94 22.19 21.90 21.09 21.59 19.79 26.12 28.87 29.05 28.14 27.33 29.35 29.39 27.22 27.37 29.40 29.73 29.57 29.54 31.33 29.72 29.22 28.05 25.89 27.70 28.38 29.03 29.70 29.98 30.15 30.33 29.32 27.64 26.55 25.97 26.31 27.28 28.35 27.67 26.89 26.37 25.34 23.43
13.93 14.66 12.06 15.45 15.25 15.13 14.51 16.85 13.59 13.24 13.46 14.47 16.90 18.69 20.94 20.99 18.68 25.42 26.90 27.24 29.83 29.32 28.94 28.98 29.58 29.91 28.74 26.85 28.01 28.93 30.41 29.35 29.16 31.61 32.10 32.18 32.34 31.45 30.73 31.73 30.24 27.85 25.94 25.36 25.33 25.66 25.23 25.20 26.33 27.32 27.26 26.03 24.79 22.90

GFSWCAN_sfc_wetblb_135.txt.gz
Wetbulb
53.77 53.94 53.81 53.77 53.56 53.05 52.66 52.78 53.07 53.80 53.23 52.37 52.27 51.88 50.57 50.19 49.74 43.70 41.71 42.60 39.91 36.32 36.08 37.95 38.71 35.14 35.04 33.65 31.15 34.28 33.11 33.40 31.31 27.98 26.17 25.39 23.94 25.68 23.74 27.36 25.59 24.47 22.32 21.77 22.85 21.39 20.03 33.10 32.28 28.20 30.61 32.19 33.53 32.65
49.41 52.49 53.67 53.58 53.55 53.47 52.97 52.62 52.75 52.97 53.07 52.58 52.22 52.25 50.88 49.91 49.34 46.98 40.81 43.24 42.00 38.08 38.04 39.07 38.46 38.08 37.71 36.78 35.45 35.36 33.95 33.72 34.17 29.43 27.46 26.62 26.01 24.91 24.64 23.38 28.17 25.37 29.53 26.84 27.55 27.76 33.33 32.66 32.04 32.54 34.16 33.06 31.94 31.97
47.47 48.67 49.41 52.87 53.42 53.23 53.17 52.93 52.64 52.60 52.91 52.41 51.97 52.32 51.39 49.91 48.83 45.83 41.12 40.71 40.62 37.05 36.65 35.88 35.62 37.39 39.79 38.41 39.11 34.63 34.51 36.29 34.71 34.89 31.75 30.08 26.95 28.23 24.97 25.48 25.39 28.59 31.55 29.64 29.78 30.47 32.25 33.30 32.97 33.49 32.79 32.61 33.10 33.22
46.66 47.36 47.74 48.68 50.57 53.32 53.13 52.89 52.85 52.76 52.87 52.68 52.30 52.43 51.79 50.31 47.39 45.77 41.01 40.92 39.91 38.55 32.06 34.77 39.62 35.61 38.48 38.97 38.67 38.86 37.65 38.03 36.92 35.52 32.51 30.35 28.30 30.98 27.49 28.30 27.13 29.45 30.65 29.28 28.83 29.91 31.53 32.27 32.82 33.31 33.28 33.43 33.12 33.44
45.57 45.78 46.62 47.46 48.43 49.42 52.92 52.68 52.60 52.64 52.70 52.69 52.23 52.03 51.97 50.17 46.68 43.82 41.58 40.67 40.72 37.52 34.30 34.52 36.29 36.24 37.77 37.73 37.45 37.97 38.24 36.93 35.06 33.07 31.05 30.08 31.30 30.27 28.62 28.32 25.94 30.06 29.74 28.33 27.87 31.90 31.20 30.96 32.85 33.67 32.54 32.57 33.32 33.23
44.80 44.97 45.59 46.43 47.21 47.96 48.94 52.53 52.29 52.22 52.15 52.04 51.58 51.50 51.63 49.09 46.86 43.38 38.89 40.45 41.73 40.15 34.96 29.64 34.95 33.91 36.79 36.45 37.04 36.71 36.90 36.24 35.18 33.42 32.25 32.89 34.24 31.30 26.89 25.92 32.34 31.88 32.26 33.41 32.90 32.10 32.93 33.01 33.73 33.67 33.05 33.26 33.48 32.89
44.23 44.35 44.83 45.25 46.05 47.00 47.65 48.94 52.07 52.02 52.13 51.87 51.39 51.32 50.57 48.43 44.69 40.99 39.00 41.24 43.39 40.68 35.54 29.66 29.49 33.36 34.96 34.30 34.78 34.87 35.64 34.51 34.68 33.51 31.51 31.96 32.26 32.32 28.49 26.26 33.24 32.25 33.79 33.80 33.11 33.24 31.72 31.72 31.23 32.96 33.29 33.32 35.07 31.93
44.13 43.88 43.94 44.35 45.01 45.98 46.70 47.65 49.22 51.89 52.03 52.00 51.47 51.24 49.62 47.99 44.98 40.55 41.06 43.61 42.20 37.92 36.18 27.48 28.92 31.08 34.84 32.18 30.41 33.89 32.37 33.06 32.84 31.80 32.10 31.41 32.06 30.64 27.67 32.57 34.24 33.63 34.16 32.57 31.29 31.19 32.27 31.85 31.77 31.49 31.54 31.98 30.54 30.57
44.11 43.78 43.64 43.66 44.27 44.83 45.61 46.59 47.89 50.69 51.57 51.52 51.13 49.57 45.89 43.79 40.98 40.58 43.54 42.86 39.86 37.67 30.92 29.51 25.74 27.83 34.15 32.39 32.83 31.85 31.44 27.34 30.56 28.44 29.39 31.18 29.48 28.52 32.05 33.08 33.33 33.44 33.38 31.63 31.27 31.23 31.10 30.58 30.33 30.45 30.09 28.51 26.94 28.18
44.33 43.57 43.64 43.49 43.66 44.10 44.61 45.54 46.38 47.50 51.22 49.78 46.41 42.82 38.32 40.66 44.27 42.72 38.42 35.07 31.85 32.74 31.29 27.94 29.24 27.88 32.34 31.44 31.04 30.59 30.29 28.78 22.58 28.37 30.64 29.18 28.33 32.63 33.98 34.49 34.86 34.90 32.71 31.29 28.35 26.93 27.29 26.72 28.07 27.41 27.34 29.01 28.93 28.82
43.62 44.16 43.39 43.49 43.51 43.64 44.01 44.69 45.62 46.43 49.07 44.81 40.34 36.82 38.98 43.49 38.45 36.59 32.78 29.72 30.02 30.16 31.06 29.11 29.82 28.53 33.06 30.36 30.54 32.10 26.17 27.98 22.17 25.33 26.83 26.14 25.53 29.70 32.18 31.59 31.60 31.66 31.12 30.55 30.53 30.37 29.29 28.69 27.63 27.64 28.09 28.82 29.51 29.49
42.75 44.32 43.48 43.25 43.17 43.44 43.67 44.05 45.03 45.13 45.20 43.53 39.72 40.04 38.59 35.91 33.25 31.49 29.93 28.52 29.45 25.55 28.45 29.75 31.05 31.32 29.64 31.18 29.08 27.80 25.26 27.56 22.15 29.57 26.54 22.60 25.35 29.93 30.93 28.19 28.49 29.10 29.55 29.40 29.75 29.68 29.82 29.68 29.54 29.44 29.35 29.40 29.55 30.03
43.50 43.95 43.17 42.77 42.95 43.40 43.67 43.83 44.92 45.85 44.86 41.46 36.84 32.12 32.40 31.12 27.69 25.48 24.00 27.19 23.55 26.48 29.41 29.44 29.01 28.39 28.33 30.45 27.84 26.81 26.35 24.94 26.16 24.94 23.29 23.16 27.40 28.08 27.84 28.58 28.44 28.26 29.23 29.71 29.91 29.82 29.04 28.58 29.86 29.73 29.75 30.33 30.05 29.63
43.07 43.00 43.29 43.00 42.72 43.14 43.89 43.89 44.74 45.85 41.49 34.37 31.05 26.85 29.95 25.10 26.47 25.47 24.48 25.58 26.71 28.94 29.93 29.51 27.50 26.64 27.83 26.48 27.49 19.92 26.03 25.60 22.52 20.87 17.60 20.32 25.16 26.92 28.20 28.89 28.36 27.65 28.16 25.81 26.37 28.16 28.61 28.09 28.63 29.33 29.37 29.93 29.64 29.49
42.64 43.01 43.87 43.80 43.94 42.97 42.70 43.35 43.90 44.11 37.60 31.84 31.09 27.62 27.29 28.19 23.89 22.39 21.45 26.42 25.11 32.06 30.57 28.11 27.85 27.60 27.15 23.63 26.56 24.77 20.74 18.58 22.96 20.63 21.90 23.32 26.78 28.02 27.72 27.61 27.76 28.13 28.09 27.83 27.87 26.55 25.76 26.37 26.86 27.99 29.28 29.58 29.65 29.68
42.36 41.71 40.34 42.15 42.54 42.44 42.55 42.74 41.46 40.68 33.13 31.13 30.29 30.74 29.30 25.45 27.44 21.10 21.69 30.21 28.85 31.58 29.06 29.40 27.03 25.23 21.05 25.48 20.22 18.69 19.10 15.02 19.10 21.62 24.46 26.51 26.95 27.48 27.58 28.32 28.53 28.36 27.53 27.63 27.80 28.46 28.72 28.57 28.15 28.22 28.83 28.77 29.19 28.90
40.48 36.54 39.58 40.45 41.07 41.60 42.56 39.87 36.09 32.36 31.18 29.96 29.35 31.91 26.54 25.53 29.46 24.16 27.28 31.21 33.44 32.09 26.80 27.62 22.61 22.56 26.87 19.81 18.67 22.75 19.73 25.77 27.99 23.72 24.68 26.34 26.42 27.20 27.69 27.82 27.92 27.68 27.36 26.81 26.73 27.54 27.38 28.52 26.05 21.19 24.47 27.78 27.75 27.89
37.08 38.81 39.58 39.68 40.14 39.77 39.33 36.49 32.93 30.84 27.61 30.40 27.60 25.79 28.30 26.78 27.93 27.60 27.00 32.17 32.10 28.96 29.01 24.66 26.76 24.45 20.55 17.06 17.92 23.47 24.28 23.03 24.43 27.60 27.92 27.61 28.09 28.22 27.78 26.42 26.40 26.00 25.66 23.12 23.10 23.74 21.22 21.43 22.16 25.29 26.29 27.19 26.08 26.09
39.13 39.30 40.14 39.83 39.63 35.83 30.38 29.61 32.38 27.38 27.65 28.88 30.11 26.40 26.75 27.32 28.36 30.59 31.61 34.02 32.51 32.59 31.19 27.53 26.22 18.58 22.81 25.30 25.11 24.23 25.62 25.90 27.37 27.70 27.69 28.42 27.90 26.50 26.27 24.70 23.94 22.53 23.18 23.06 24.58 26.36 25.73 26.08 26.72 27.86 27.86 27.52 26.61 27.86
41.01 40.56 38.65 41.50 41.49 30.96 26.60 26.54 32.23 27.87 25.37 28.65 30.38 29.41 29.74 29.82 31.34 32.09 32.79 32.25 32.14 30.94 27.65 23.84 25.70 26.77 27.58 28.63 27.56 28.88 29.82 28.67 27.09 24.19 23.91 24.80 25.78 23.01 24.30 24.70 25.66 26.52 25.37 25.18 25.05 29.15 25.68 25.35 26.91 27.18 27.28 27.08 26.17 27.01
35.50 33.65 39.28 37.52 31.89 31.11 26.10 26.55 24.41 26.66 27.85 26.05 28.35 27.65 26.78 30.51 29.64 30.03 30.63 30.71 29.12 28.99 25.75 27.31 28.55 31.10 30.13 30.12 30.44 30.16 30.34 28.67 25.16 23.86 22.72 21.87 24.09 24.57 23.35 23.46 22.99 24.47 23.54 25.65 25.81 25.71 28.82 26.97 28.31 27.13 25.93 26.85 27.32 27.82
32.21 35.62 32.03 33.48 29.24 27.94 25.16 27.08 24.87 27.49 26.22 25.35 25.61 27.39 25.16 24.04 24.35 25.64 28.74 26.72 26.76 26.48 27.18 28.41 29.04 29.55 28.43 27.50 28.13 28.33 28.42 27.86 26.27 25.56 29.48 28.25 24.65 22.92 23.71 25.26 22.40 23.45 24.14 25.36 25.52 25.34 26.52 27.76 27.73 27.32 26.73 27.75 29.52 28.59
33.65 32.42 29.91 29.40 25.36 24.11 23.47 29.04 22.42 24.18 21.70 20.90 24.18 21.32 20.81 20.08 21.29 25.39 24.59 25.68 26.12 28.16 29.60 29.07 28.55 27.87 27.81 28.36 28.01 27.69 27.53 25.87 24.45 24.66 25.05 25.03 24.98 24.95 24.61 25.18 25.26 23.18 24.65 26.41 24.90 26.16 26.63 29.85 29.17 28.87 27.80 27.78 27.05 26.95
34.08 26.99 22.90 22.50 23.31 20.48 25.13 21.02 24.37 22.87 23.12 21.93 19.48 17.42 17.92 18.84 21.94 20.68 19.93 21.84 25.49 27.35 27.96 27.72 26.36 24.81 25.35 25.57 24.47 25.85 26.23 24.43 22.60 22.23 24.04 22.92 21.53 23.66 24.53 25.63 26.30 26.51 27.07 27.16 25.24 26.20 26.26 26.37 29.07 27.38 26.50 25.63 25.76 25.44
23.22 22.45 22.98 19.04 23.10 21.07 19.20 18.58 18.94 19.73 17.56 18.81 16.25 15.31 15.97 19.43 17.54 16.61 17.51 20.76 23.69 24.96 25.76 25.33 24.47 24.56 24.45 24.57 24.76 25.34 26.76 25.40 23.61 23.32 22.37 23.96 23.63 23.08 22.09 23.82 25.51 27.19 25.79 20.80 23.07 23.76 24.77 25.74 25.51 24.51 24.60 24.25 24.01 24.05
18.21 19.80 20.06 19.35 19.24 18.97 18.56 16.39 17.73 17.53 17.85 15.04 13.40 14.07 15.29 15.75 14.77 15.44 17.40 20.46 23.52 24.26 23.31 24.42 24.72 23.57 23.88 25.02 23.30 21.69 24.06 25.22 21.91 20.73 23.19 23.89 23.92 22.82 19.34 20.51 22.58 25.98 25.03 25.34 25.15 23.26 24.01 24.98 24.56 22.39 23.36 24.05 28.20 26.80
17.03 18.05 20.48 23.66 20.85 19.35 17.87 18.30 19.02 17.81 15.31 13.58 12.25 12.32 11.65 9.45 11.75 16.43 20.85 22.72 23.64 23.84 25.39 26.61 26.04 25.16 24.37 23.57 24.24 24.85 23.50 22.44 23.61 24.44 24.11 23.52 24.36 25.09 24.03 22.60 23.46 27.23 27.73 22.77 23.81 24.17 24.49 25.30 24.95 24.50 24.01 24.29 24.80 25.11
18.65 19.14 16.83 16.60 17.17 16.88 14.83 13.83 13.10 13.21 14.65 15.58 14.52 9.61 12.53 14.40 16.30 20.78 22.10 22.71 21.94 21.07 19.70 20.55 23.28 24.64 23.50 23.54 23.81 22.80 19.37 18.50 14.59 13.62 17.52 21.92 22.06 23.83 23.89 26.60 27.77 30.75 29.56 28.58 27.15 25.58 23.85 24.73 24.58 24.74 24.20 24.26 25.85 27.45
17.53 20.01 19.44 13.48 13.39 14.04 12.82 13.29 13.95 16.63 19.34 16.03 13.43 12.92 13.71 18.15 19.90 20.79 23.06 21.72 17.51 20.19 19.39 19.66 23.07 15.72 15.22 14.60 14.34 17.54 18.08 15.49 15.80 13.92 14.69 17.28 14.54 20.13 18.54 22.51 23.81 23.26 23.22 24.53 29.47 30.63 28.25 26.67 26.99 27.38 27.90 29.04 29.50 27.58
15.61 17.82 13.65 9.58 12.06 13.37 14.80 15.73 13.87 14.04 18.14 18.64 19.64 17.38 18.10 18.17 19.54 19.18 17.99 15.47 17.05 20.35 23.37 21.37 16.86 13.36 14.94 13.86 20.38 20.79 16.49 19.73 21.82 22.72 19.49 19.84 20.53 17.83 12.35 14.63 18.78 21.23 22.41 23.16 24.65 25.13 29.32 28.79 29.40 29.70 29.08 26.32 24.24 23.19
22.63 23.04 10.45 10.51 10.30 10.92 11.14 13.34 15.91 21.21 12.07 8.30 8.01 11.33 12.69 13.73 19.31 20.06 21.65 22.97 22.95 12.66 12.55 15.36 14.99 11.25 16.06 16.66 13.29 14.95 21.04 16.95 18.23 20.68 22.76 22.43 21.22 21.59 23.02 24.24 22.37 20.35 22.34 23.24 23.80 24.57 25.40 26.62 27.05 26.89 23.74 21.08 20.15 23.34
14.37 10.65 10.68 9.99 10.49 9.93 6.64 6.01 3.96 6.03 4.46 6.77 8.01 2.52 8.34 9.62 10.37 16.61 19.45 15.55 11.94 12.98 22.00 19.23 15.17 20.78 19.32 22.89 20.67 21.31 28.59 20.67 14.27 16.69 15.17 17.87 19.18 22.27 23.33 24.23 24.70 24.68 25.06 25.67 26.81 27.43 26.94 26.02 24.01 21.48 22.17 20.95 20.71 20.37
8.95 9.31 3.37 3.88 7.66 8.79 7.63 4.59 2.54 1.97 0.42 0.11 2.58 3.75 3.88 10.52 12.83 17.26 15.57 15.68 19.93 19.38 18.92 18.52 19.50 20.14 18.52 17.40 18.32 18.67 24.86 19.04 18.22 29.12 30.87 31.25 31.26 29.46 28.01 25.76 25.49 27.11 28.61 27.98 27.42 26.69 23.31 21.01 22.01 21.49 20.17 19.05 18.74 18.86

GFSWCAN_sfc_wetblb_138.txt.gz
Wetbulb
49.37 52.61 54.27 53.97 53.94 53.71 53.18 52.55 52.20 52.55 53.51 52.71 52.06 51.70 50.63 50.16 49.68 43.04 40.74 40.79 38.41 35.01 35.26 36.65 37.42 33.95 33.63 32.60 30.14 32.77 32.36 32.60 30.28 27.23 25.63 24.46 22.61 24.39 22.17 25.41 23.95 23.20 21.07 20.78 21.34 20.14 18.80 32.32 31.17 27.82 29.67 30.76 32.03 31.52
47.78 49.12 51.64 53.78 53.70 53.68 53.27 52.73 52.37 52.24 52.98 52.95 52.42 52.14 50.99 50.59 49.68 45.12 40.14 42.32 41.13 36.51 36.34 37.78 37.11 36.94 36.96 36.43 35.28 33.77 32.21 32.40 32.67 28.35 26.63 25.23 25.15 23.12 23.15 22.02 25.55 23.93 26.99 25.13 25.43 25.95 31.67 31.89 29.97 31.84 33.00 32.15 31.75 31.52
46.98 48.01 48.41 49.60 53.04 53.42 53.33 53.18 52.54 52.11 52.29 52.82 52.54 52.39 51.36 50.34 48.82 45.09 39.91 39.63 39.57 35.79 35.59 34.83 34.59 36.37 38.86 37.64 38.40 34.08 33.35 35.12 33.82 34.07 29.94 28.19 26.47 27.48 24.23 24.33 24.61 27.55 30.02 28.50 28.88 29.16 31.69 32.24 31.49 31.89 31.98 31.71 31.98 31.78
45.94 46.26 47.01 47.59 49.10 51.21 53.12 52.93 52.84 52.35 52.15 52.86 52.87 52.48 51.87 50.86 48.17 45.43 40.41 39.83 39.38 37.30 30.70 33.05 38.42 34.54 38.19 38.08 37.99 38.26 36.72 36.86 35.72 34.51 31.70 29.44 27.40 29.94 26.32 27.26 26.26 28.68 29.94 28.70 28.31 29.98 30.43 31.89 31.82 32.57 32.04 32.30 32.11 32.18
45.31 45.23 45.96 46.74 47.54 48.44 49.40 52.65 52.72 52.58 52.42 52.69 52.53 52.08 51.98 50.81 47.52 43.00 41.05 40.53 40.59 37.22 32.49 33.79 35.28 35.83 37.20 36.94 36.55 36.75 37.45 35.79 33.81 31.36 29.95 29.13 30.13 29.62 27.20 27.15 25.28 28.88 29.16 27.87 27.72 31.46 31.27 31.29 32.66 32.57 31.51 31.25 32.12 32.29
44.73 44.53 45.02 45.58 46.11 47.24 47.94 48.41 51.86 52.20 52.12 51.92 51.78 51.57 51.70 50.01 46.80 42.53 37.99 40.55 41.54 40.55 34.07 28.19 34.07 33.36 36.05 36.52 36.50 35.59 36.06 35.09 33.96 32.75 31.02 31.66 32.98 30.47 26.03 24.86 31.01 30.52 30.69 31.88 31.47 30.56 31.67 31.31 32.45 32.37 32.14 32.58 32.94 32.84
45.13 44.09 44.23 44.48 45.11 45.93 46.92 47.51 48.17 51.52 51.97 51.81 51.69 51.30 51.24 49.05 44.78 39.95 37.51 40.71 43.39 40.34 34.47 29.91 31.33 33.04 33.92 33.39 33.94 34.46 34.93 33.62 33.54 32.17 30.49 30.60 31.13 31.52 27.67 25.53 32.00 32.47 31.88 30.92 31.27 32.15 30.63 30.96 31.38 32.94 33.10 32.75 34.89 31.56
44.08 44.64 44.04 44.13 44.21 44.89 45.56 46.61 47.32 48.23 51.49 51.99 51.73 51.25 50.60 48.41 45.62 41.04 41.27 44.36 42.09 37.15 34.89 24.76 27.27 30.61 34.75 31.41 29.63 32.50 31.10 31.83 32.06 30.68 30.68 29.92 30.56 28.97 27.63 31.55 33.04 31.41 32.61 31.12 30.39 31.51 32.86 32.03 31.33 30.91 30.90 30.94 29.98 29.76
42.50 43.84 44.33 43.77 43.92 43.95 44.55 45.17 46.54 46.93 48.02 51.57 51.26 50.40 46.37 44.02 41.14 39.87 44.32 42.77 39.12 36.64 27.85 28.47 24.70 25.94 33.95 32.33 32.54 31.73 30.78 26.54 29.65 28.36 28.66 30.26 28.09 27.36 31.62 32.45 32.52 32.56 32.30 31.80 30.15 30.36 30.41 29.56 29.34 29.73 29.08 27.98 26.75 27.04
41.41 42.52 43.96 43.97 43.64 43.77 43.92 44.45 44.98 46.56 47.45 50.23 46.79 43.41 38.61 40.98 44.63 43.36 38.58 34.17 31.01 31.85 32.86 28.33 28.27 27.47 32.17 31.34 30.78 28.88 28.73 26.91 19.89 27.41 28.80 28.63 28.04 32.30 33.65 34.23 34.01 33.99 33.11 30.55 28.29 27.05 27.20 26.68 27.63 26.88 26.83 27.72 27.72 27.74
40.94 42.05 42.65 44.14 43.72 43.54 43.40 43.64 44.31 45.57 47.29 45.28 40.57 36.77 39.35 43.79 39.02 37.07 33.39 32.19 29.42 29.61 30.31 28.90 30.36 28.33 32.96 29.86 30.05 31.74 25.07 26.20 18.65 22.87 26.40 25.67 25.58 29.51 32.00 31.75 31.01 33.00 31.00 29.49 29.65 29.74 29.15 28.38 27.13 27.08 27.27 27.47 28.04 27.78
40.65 41.54 42.05 42.97 43.96 43.32 43.35 43.54 43.94 43.68 44.30 43.12 39.89 40.24 38.88 36.09 33.48 32.20 30.50 28.75 29.02 26.29 27.67 29.59 31.30 30.00 29.11 31.59 29.47 28.10 25.32 27.53 23.25 29.21 26.91 23.18 25.92 29.53 30.16 27.93 28.20 28.87 29.46 28.79 28.84 28.38 28.16 28.52 28.51 28.06 27.82 27.59 27.62 28.39
40.78 41.17 41.98 42.83 43.86 42.95 43.35 43.52 43.64 44.33 44.25 41.34 36.31 31.99 31.98 31.07 27.55 27.37 23.40 27.18 25.05 24.68 28.37 29.17 27.48 27.95 28.31 30.32 27.21 26.86 25.88 24.88 27.38 25.08 21.83 23.30 27.13 27.92 27.25 27.28 27.08 27.58 28.49 28.84 28.83 29.15 29.52 28.07 28.61 27.84 27.90 28.32 28.46 28.21
41.13 41.19 42.54 43.50 43.53 42.70 42.82 43.30 43.92 43.92 41.70 34.76 30.96 27.13 28.94 25.31 26.86 25.03 24.30 27.52 27.16 26.78 29.30 28.59 26.89 26.81 27.84 26.42 26.73 19.86 25.84 25.42 22.21 20.59 18.60 21.55 25.90 26.58 26.93 27.58 26.82 25.76 26.36 24.76 26.08 27.26 26.58 25.69 25.77 26.92 27.77 28.19 27.94 27.60
41.30 41.80 43.04 42.89 43.27 43.39 42.67 42.81 43.47 42.58 38.30 32.09 30.60 27.10 27.36 28.35 25.04 21.17 20.50 25.39 25.39 31.63 29.60 27.28 26.53 27.48 26.93 25.28 26.09 24.59 23.28 21.68 21.51 19.33 22.71 23.39 25.61 26.64 26.84 25.98 26.16 26.36 26.53 26.83 26.58 24.48 21.89 21.49 22.55 25.71 27.06 27.36 27.39 27.01
40.96 41.70 40.67 42.80 42.63 42.39 43.08 42.57 41.21 40.04 33.33 30.74 30.12 29.59 30.29 23.54 27.31 26.11 18.79 25.17 27.76 31.75 28.17 28.52 27.56 22.64 22.57 22.89 24.56 21.00 16.37 14.23 19.83 22.09 24.14 25.84 26.33 26.91 26.36 26.07 26.79 26.89 26.01 26.12 26.13 26.76 26.97 26.18 25.55 25.45 26.33 26.38 26.42 26.25
40.69 37.92 41.29 40.92 40.59 40.69 41.30 39.05 37.21 33.29 32.31 30.50 26.99 32.39 30.05 22.32 24.56 24.06 25.92 28.08 33.13 31.46 25.71 25.12 20.34 22.72 24.85 18.85 19.38 21.18 18.86 23.02 23.26 22.77 24.67 27.56 27.74 27.23 26.52 26.81 26.94 26.93 26.56 26.17 25.03 25.36 25.36 25.87 22.09 17.08 19.87 25.02 24.99 26.06
37.84 39.01 40.86 40.53 39.48 38.00 37.39 35.83 32.84 31.73 28.54 26.46 27.30 26.12 31.71 27.83 25.22 26.10 27.01 31.97 31.78 29.58 28.30 24.26 25.68 23.85 22.00 19.32 18.52 23.83 24.65 22.10 23.95 27.36 28.19 26.93 26.59 26.81 27.12 26.52 26.89 26.34 25.47 22.18 20.71 19.75 16.84 15.62 18.18 22.99 23.07 24.71 23.14 23.78
37.65 37.26 40.58 40.86 38.94 35.17 32.05 31.76 32.24 26.97 25.34 20.96 23.17 22.50 25.33 26.78 27.44 28.87 29.80 33.85 31.42 31.66 30.27 27.27 24.14 20.10 21.92 23.34 23.81 24.21 23.95 24.79 26.26 26.26 26.09 26.79 27.10 26.89 26.93 24.77 22.86 21.17 21.16 19.45 21.93 24.12 24.28 24.70 24.94 25.64 25.68 24.92 25.04 26.17
41.39 41.28 40.89 41.08 39.75 32.15 27.96 28.69 32.68 24.59 21.37 24.95 25.60 26.71 24.31 27.57 28.14 28.59 31.71 32.76 30.63 30.85 29.10 25.92 24.65 25.54 25.73 28.31 29.37 30.16 29.66 28.72 28.44 26.24 25.87 26.16 26.41 22.78 23.39 23.17 23.90 25.38 22.90 23.50 21.81 27.81 24.43 24.29 25.78 25.72 25.58 25.65 24.61 25.11
37.11 36.69 39.29 39.22 34.16 31.85 29.40 27.40 27.48 25.29 25.21 19.30 23.02 29.41 28.06 30.88 30.50 30.43 30.94 32.58 30.56 30.21 28.79 26.27 27.18 29.17 30.99 30.92 30.71 31.28 30.43 30.55 29.24 28.76 29.48 25.84 24.12 24.13 23.63 22.49 21.70 23.14 21.97 23.34 23.06 24.22 27.00 25.00 26.55 26.57 25.26 26.12 26.15 26.38
32.88 35.49 31.92 32.71 28.96 27.75 26.15 28.03 24.85 26.87 23.94 24.20 26.27 27.36 25.23 24.56 25.05 29.82 31.33 30.07 29.59 28.46 27.74 27.79 28.09 29.80 28.92 29.48 30.39 32.45 31.51 28.49 25.83 25.32 27.26 27.70 22.31 21.34 21.80 23.38 21.41 21.56 22.31 23.75 23.73 23.37 24.56 26.02 26.56 25.62 24.94 26.05 28.01 27.40
34.29 32.47 30.18 29.71 25.24 23.95 22.91 28.84 22.03 23.11 20.56 21.01 19.44 16.62 19.09 17.85 22.96 25.38 27.57 28.00 28.72 26.96 28.01 28.25 29.17 30.14 29.56 29.15 28.61 27.34 28.66 27.47 24.55 23.96 24.86 24.45 24.45 24.19 23.17 23.23 23.43 20.27 21.55 24.61 23.62 24.61 24.68 28.36 28.02 28.11 27.31 27.39 26.57 26.18
33.78 27.37 23.86 23.12 23.57 20.21 24.38 21.10 24.21 21.98 23.11 21.28 18.98 11.95 9.74 16.17 22.73 21.79 22.08 22.60 24.65 26.99 27.65 28.16 28.88 27.50 27.45 27.05 25.68 26.95 27.16 24.92 23.07 22.04 23.96 22.63 20.20 22.60 23.38 24.41 23.70 23.95 25.50 23.91 23.68 24.59 25.13 25.65 28.30 26.23 25.67 23.89 23.90 23.57
23.29 21.39 22.72 18.70 22.92 20.78 18.02 16.88 14.95 13.29 10.97 13.32 11.82 14.55 14.53 16.94 13.69 15.66 18.53 17.90 21.97 26.06 30.01 29.88 28.80 27.41 26.72 27.67 25.81 26.03 26.13 25.10 23.33 22.77 22.04 23.01 22.30 21.91 20.21 21.93 22.60 24.67 24.16 18.23 21.45 22.24 23.27 23.67 23.73 23.40 23.30 21.64 22.47 22.88
17.75 19.27 19.33 19.39 18.91 17.50 18.00 14.14 14.84 15.36 13.91 9.92 9.48 12.69 15.93 17.75 17.36 17.94 18.63 21.02 26.00 27.74 27.90 28.19 27.78 26.02 25.04 25.91 24.62 23.25 24.40 24.40 22.55 20.96 21.99 23.57 23.56 21.83 20.15 18.23 16.91 23.93 23.77 24.43 23.08 20.52 21.43 22.57 22.60 22.35 22.89 23.27 27.20 26.04
17.97 18.24 21.51 24.33 21.72 19.75 19.00 19.56 20.56 19.36 16.70 14.67 13.95 13.96 16.55 16.80 16.07 19.48 22.79 24.35 25.11 26.13 27.91 28.67 28.22 27.05 25.67 25.90 26.28 25.65 22.80 23.51 23.54 23.50 23.13 22.77 24.09 24.43 22.86 19.16 19.33 24.77 23.35 21.78 22.09 21.98 21.82 23.13 23.42 23.55 23.62 24.38 23.90 23.14
18.59 19.93 17.75 18.15 18.69 18.25 16.85 15.95 15.77 15.95 16.71 17.54 16.96 14.70 15.90 16.85 18.14 21.93 22.53 23.22 22.57 21.69 23.84 24.74 26.21 26.87 25.68 24.29 22.84 22.72 18.68 15.75 12.96 13.07 15.24 18.01 18.63 19.92 20.64 24.67 25.54 29.35 27.52 23.56 22.02 20.36 21.15 22.87 23.75 24.04 23.92 23.57 24.40 24.89
17.67 20.84 20.19 16.80 16.28 16.87 15.67 15.13 15.78 17.76 19.60 17.62 16.88 16.17 16.96 19.40 21.14 21.82 23.87 22.13 18.96 21.02 21.98 21.38 20.03 13.19 13.40 12.73 13.50 13.59 14.07 15.89 16.63 14.62 13.22 16.26 13.78 18.84 15.41 17.84 18.36 17.86 19.17 19.92 27.06 28.97 24.50 24.41 25.76 27.21 28.13 27.61 27.25 27.59
17.22 19.52 14.52 12.30 14.02 14.84 15.10 15.51 13.99 14.35 18.18 18.84 19.78 18.50 19.60 20.28 21.14 21.03 20.20 17.33 18.35 18.44 16.95 14.51 11.07 14.59 14.33 13.91 14.06 13.11 12.36 16.06 19.50 20.70 16.57 16.81 17.21 15.56 10.05 10.96 13.03 16.11 16.83 17.93 19.77 21.41 27.31 25.02 25.89 24.40 23.37 24.72 26.00 22.55
20.34 21.25 12.07 11.22 10.52 10.47 10.04 11.53 12.90 19.71 12.93 11.66 11.54 14.40 15.02 13.94 19.45 20.10 19.62 20.27 17.24 13.13 13.05 13.43 10.12 4.93 10.15 8.07 8.39 9.44 14.16 14.51 15.16 17.14 17.66 16.94 15.38 14.97 17.14 17.86 19.29 19.11 18.28 17.81 18.27 19.97 24.30 25.64 25.65 25.38 23.55 21.52 19.75 24.12
10.99 5.44 7.54 10.17 9.65 7.80 6.09 4.54 5.92 6.07 8.18 11.04 10.77 6.69 11.81 14.38 13.70 17.68 18.41 12.97 10.81 13.51 19.67 13.78 10.73 15.91 15.68 17.44 15.43 15.71 26.34 17.12 11.73 13.58 13.12 15.96 16.92 18.00 18.65 19.37 19.04 18.03 17.48 18.12 22.19 25.30 26.05 25.74 25.97 25.72 23.96 20.44 18.98 20.21
5.10 3.26 -1.66 1.16 6.12 5.62 4.01 3.58 3.14 4.42 3.16 1.48 2.84 1.63 1.20 7.80 11.40 16.51 14.66 12.69 17.59 17.76 16.98 16.65 18.13 16.64 15.54 15.01 15.27 15.21 21.98 14.33 14.59 26.90 29.70 29.74 30.85 27.61 26.42 17.77 16.06 17.11 19.77 22.84 25.59 26.74 26.30 24.69 22.98 21.92 20.62 20.25 20.60 19.01

GFSWCAN_sfc_wetblb_141.txt.gz
Wetbulb
48.51 49.29 51.82 54.70 54.21 53.91 53.36 52.95 52.30 52.04 52.31 53.13 52.23 51.76 50.81 50.03 49.24 42.55 39.80 39.42 37.48 34.01 33.89 35.61 36.36 32.49 32.61 32.06 30.06 31.79 31.79 31.79 29.49 26.71 24.91 23.82 21.71 23.49 20.99 23.16 22.90 22.67 20.18 20.33 20.89 18.95 17.83 30.80 30.59 27.67 29.56 29.57 30.54 30.34
47.09 48.47 49.15 51.96 53.82 53.69 53.63 53.03 52.29 51.81 51.99 52.81 52.49 52.19 51.07 50.30 49.18 44.39 39.30 41.29 40.21 35.71 35.20 36.68 36.05 35.81 35.39 34.79 33.84 32.59 30.61 31.26 31.96 27.45 25.90 24.39 24.48 21.49 21.64 20.80 23.51 22.42 25.19 23.48 24.28 24.94 29.93 31.32 30.23 31.38 31.72 31.73 30.80 30.97
46.36 46.78 47.62 48.91 49.90 53.21 53.37 53.12 52.53 51.99 51.73 52.19 52.80 52.57 51.82 50.67 48.82 44.92 39.85 38.60 38.34 34.99 34.43 34.43 33.59 35.51 38.24 36.71 37.25 33.28 32.92 33.90 33.04 32.99 28.76 26.81 25.68 25.88 22.78 22.81 22.13 26.69 28.32 27.27 27.28 28.37 30.20 32.71 31.69 31.95 31.65 31.58 31.38 30.98
45.71 45.79 46.79 47.32 48.15 48.94 52.00 52.94 52.79 52.40 51.97 52.13 53.23 52.71 52.09 51.18 48.78 45.35 40.78 39.53 37.83 36.13 30.41 31.74 37.56 33.43 36.84 37.50 37.36 37.35 35.73 35.94 34.58 33.25 30.41 28.57 26.97 29.48 26.32 27.12 25.37 27.85 28.94 28.12 27.32 29.73 29.59 31.91 31.25 31.93 31.16 31.24 31.23 31.26
45.22 45.04 45.69 46.54 46.82 47.62 48.61 50.25 52.50 52.43 52.25 52.07 52.39 52.23 51.97 51.13 48.16 42.56 40.05 39.99 40.30 36.75 31.93 33.16 34.67 34.60 36.04 36.28 35.69 36.17 36.84 34.63 32.46 30.51 29.13 28.54 29.09 28.80 26.59 26.71 24.44 28.12 28.59 27.52 27.78 30.91 30.96 31.13 31.11 32.16 31.04 30.90 31.50 31.61
45.25 44.62 44.69 45.06 45.89 46.65 47.50 48.18 49.10 51.92 51.99 51.65 51.69 51.73 51.61 50.11 46.22 41.81 36.75 39.53 40.78 40.10 34.54 28.65 33.36 32.46 35.10 35.25 35.63 34.71 35.50 34.32 33.10 31.79 29.85 30.18 31.76 29.72 25.15 24.33 30.21 29.17 29.75 31.00 30.54 30.14 30.70 29.84 30.69 30.58 31.01 31.23 31.62 31.78
42.99 44.90 44.25 44.28 44.65 45.34 46.12 47.04 47.90 48.35 51.59 51.78 51.66 51.51 51.27 49.23 44.78 40.07 36.60 39.74 42.65 39.42 33.45 27.90 28.99 33.50 33.89 32.23 33.19 33.49 34.00 32.98 33.45 31.72 30.11 29.38 30.20 31.18 27.05 24.70 31.06 31.37 31.85 30.38 30.70 31.01 29.28 29.62 29.96 31.32 31.85 32.26 34.68 31.57
41.54 42.96 44.51 44.05 44.00 44.27 44.78 45.47 46.65 47.35 47.76 50.76 51.73 51.46 51.17 48.46 45.93 41.92 40.72 44.23 41.03 36.14 33.55 23.98 25.47 29.79 35.10 31.28 29.52 31.75 30.73 31.10 30.96 30.21 30.49 30.09 30.29 28.92 27.12 31.17 30.70 30.35 30.39 29.50 29.70 29.48 30.69 30.69 30.27 29.78 30.25 30.27 29.56 29.47
40.86 41.52 42.71 44.32 43.86 43.96 44.10 44.75 45.30 46.28 46.85 47.67 51.23 50.72 46.65 44.51 41.63 39.92 44.65 42.20 38.63 35.40 27.79 26.13 25.17 26.32 33.98 32.19 31.88 30.85 30.51 26.85 29.56 28.67 28.63 29.97 27.88 26.72 31.70 32.37 31.97 32.02 31.05 30.79 28.85 29.10 29.15 29.04 28.73 28.96 28.93 28.24 27.87 27.36
40.44 40.76 41.43 42.49 44.08 43.83 43.69 43.86 44.42 45.30 46.55 48.17 46.90 43.78 38.90 41.51 45.03 43.40 38.74 35.10 32.02 31.57 30.49 27.13 28.47 28.16 32.24 30.93 29.59 28.26 28.08 26.79 20.11 27.37 28.50 28.86 29.44 33.04 33.93 33.30 33.63 33.30 32.15 29.63 28.03 26.44 26.95 26.68 27.90 27.17 27.36 27.18 26.87 27.06
39.79 40.24 40.78 41.98 42.51 44.08 43.49 43.49 44.02 44.92 47.28 45.00 40.60 36.44 39.80 44.34 39.33 37.56 33.48 32.51 31.06 29.92 30.85 29.45 28.51 27.88 31.90 27.92 28.22 29.86 23.81 25.16 18.06 22.36 26.05 25.07 25.07 29.28 32.07 31.77 30.56 31.37 31.69 29.50 29.64 29.99 29.80 29.13 27.32 26.69 27.02 27.56 27.78 27.19
39.78 40.00 40.33 41.18 41.86 43.17 43.41 43.01 43.71 43.24 42.95 41.75 39.89 40.41 39.19 36.08 33.65 32.37 30.89 30.59 29.51 27.62 27.59 28.58 29.18 29.30 29.24 30.52 28.59 28.41 24.09 27.06 22.34 27.20 26.81 22.88 26.40 29.79 30.51 28.81 28.33 29.82 29.72 29.93 29.54 29.02 28.14 27.90 27.33 26.90 26.81 26.75 26.84 26.79
39.92 39.93 40.14 40.91 41.65 42.69 43.41 42.89 43.36 44.43 44.42 41.47 35.51 31.88 31.48 31.02 27.96 27.80 24.96 27.05 27.65 25.10 28.35 28.96 25.46 27.65 27.82 29.03 26.50 25.62 23.94 23.44 27.32 25.25 23.74 23.60 27.20 28.16 27.63 27.09 26.60 27.39 28.20 28.09 27.80 28.12 28.25 27.97 28.49 27.01 26.71 26.78 25.90 26.49
40.25 40.42 41.17 41.01 41.73 42.87 42.99 42.89 43.42 43.22 41.38 33.95 30.52 26.55 28.03 25.67 26.90 25.57 23.57 26.84 27.80 25.73 29.48 26.95 25.80 26.13 27.41 25.69 25.80 19.67 25.30 25.62 22.28 20.86 18.70 21.83 25.36 27.39 26.34 26.72 26.18 25.90 26.80 26.28 26.71 27.30 27.26 25.87 26.16 26.44 27.20 26.90 26.47 26.05
40.84 40.87 41.29 40.88 42.28 43.12 43.13 42.97 43.31 41.94 38.43 32.05 30.60 25.60 27.85 30.26 24.91 20.44 18.07 23.92 26.17 30.92 28.46 26.97 26.34 27.24 25.73 25.82 25.63 24.87 23.10 21.63 22.56 18.32 22.19 22.91 25.59 26.41 25.97 25.74 25.57 24.99 24.88 25.02 25.00 23.44 20.98 21.69 22.40 24.89 26.12 25.65 25.29 25.68
40.43 39.97 37.79 41.03 42.41 42.74 42.93 42.24 40.75 39.60 33.85 31.05 30.42 28.02 30.88 28.48 27.51 27.17 23.46 27.52 26.69 30.80 28.58 29.45 25.99 21.94 24.34 22.99 24.23 22.73 21.00 19.02 21.03 22.60 24.24 25.50 25.60 25.86 26.11 25.31 25.15 25.35 24.88 24.98 25.09 25.85 26.04 25.18 24.69 24.26 24.45 24.32 24.28 24.57
39.55 36.28 40.66 41.82 42.53 42.42 42.30 38.72 36.78 32.74 31.69 30.66 27.59 30.55 28.70 23.21 24.43 28.50 25.58 26.94 29.77 30.40 27.91 26.45 21.01 23.44 23.64 22.33 22.15 21.53 17.36 23.96 25.25 22.57 23.06 26.91 27.00 26.65 26.07 25.29 25.78 25.50 24.91 24.99 24.77 24.83 24.54 24.80 20.83 15.93 19.17 23.97 23.46 24.43
35.64 37.15 40.99 41.64 40.44 38.96 35.95 34.90 32.20 31.34 28.07 29.08 26.60 22.26 31.05 29.47 27.08 27.75 28.87 31.42 31.62 29.59 28.21 25.24 26.63 24.58 23.51 21.85 21.72 23.80 25.24 23.91 24.07 25.40 27.60 26.94 26.78 27.18 27.18 25.98 26.28 26.34 25.86 21.98 19.29 17.39 15.54 14.52 16.23 20.82 21.64 22.98 22.13 22.86
37.69 37.66 40.91 41.45 37.86 34.34 31.74 31.77 31.75 26.72 26.15 20.25 23.51 21.70 24.47 25.87 26.94 28.73 30.18 32.95 32.63 32.04 30.30 27.47 26.53 21.02 21.51 23.34 24.94 23.64 23.35 26.16 26.67 26.14 25.81 26.64 27.32 27.53 26.93 25.13 23.51 21.59 20.96 18.05 20.32 22.76 23.20 23.59 23.27 23.60 23.91 23.75 23.47 24.77
40.58 41.01 40.87 42.03 38.48 31.84 28.97 28.61 32.40 20.07 23.43 23.81 24.56 21.13 22.78 23.59 25.54 25.75 27.65 31.45 32.08 31.64 30.00 28.32 27.47 26.53 25.75 26.77 27.30 27.20 28.70 28.08 27.80 26.05 25.53 25.41 26.04 25.12 25.44 24.65 24.30 24.51 21.17 21.87 19.39 26.39 23.65 23.53 24.13 24.17 24.04 24.13 23.08 23.73
39.50 37.79 40.22 39.34 34.81 32.46 21.51 16.97 24.85 27.11 18.42 23.17 25.47 24.29 21.55 28.09 26.84 22.55 24.95 29.60 30.87 30.14 28.46 29.00 27.76 28.99 29.63 29.69 29.99 30.73 29.70 30.75 30.70 29.51 29.92 27.14 25.94 26.98 24.78 22.54 20.72 21.56 21.79 23.20 23.05 23.31 26.60 24.00 25.16 24.82 24.49 24.97 25.16 25.78
33.51 38.13 32.19 34.18 30.38 29.80 28.51 24.43 18.98 23.30 22.18 23.82 21.40 22.28 23.58 27.18 28.31 28.39 27.42 29.73 29.96 30.96 29.43 30.40 28.07 30.00 29.08 28.50 29.92 31.12 31.27 30.38 27.27 29.71 31.09 31.74 24.36 22.15 21.40 22.68 20.72 20.39 21.02 22.14 22.73 22.97 23.62 23.99 24.13 24.10 23.96 25.01 26.74 25.86
36.10 33.25 30.43 30.31 25.21 23.69 20.28 26.76 21.46 18.42 16.92 21.59 22.89 21.63 16.92 12.31 17.37 26.75 28.40 29.61 30.57 26.82 29.19 28.13 28.53 29.20 29.36 29.24 28.87 28.22 28.50 28.79 27.06 27.51 28.54 25.22 25.06 24.04 22.92 22.81 23.31 20.09 20.26 23.23 22.77 23.06 22.81 27.26 26.79 26.87 25.61 26.09 25.49 25.50
35.16 28.49 24.77 23.75 23.71 20.36 24.12 21.36 24.40 23.33 23.02 20.54 19.99 17.23 9.80 10.87 17.49 22.05 20.41 18.65 22.21 24.42 25.52 25.25 26.26 24.93 25.26 26.16 23.90 26.53 28.39 29.66 26.63 24.52 23.99 22.86 21.39 22.60 23.25 24.36 23.05 22.89 24.46 22.99 21.78 22.34 22.66 24.18 27.28 25.02 24.39 21.78 22.37 22.20
23.54 21.90 22.76 19.54 23.05 17.59 16.84 14.98 18.40 18.31 16.36 16.17 11.55 11.54 11.85 14.84 14.22 13.49 10.52 13.98 17.65 23.37 26.52 25.93 29.00 29.39 27.62 29.32 28.59 28.09 28.01 28.90 27.51 25.67 24.07 23.10 23.07 23.14 21.32 21.55 21.96 23.00 22.74 17.77 20.55 20.76 21.33 20.67 20.01 20.09 20.39 19.46 20.34 20.87
18.42 19.92 19.07 20.10 19.81 18.06 13.96 12.95 15.34 13.46 14.53 10.65 8.97 9.36 13.19 16.26 10.75 12.24 12.41 15.36 21.41 25.10 28.56 28.98 29.60 28.72 28.36 30.50 30.92 27.14 27.86 26.86 25.60 22.95 22.86 25.07 25.03 23.71 21.95 18.23 17.47 22.62 22.72 23.77 21.61 18.43 19.29 19.96 19.36 18.63 20.76 21.57 26.16 24.58
17.46 17.64 21.39 24.92 22.39 20.91 19.25 19.14 20.44 18.62 16.32 14.66 14.99 13.86 15.41 15.37 12.00 15.11 18.12 19.09 21.49 22.63 29.51 32.68 32.94 31.50 30.01 28.90 27.44 25.31 23.86 25.66 24.75 25.73 25.02 25.16 25.32 25.17 23.24 20.37 18.29 23.39 22.60 20.96 20.74 20.20 20.21 20.45 20.28 20.45 21.03 22.61 22.30 22.38
20.56 21.05 18.04 19.83 19.44 19.20 17.68 17.45 17.53 17.39 17.77 18.78 18.16 14.82 15.79 15.66 14.16 18.18 20.29 23.38 25.29 25.76 28.08 28.83 27.91 27.63 26.42 25.64 26.45 25.03 20.61 19.20 19.07 19.29 20.14 20.83 18.59 17.47 19.42 23.10 23.43 27.58 21.96 20.36 19.99 18.61 18.92 19.47 20.44 21.14 21.09 21.85 24.12 26.13
19.60 21.75 20.75 17.57 17.91 18.27 16.67 16.17 17.02 18.51 20.07 16.58 14.57 13.78 14.10 19.23 21.81 21.82 23.51 21.98 20.80 24.62 23.78 22.27 19.86 17.94 18.29 18.40 18.12 17.29 20.37 22.27 22.13 18.60 15.75 14.95 14.12 18.12 10.05 11.17 12.10 12.22 12.48 13.44 24.98 26.43 19.74 19.49 19.08 19.93 26.37 27.17 26.59 25.39
19.07 21.66 16.28 14.50 15.40 15.47 16.67 15.89 16.39 18.19 19.46 20.21 19.41 19.87 20.81 21.59 21.94 21.32 20.88 20.01 20.96 20.32 18.92 19.56 20.20 20.76 20.46 20.62 17.79 16.52 13.90 15.26 19.12 19.04 15.72 14.65 15.83 13.71 8.52 10.04 10.80 10.05 9.62 11.06 14.14 16.23 25.16 20.68 21.38 22.20 24.29 25.78 24.72 22.38
14.83 11.65 10.55 12.17 12.93 13.41 12.95 11.98 11.80 19.13 12.54 10.75 10.82 13.91 15.62 15.04 19.32 20.82 19.59 19.49 17.63 13.19 14.61 12.53 9.85 8.08 15.22 13.00 12.49 12.08 14.29 11.41 11.84 12.78 12.79 12.80 11.37 10.85 11.53 11.69 13.23 12.00 10.96 11.16 13.64 15.13 16.76 17.69 19.48 20.84 24.24 24.74 24.99 23.26
8.59 8.70 5.71 9.01 9.28 7.87 5.87 5.25 6.03 8.08 9.59 10.89 10.61 9.15 13.30 14.46 14.74 18.37 18.39 13.00 11.91 14.65 18.06 14.94 13.18 15.61 13.91 12.51 12.70 12.81 24.25 14.23 9.59 10.04 9.45 12.27 12.26 12.97 13.30 13.31 11.68 11.49 11.45 14.09 15.21 16.57 18.10 19.68 23.41 24.34 24.76 22.73 18.03 16.54
-1.45 -1.38 1.41 0.66 6.01 7.83 6.66 5.00 6.39 7.09 6.37 4.63 5.54 3.38 1.71 6.61 11.39 14.64 12.16 9.04 12.74 13.14 13.04 11.53 10.70 12.76 11.72 11.56 11.72 13.46 19.65 11.63 20.83 26.36 28.05 27.94 29.07 25.28 20.73 13.67 12.26 12.80 13.75 17.59 21.57 22.61 21.29 22.19 23.86 23.95 19.95 16.92 17.00 16.65

GFSWCAN_sfc_wetblb_144.txt.gz
Wetbulb
46.88 47.76 49.11 49.96 52.81 53.94 53.66 53.16 52.48 52.07 52.20 52.55 52.73 51.86 51.08 50.27 48.96 42.68 38.97 38.32 36.47 32.87 32.74 34.06 35.38 31.96 31.72 31.52 29.97 31.81 30.83 30.70 28.72 26.05 24.43 23.30 20.97 22.05 19.73 21.34 22.08 22.57 19.82 19.75 20.07 17.63 17.54 29.69 29.21 27.14 29.28 28.23 29.81 29.43
46.42 46.95 47.70 48.62 50.15 53.92 53.82 53.34 52.41 51.98 51.77 52.00 52.69 52.16 51.31 50.37 49.17 44.45 39.40 40.74 39.17 34.68 33.96 35.24 35.10 34.56 34.69 33.94 32.74 31.62 29.92 30.51 31.45 26.79 25.41 23.74 23.53 19.73 20.26 19.96 21.46 21.24 24.23 22.59 23.62 24.35 28.57 30.21 29.59 30.23 30.47 31.09 30.06 29.83
46.06 46.32 46.99 47.70 48.57 50.67 53.56 53.24 52.74 52.09 51.52 51.59 52.29 52.65 51.97 50.81 49.41 45.15 39.97 38.90 37.78 34.26 33.68 33.75 32.62 34.65 37.10 36.32 37.14 33.29 32.29 33.00 31.90 31.65 27.69 26.16 25.10 25.17 21.98 21.90 21.30 25.30 26.74 25.45 26.63 28.19 28.98 30.82 30.76 31.25 31.36 31.03 30.68 30.17
45.62 45.59 46.16 46.54 47.29 48.36 49.13 52.40 52.79 52.41 51.81 51.77 52.47 53.00 52.27 51.37 49.20 45.36 40.86 39.72 38.14 35.15 29.96 30.77 36.79 32.87 35.77 36.40 36.17 36.41 35.33 34.80 33.94 32.26 29.23 27.32 26.23 28.33 25.81 26.38 25.31 27.40 27.69 27.15 26.73 29.62 28.79 31.00 30.57 31.40 30.81 30.44 30.25 30.43
45.27 45.21 45.19 45.63 45.81 46.99 48.02 48.38 51.11 52.26 51.91 51.80 52.02 52.44 52.06 51.23 48.60 42.77 40.47 39.97 40.28 36.91 31.61 32.24 33.38 33.56 35.49 35.63 35.16 34.83 35.50 33.61 31.72 30.32 28.71 28.03 28.05 26.95 25.51 25.70 24.07 27.38 27.99 27.66 27.76 30.19 30.18 30.22 29.92 31.46 30.64 30.44 30.77 30.72
43.23 44.77 44.75 44.71 44.96 45.32 46.46 47.38 47.88 50.53 51.68 51.45 51.25 51.63 51.59 50.07 46.36 42.56 37.77 39.74 40.69 39.71 33.93 29.17 33.91 31.15 33.60 34.63 34.82 33.12 34.27 32.96 32.05 30.79 28.71 29.17 30.66 29.02 24.77 23.73 29.50 28.30 28.87 30.14 30.09 28.98 30.18 29.82 29.44 29.82 30.71 30.51 30.78 30.97
41.51 42.58 44.56 44.46 44.32 44.68 45.04 46.05 46.83 47.60 50.22 51.48 51.34 51.44 51.27 48.70 45.01 40.94 37.14 39.81 42.80 39.57 33.50 28.41 28.98 33.35 34.20 32.65 32.58 32.59 32.66 31.77 32.39 30.83 29.41 29.03 29.86 31.20 27.04 24.49 30.71 30.10 30.59 30.86 29.30 29.95 29.22 29.34 29.72 30.01 30.64 31.14 33.47 30.17
40.78 41.43 42.86 44.09 44.31 44.10 44.28 44.90 45.97 46.28 47.17 49.17 51.56 51.44 51.05 48.33 46.20 42.73 40.68 44.00 40.85 36.51 33.54 25.04 26.28 30.09 34.81 31.35 30.19 31.68 30.80 31.05 30.99 30.31 29.47 29.30 29.59 28.97 27.50 31.79 29.81 30.60 29.65 28.63 29.29 29.47 30.24 29.77 29.32 29.05 29.55 29.14 28.45 28.14
40.41 40.59 41.10 42.30 43.72 44.17 43.87 43.97 44.52 45.32 46.14 47.07 49.28 50.78 46.88 44.79 41.99 41.24 44.88 42.13 38.53 35.87 29.29 26.15 25.06 26.40 33.43 31.33 30.31 30.42 29.65 27.20 29.63 28.51 28.27 29.66 27.94 26.78 32.14 32.84 31.90 31.34 30.96 30.02 28.39 28.33 28.16 28.19 28.21 28.30 28.14 27.54 26.98 26.22
40.11 40.02 40.45 41.28 42.23 43.46 44.07 43.41 43.91 44.85 46.04 48.16 47.43 44.08 39.02 41.92 45.29 43.75 39.49 36.53 35.18 34.13 32.26 27.30 29.19 27.39 31.29 29.23 28.03 27.73 27.68 26.62 20.41 27.33 28.71 29.36 28.38 33.01 34.34 33.00 33.04 33.01 31.79 29.10 27.74 26.51 26.58 26.16 27.20 26.55 26.91 27.25 27.22 26.46
40.50 39.33 39.75 40.36 41.50 42.11 43.75 43.56 43.77 44.70 46.60 43.50 39.02 35.83 40.25 43.77 39.68 38.46 33.69 33.08 32.52 30.72 31.81 30.62 28.23 28.06 31.68 27.74 27.46 28.93 23.49 25.16 17.81 22.02 25.81 25.87 25.71 29.80 31.86 31.14 32.31 32.70 31.28 29.70 29.67 30.18 30.05 29.41 27.77 26.05 25.56 26.01 26.68 26.88
40.64 39.39 39.53 39.70 40.51 41.38 42.71 43.45 43.56 42.80 42.07 41.10 39.30 40.49 39.61 36.30 33.65 32.01 30.87 31.69 30.45 28.65 28.25 28.92 28.79 29.84 29.08 29.71 27.96 28.10 23.32 26.66 19.28 26.89 26.01 23.08 26.80 29.13 29.46 28.24 28.59 29.44 31.26 29.69 29.59 29.44 28.49 28.37 27.46 26.72 26.19 26.01 26.60 27.19
40.94 39.68 39.33 39.50 39.94 40.87 42.38 43.38 43.14 44.70 44.30 40.63 35.58 31.89 30.71 30.97 28.11 28.32 26.64 27.38 28.61 26.73 28.64 28.61 27.13 28.44 27.36 28.48 26.27 24.84 21.19 23.39 25.90 25.33 21.91 23.31 26.85 27.38 28.15 27.10 26.52 26.90 28.61 28.35 27.39 27.26 26.97 26.25 27.18 26.44 26.18 26.17 25.88 25.85
40.79 40.54 39.76 40.36 40.90 40.74 41.84 43.12 43.01 43.34 40.60 33.40 30.81 25.93 26.90 26.05 26.59 26.33 25.22 25.66 27.30 25.62 29.68 26.52 26.11 26.09 27.48 25.59 25.86 19.39 24.45 25.22 22.02 18.40 18.02 22.31 24.86 27.59 27.12 26.47 26.09 25.61 26.00 25.31 25.90 26.55 26.91 26.20 25.78 26.37 26.46 26.23 26.00 25.28
40.36 40.52 40.33 40.28 41.08 41.13 42.15 43.02 43.22 40.85 37.81 31.78 31.10 25.68 27.41 29.88 25.41 25.95 20.76 23.17 27.55 29.40 26.50 26.87 27.12 27.21 25.80 25.74 25.15 25.00 22.68 21.03 22.06 18.24 22.03 23.91 25.35 26.62 25.92 25.47 25.40 24.83 24.77 24.44 23.86 22.74 21.00 21.77 22.29 24.64 25.18 24.97 24.84 24.85
40.12 40.11 36.82 40.05 40.37 41.07 42.28 42.39 39.95 38.62 33.61 31.63 30.75 28.45 29.88 28.83 27.30 27.71 25.58 27.46 29.04 29.89 28.25 30.07 26.34 23.88 22.75 22.98 23.47 22.29 20.74 18.87 21.35 23.95 24.67 25.26 25.24 25.74 25.43 25.75 25.53 24.90 24.21 24.37 24.52 24.82 25.08 24.24 24.27 23.68 23.17 23.09 23.34 23.61
39.61 34.19 39.08 39.54 40.79 41.91 42.52 38.32 34.68 31.67 31.27 29.95 27.34 30.90 25.67 26.05 29.52 27.67 26.99 27.11 29.86 30.17 28.25 28.46 23.70 22.90 25.01 23.41 22.63 22.84 18.56 23.70 26.41 25.32 22.85 26.01 26.39 26.28 26.00 25.82 25.48 24.77 23.97 23.73 23.64 24.25 24.49 23.99 18.84 15.70 18.40 22.68 22.99 23.35
32.82 35.07 39.61 40.05 39.58 39.98 37.36 34.74 32.08 29.63 24.97 27.77 26.55 25.88 29.71 30.22 27.25 27.35 28.23 31.20 31.95 30.18 29.08 27.86 26.72 23.99 21.50 17.99 21.24 23.28 25.22 23.47 22.82 24.79 26.59 26.82 26.29 26.52 27.39 26.37 26.13 25.40 24.65 22.22 20.89 18.51 14.96 14.26 16.01 19.47 20.46 21.57 20.72 20.65
35.36 35.25 39.52 40.29 39.06 34.24 30.80 31.19 30.97 26.28 26.46 28.06 27.78 22.46 24.36 26.87 27.91 29.16 30.25 32.70 32.71 33.00 31.79 29.03 27.34 25.81 22.22 22.65 22.85 23.28 21.12 23.25 27.04 27.11 25.49 26.10 26.68 26.58 26.27 25.37 25.11 23.42 23.61 20.44 20.88 22.95 22.93 23.02 22.61 22.83 22.86 22.58 21.90 23.09
40.20 40.29 40.36 40.60 38.59 31.97 29.08 29.35 32.08 25.11 19.18 22.30 25.09 20.97 21.49 24.13 25.04 26.52 27.87 29.72 31.65 31.35 29.24 27.15 26.84 27.55 26.19 26.51 25.79 25.85 27.04 27.46 26.52 25.91 26.40 25.97 25.68 24.29 25.10 25.69 25.72 24.90 22.31 20.57 18.42 25.64 22.02 22.11 22.78 23.15 22.96 22.86 22.15 23.05
37.88 35.16 39.44 38.55 33.89 31.40 22.55 16.99 27.25 28.53 18.62 16.69 13.85 20.54 20.90 25.96 19.68 23.87 25.55 25.33 30.34 29.46 26.25 27.44 31.04 33.09 30.91 29.89 30.20 30.66 29.84 30.28 29.36 30.48 29.26 27.00 26.10 27.48 25.74 24.35 23.35 22.53 22.86 22.64 22.08 22.23 26.85 22.84 23.49 23.81 23.58 23.73 23.68 23.99
33.45 39.13 32.84 34.50 30.79 30.30 28.59 20.69 19.23 22.82 21.47 23.98 25.28 13.77 22.90 24.31 23.59 21.60 18.10 28.19 28.94 29.33 29.91 30.89 31.48 31.99 32.52 29.35 31.19 29.40 30.89 30.60 30.48 29.06 32.12 32.02 25.05 25.12 25.05 26.05 23.62 22.70 22.07 22.79 22.71 22.45 22.88 23.20 23.35 23.45 22.87 23.73 25.73 24.17
35.45 33.23 29.18 29.72 26.55 25.14 23.17 27.19 21.82 17.91 16.08 15.88 19.86 17.12 14.94 21.71 15.61 23.96 26.63 26.26 28.66 32.12 32.87 32.74 32.89 31.78 31.86 32.52 28.94 28.66 29.04 28.70 27.57 27.75 29.22 29.03 30.28 29.22 26.51 25.13 25.10 23.29 22.20 22.98 22.06 21.89 21.48 26.37 25.70 25.79 24.66 24.63 23.97 23.71
34.79 26.33 23.73 20.86 21.02 16.61 22.60 16.96 18.36 16.72 19.85 15.14 13.96 12.19 7.91 10.16 16.58 23.99 22.26 25.79 28.62 26.13 28.00 29.76 28.75 24.45 24.36 25.04 24.38 26.51 27.26 27.39 24.92 23.65 26.60 26.50 25.82 25.67 27.30 26.79 24.72 24.87 25.66 23.00 21.60 21.13 20.95 23.12 26.47 23.94 23.28 18.74 19.28 19.58
23.15 21.66 22.30 19.01 18.14 18.13 11.57 6.96 8.37 12.40 6.95 7.46 6.31 3.65 6.50 10.24 14.54 13.55 13.57 19.12 18.23 23.24 27.39 25.79 27.02 29.48 30.06 31.22 28.31 25.53 27.28 26.64 25.65 25.14 21.09 23.85 26.19 23.96 23.03 23.38 24.26 24.79 24.45 19.70 18.58 19.28 19.12 18.78 17.61 17.34 17.24 15.85 17.28 16.48
18.60 20.58 16.82 17.21 15.21 10.88 10.93 5.15 8.13 5.83 5.36 5.73 10.12 9.09 10.28 13.17 9.75 11.61 10.35 13.31 19.72 21.66 25.20 26.43 27.57 27.26 27.27 29.68 25.74 24.98 26.74 26.84 25.87 24.30 25.48 25.91 25.91 26.06 25.18 23.11 21.56 24.63 23.83 22.82 20.08 17.38 19.01 19.30 16.71 15.24 16.20 17.66 24.73 21.64
17.28 17.22 17.76 24.25 21.77 19.95 18.49 18.92 18.92 12.29 8.19 8.23 11.01 12.12 14.13 12.81 11.64 14.39 17.09 17.20 19.57 22.80 23.44 25.69 25.59 26.16 26.35 27.47 27.99 28.86 28.78 28.85 28.51 28.11 26.80 26.63 26.27 25.42 26.13 23.87 22.26 24.14 22.56 21.04 21.04 20.15 20.09 19.16 18.07 17.44 17.61 15.64 16.47 17.37
20.94 21.36 17.44 18.55 19.52 19.67 17.72 16.08 15.90 16.66 18.61 19.70 17.33 13.48 14.70 15.62 15.95 17.98 17.30 21.65 17.87 22.51 29.23 30.15 31.04 31.91 31.67 30.98 29.09 25.84 23.83 22.66 21.69 21.78 22.75 22.30 20.00 19.83 19.00 20.88 21.56 27.57 21.88 20.76 20.17 18.15 16.76 17.69 17.23 17.12 16.04 17.44 19.69 19.09
20.98 22.52 21.75 18.46 18.36 18.51 17.32 16.95 17.71 19.46 20.85 18.51 17.41 16.05 14.83 19.07 20.11 19.45 22.35 19.84 17.82 24.86 26.86 27.54 23.93 22.08 20.88 21.02 22.27 22.33 23.03 23.86 22.71 19.98 19.84 17.83 15.48 19.01 11.46 12.95 13.22 13.14 11.65 13.26 24.63 24.32 16.40 15.27 15.66 16.96 17.85 18.80 21.96 22.21
17.02 19.30 16.48 14.64 16.18 16.50 17.76 17.12 17.75 19.75 20.81 20.49 19.67 18.31 19.77 21.61 21.73 20.59 18.88 18.84 19.77 19.52 18.75 20.34 20.23 21.94 21.46 22.37 20.07 19.72 17.12 17.90 20.09 21.67 18.56 16.53 17.46 16.26 10.03 10.65 11.11 8.28 7.04 9.61 10.44 9.35 23.16 16.75 16.76 12.58 13.48 14.28 16.99 21.20
13.42 11.09 11.58 14.65 14.54 13.24 12.52 11.89 11.28 17.82 13.33 14.02 14.84 15.53 18.01 16.77 19.17 19.87 18.74 18.51 16.79 16.12 18.28 16.45 13.95 10.47 16.85 14.35 15.37 17.25 18.50 15.76 13.30 13.73 14.72 14.38 11.73 11.69 11.08 9.58 9.33 8.45 7.76 8.18 8.40 8.78 9.10 9.61 10.23 16.04 21.02 21.12 18.21 22.94
8.36 5.20 6.83 10.26 11.57 11.56 8.59 7.07 5.15 5.88 7.42 8.74 9.63 9.08 13.22 14.21 12.62 15.28 16.14 11.29 11.03 14.20 17.92 13.59 14.65 16.78 14.50 13.99 14.50 14.58 23.28 15.41 12.20 11.51 11.50 12.82 11.41 10.89 10.60 9.37 7.07 7.43 8.34 8.39 7.89 8.00 13.29 18.70 19.73 18.12 19.25 19.64 21.64 21.45
-3.73 -5.11 1.39 0.25 7.30 9.37 6.73 5.31 8.29 8.70 5.32 3.78 5.60 3.35 3.08 7.53 11.35 14.04 12.62 9.29 11.36 11.53 11.50 10.75 10.49 11.97 11.89 11.51 11.54 16.27 17.90 12.35 19.52 25.00 26.84 25.81 27.12 22.48 14.03 10.73 9.94 9.53 9.51 9.91 15.33 18.06 17.64 14.80 16.26 15.69 15.50 15.70 16.88 15.98

GFSWCAN_sfc_wetblb_147.txt.gz
Wetbulb
46.46 46.91 47.70 49.03 49.72 51.06 54.33 53.75 53.13 52.55 52.28 52.01 52.29 52.08 51.42 50.66 48.76 42.60 38.06 37.54 36.48 32.11 31.62 32.97 34.10 31.40 30.64 30.62 29.25 31.16 30.91 30.63 28.88 26.12 24.43 23.07 20.87 21.04 19.53 20.59 21.84 23.15 20.43 20.26 20.18 17.89 18.32 29.26 28.88 27.47 29.99 28.77 30.02 30.25
46.33 46.28 46.74 47.77 48.83 49.63 53.66 53.44 52.81 52.28 51.88 51.71 52.21 52.38 51.73 50.86 49.34 44.84 38.29 39.87 37.79 34.43 33.17 34.20 33.63 33.68 33.65 32.91 31.72 30.87 29.17 30.23 31.51 26.76 24.95 23.67 23.69 19.06 19.82 19.64 20.80 20.82 23.89 22.41 23.44 24.43 28.42 29.30 29.52 29.52 30.62 31.18 30.34 30.66
45.97 45.94 46.06 46.10 47.90 48.98 50.10 53.26 52.88 52.25 51.85 51.84 51.96 52.76 52.05 51.12 49.90 45.21 39.32 38.09 36.92 34.24 33.47 33.26 31.92 33.09 36.60 35.23 36.24 32.50 31.77 32.51 30.78 31.08 27.59 26.33 25.07 25.07 22.24 22.02 21.19 24.65 25.57 24.47 25.92 27.35 28.58 29.91 30.15 30.64 31.71 31.11 31.26 31.09
45.20 45.62 45.69 45.68 45.95 47.27 48.15 48.89 51.92 52.42 51.91 51.94 52.10 52.57 52.22 51.58 49.46 45.08 40.31 39.03 36.98 34.68 30.96 30.75 35.94 31.32 34.13 35.71 35.45 35.44 34.36 34.21 33.23 31.81 29.14 27.48 26.61 27.50 24.86 25.53 24.23 27.37 27.57 26.95 26.38 29.66 29.12 30.51 30.78 31.18 31.70 31.52 30.97 30.79
43.54 44.67 45.29 45.34 45.03 45.90 46.55 47.21 48.06 51.03 52.10 51.67 51.54 51.84 52.22 51.37 49.34 43.71 40.21 39.35 39.74 36.88 31.60 31.86 33.22 32.33 34.08 34.48 34.29 34.46 34.84 33.01 31.43 29.73 28.38 28.04 27.45 26.12 24.35 25.09 23.56 26.66 27.58 27.63 28.23 30.62 30.41 30.48 29.56 30.84 31.09 30.90 31.02 30.78
41.64 42.67 44.60 44.93 44.91 44.47 45.15 45.97 46.75 47.33 49.94 51.22 51.00 51.22 51.66 50.41 46.77 42.90 37.79 38.88 40.05 39.43 34.11 29.24 33.47 30.48 33.23 33.98 34.24 33.02 33.33 32.07 31.19 29.86 28.45 28.23 29.57 28.38 24.68 23.60 29.46 27.96 28.48 30.48 30.47 28.10 30.14 29.44 29.71 29.66 30.85 30.75 30.66 30.92
41.37 41.55 42.90 44.35 44.71 44.43 44.04 44.37 45.67 46.29 46.80 50.55 50.95 50.98 50.98 49.02 45.30 41.40 37.67 39.43 42.42 39.40 33.89 29.32 28.23 32.76 33.70 32.85 32.30 32.25 31.78 30.67 31.15 29.49 28.75 28.06 28.86 30.90 27.48 25.11 31.47 29.79 29.59 28.86 28.60 30.11 28.91 29.51 30.29 29.85 30.21 30.77 33.17 30.19
40.72 41.00 41.40 42.65 43.97 44.42 43.97 43.98 44.07 44.71 45.87 46.84 50.68 51.15 50.23 48.32 46.27 42.97 41.50 44.23 41.06 35.87 33.07 24.96 26.27 30.38 34.57 30.49 30.00 31.30 30.24 30.09 30.75 29.95 29.99 29.46 29.53 28.92 27.74 32.32 28.63 29.88 29.98 29.89 30.18 29.59 30.10 29.54 29.48 29.26 29.43 28.92 28.27 27.83
40.52 40.38 40.82 41.26 42.44 43.67 44.19 43.76 43.80 43.94 45.07 46.59 48.28 50.95 47.03 45.01 42.17 42.12 45.00 42.63 38.93 36.38 29.12 25.81 26.71 27.32 32.94 30.47 30.45 29.91 30.19 27.59 29.86 28.62 28.39 29.12 28.55 27.56 31.94 31.79 30.44 30.47 30.86 30.87 28.83 29.04 28.54 28.81 28.48 28.31 27.96 27.38 26.63 26.31
41.04 39.93 39.83 40.50 41.74 42.50 43.55 44.11 43.95 43.93 45.55 48.01 47.65 44.28 39.00 42.08 45.36 44.05 40.38 37.55 35.95 33.60 30.39 27.58 28.31 26.47 31.58 29.82 28.23 28.13 27.70 26.54 20.85 27.42 29.13 29.01 28.97 33.63 33.30 32.90 32.77 32.25 31.46 29.01 27.76 26.59 27.03 26.32 27.52 26.90 27.47 27.76 27.50 26.19
41.33 40.56 39.14 39.75 40.33 41.21 42.30 44.02 43.77 44.24 45.80 42.03 37.45 34.23 40.68 44.00 40.79 38.94 33.63 33.28 33.00 31.57 31.92 30.60 27.93 27.84 31.92 27.62 27.59 28.76 24.49 25.85 18.61 22.28 25.65 24.59 25.31 28.75 30.56 30.67 32.44 32.53 30.82 29.77 30.35 30.63 30.09 29.55 27.85 26.82 25.97 26.53 26.27 25.80
41.27 40.40 39.22 39.16 39.50 40.60 41.76 43.40 43.70 42.33 41.70 40.51 38.41 40.66 39.92 36.26 33.64 31.68 30.93 31.86 31.10 29.36 29.76 29.58 28.62 30.08 29.91 29.76 27.99 28.21 23.31 26.48 19.45 27.84 25.68 21.12 26.40 28.78 29.34 27.86 27.60 29.85 30.38 29.39 29.10 29.64 28.87 28.79 27.39 26.19 25.26 25.29 25.90 26.59
41.28 40.48 39.48 39.22 39.58 39.94 41.05 42.71 43.55 44.27 43.12 39.44 35.06 31.83 31.23 30.74 27.90 28.13 26.47 27.82 28.68 26.12 29.44 29.25 27.34 29.52 27.94 28.56 26.23 24.52 20.65 21.17 25.75 24.24 21.01 23.61 26.97 27.29 28.02 27.43 26.80 26.64 28.82 28.55 27.59 27.42 27.31 26.00 26.38 25.45 25.12 25.39 25.10 25.23
40.96 40.95 40.13 39.42 39.92 40.96 40.74 42.07 43.07 44.03 39.78 31.90 29.37 26.33 26.51 26.00 25.73 29.03 29.37 24.76 24.29 24.98 29.44 27.15 26.90 27.49 28.12 25.89 26.11 19.58 23.68 25.09 22.17 17.22 18.39 23.18 25.60 27.24 27.55 26.89 26.74 25.94 26.58 25.82 26.00 26.00 25.92 25.60 25.26 25.43 25.80 25.17 25.05 24.55
40.88 40.49 40.51 39.50 40.31 40.79 40.92 41.77 42.55 39.74 37.22 31.55 31.31 24.16 26.19 27.25 25.28 27.58 23.92 26.36 28.64 31.22 27.41 27.71 27.84 28.17 26.13 25.80 24.65 24.79 22.73 20.95 20.97 18.78 22.75 24.51 25.86 26.08 26.41 25.82 26.01 25.06 24.42 24.30 23.78 23.68 23.09 22.65 23.13 24.08 25.01 25.05 24.87 24.66
40.76 39.59 36.33 40.39 40.34 39.96 40.64 41.14 39.16 36.58 33.30 31.19 30.72 28.01 29.54 29.31 27.79 27.88 26.31 27.54 30.21 29.51 27.23 29.25 25.69 25.31 22.63 23.20 23.14 21.94 18.59 17.12 21.67 23.89 25.17 24.95 25.42 25.25 25.97 25.98 25.68 24.95 24.45 24.31 24.16 24.55 24.49 23.76 23.89 23.61 22.83 22.94 22.96 23.50
39.77 33.18 39.31 39.80 39.42 40.49 41.27 37.84 33.79 31.08 29.01 27.69 26.34 30.54 29.56 28.53 29.87 28.27 28.58 29.58 31.67 30.71 28.86 27.24 21.16 22.89 24.83 23.35 22.11 20.79 18.34 23.62 25.73 25.64 24.01 25.96 26.60 26.11 26.02 26.15 25.83 24.86 23.61 23.36 23.09 23.74 23.79 23.32 20.80 16.97 18.90 22.21 21.92 23.09
32.51 34.23 39.80 39.55 37.93 38.37 37.28 34.57 31.97 27.00 23.88 26.49 25.97 25.06 29.11 30.75 27.24 28.42 29.59 31.34 31.83 30.62 29.82 28.49 27.95 22.90 19.38 18.78 20.59 22.62 23.84 24.66 25.58 26.78 27.68 27.15 26.34 26.17 26.94 26.01 25.54 24.65 23.68 21.24 19.89 18.26 16.66 15.93 18.17 19.82 19.41 20.41 18.58 18.28
34.59 34.09 39.50 39.75 37.83 34.25 31.07 30.92 31.13 24.48 25.20 27.13 27.87 22.51 23.35 27.03 28.12 28.84 29.65 31.66 32.39 33.01 32.36 29.93 26.75 26.18 24.24 22.33 23.37 23.55 21.92 23.20 26.90 28.53 27.59 27.65 27.40 26.51 26.28 24.58 23.59 21.82 22.05 19.68 20.53 22.88 22.92 22.48 22.37 22.60 22.34 21.79 21.42 22.12
40.29 39.67 39.75 40.06 37.83 31.98 28.73 28.39 31.59 25.27 21.09 20.26 24.66 22.55 22.38 22.91 23.36 25.05 26.80 28.76 31.98 32.08 29.83 27.57 24.63 26.29 26.33 27.42 26.50 26.50 27.73 27.85 27.54 27.95 28.86 27.69 26.07 23.77 24.82 24.81 24.94 24.34 21.89 20.26 19.39 25.98 21.98 21.85 21.85 22.21 22.05 21.85 20.75 21.79
37.53 32.58 38.88 36.08 33.26 30.39 25.95 25.27 26.45 27.10 22.76 20.56 13.87 16.97 16.36 23.53 22.99 23.49 23.63 26.24 28.98 23.04 22.02 27.37 29.42 31.66 31.97 31.52 30.33 29.75 29.43 29.51 29.87 31.32 31.91 29.95 26.99 26.38 25.11 24.58 24.40 23.76 22.20 22.86 23.25 24.01 27.06 23.28 23.05 22.75 22.63 23.52 23.13 23.11
30.58 37.72 32.74 34.59 30.75 30.28 26.74 26.05 20.65 24.48 24.84 20.32 24.32 23.29 23.10 23.07 16.66 20.77 17.58 25.09 19.54 26.92 26.73 28.99 29.90 30.77 31.08 30.79 31.60 30.37 32.07 30.59 30.00 29.52 32.82 31.24 25.36 24.93 26.10 26.77 25.22 24.93 25.39 25.54 24.30 23.26 23.71 23.85 23.68 22.86 22.14 23.26 25.43 22.93
36.67 34.93 31.46 31.34 26.93 24.44 22.84 26.21 20.23 22.53 16.18 13.13 21.79 20.62 19.84 20.01 18.13 20.13 18.72 21.45 24.63 27.63 30.26 30.83 31.36 31.74 30.59 31.44 29.17 29.21 29.84 29.51 28.63 28.37 28.82 30.06 29.34 27.79 26.61 27.11 28.12 27.27 25.60 25.64 23.76 22.46 21.17 26.24 25.75 26.07 24.52 24.11 22.97 21.77
35.42 29.13 25.88 23.89 22.13 18.02 18.42 16.99 19.54 16.16 10.42 13.44 15.18 7.84 6.82 16.43 15.10 23.33 21.60 24.20 27.18 24.38 27.49 28.86 30.10 29.57 25.48 24.67 25.99 30.41 30.72 28.33 28.71 26.71 26.96 26.03 25.25 25.60 27.61 28.34 27.62 28.47 28.09 23.93 22.77 22.22 21.19 23.52 26.78 24.31 23.21 18.22 17.17 17.50
24.30 21.56 19.55 14.05 13.10 16.91 13.03 6.40 5.13 16.25 8.55 5.33 6.33 6.54 6.39 14.86 17.00 14.75 10.44 19.35 19.91 25.36 27.45 28.29 28.37 29.47 28.54 29.73 30.48 30.80 29.01 27.80 26.75 26.23 25.65 25.51 24.40 24.55 24.25 22.60 25.17 24.89 25.57 22.77 19.60 20.18 18.95 21.62 20.60 17.61 16.41 15.55 15.93 13.37
17.55 18.59 14.57 10.40 9.00 10.50 8.26 2.23 4.45 6.33 4.55 3.00 6.48 5.57 6.21 8.97 5.70 9.34 10.82 13.00 17.14 19.72 22.50 23.12 25.14 25.36 26.26 28.49 28.60 25.44 24.64 24.99 23.34 22.72 22.33 25.71 27.92 27.71 25.74 23.89 23.83 24.25 24.44 23.04 22.15 20.90 21.60 21.03 18.85 16.16 16.07 18.12 24.51 20.38
14.71 10.80 13.52 22.90 20.59 18.97 16.10 17.06 16.71 12.54 9.26 10.54 9.96 11.06 13.68 10.70 4.96 12.66 16.75 16.52 18.65 20.46 22.19 25.37 25.58 25.78 26.49 24.87 25.63 25.26 24.97 25.72 26.69 26.58 26.36 26.35 24.92 25.42 26.56 25.23 21.50 24.12 23.57 22.94 22.96 21.73 21.10 20.04 19.11 18.52 17.05 15.18 14.72 15.51
20.53 19.31 13.68 15.71 18.11 18.72 17.38 16.94 15.57 14.46 15.31 17.83 15.50 10.98 11.11 10.47 12.72 16.75 17.00 19.98 17.06 20.60 26.37 28.54 28.78 29.00 25.63 23.49 26.36 28.29 26.50 25.62 25.42 25.90 26.30 25.07 22.65 22.69 23.43 24.20 25.80 27.56 23.71 23.11 22.25 21.13 20.28 18.60 17.75 15.90 13.80 15.26 17.02 15.17
19.43 21.69 20.84 13.92 15.31 15.77 16.65 15.96 15.54 18.17 20.82 18.25 16.12 16.96 18.85 19.98 19.01 20.07 21.51 19.73 17.82 22.27 26.92 28.12 26.12 25.21 23.90 23.58 23.49 23.75 24.00 24.60 24.02 22.87 21.54 19.60 19.14 19.97 15.99 18.73 18.74 18.14 17.99 20.59 27.65 23.88 17.39 17.29 14.43 14.33 14.58 16.24 18.42 17.31
16.98 17.79 18.00 17.07 16.83 15.10 16.54 18.15 17.24 19.70 21.41 21.79 21.39 19.88 20.29 21.57 21.66 19.86 18.78 16.99 15.62 17.12 19.49 23.17 21.60 21.21 20.61 21.15 21.16 21.08 20.15 19.72 21.33 23.38 21.51 19.62 19.81 17.42 15.73 18.39 18.12 16.05 15.62 17.25 14.14 10.94 23.09 17.68 17.36 14.24 12.77 10.94 12.20 13.74
11.65 9.06 11.70 14.56 14.76 14.40 11.74 10.85 10.04 16.68 16.89 16.46 15.48 16.57 18.55 18.47 19.12 18.84 16.42 15.48 14.83 12.92 18.14 17.49 16.11 14.11 19.72 20.13 20.50 21.29 20.96 17.83 17.43 19.83 20.30 20.08 18.79 18.11 16.88 14.02 12.72 11.87 10.43 9.76 8.63 8.21 7.56 11.80 11.32 13.35 13.12 16.55 20.39 21.12
5.01 2.81 4.22 9.33 10.44 9.51 8.06 5.73 5.48 6.53 5.51 7.74 12.23 11.00 13.32 13.61 13.64 16.54 14.67 14.10 15.40 15.49 18.00 13.61 14.62 15.16 14.91 15.38 16.33 18.26 22.22 15.97 15.07 15.39 16.96 16.99 14.69 12.48 11.61 9.46 6.61 6.75 7.26 7.19 5.81 5.76 5.99 7.46 10.97 11.08 11.68 11.89 11.82 12.56
-4.72 -6.83 -0.79 -2.46 3.03 7.04 4.91 2.55 4.65 5.46 3.94 4.30 5.87 5.05 2.73 6.75 11.69 13.39 11.95 9.26 10.45 10.35 11.00 10.99 10.84 12.48 13.72 15.52 16.43 17.73 19.57 15.61 22.83 28.63 28.71 27.78 28.21 21.41 10.05 7.90 7.15 7.56 8.29 8.20 7.32 7.66 8.44 9.56 12.18 10.05 9.30 9.19 9.64 10.16

GFSWCAN_sfc_wetblb_150.txt.gz
Wetbulb
46.54 46.60 46.73 47.23 49.09 49.69 50.24 52.02 53.90 53.20 52.85 52.24 52.17 52.03 51.79 51.38 49.36 46.11 43.46 42.58 42.87 40.22 39.75 38.58 39.38 37.62 36.63 37.60 36.86 36.24 36.36 35.58 34.95 32.18 31.22 30.71 29.13 30.51 29.45 30.28 30.22 31.30 30.38 29.95 29.31 27.80 27.15 35.41 34.61 33.37 36.45 37.33 37.42 37.58
46.07 46.36 46.27 46.37 47.20 48.59 49.44 51.24 53.90 52.91 52.46 52.14 51.86 52.14 51.81 51.47 49.93 46.47 43.59 42.98 41.92 40.40 39.34 39.08 39.57 39.69 39.37 38.98 38.49 36.75 35.43 36.00 38.37 34.83 32.39 31.73 29.55 27.96 29.18 29.76 29.89 28.29 33.18 32.56 32.84 34.47 35.12 37.19 37.44 37.77 37.93 38.27 38.32 38.54
44.92 45.93 46.02 45.98 46.23 47.55 48.26 49.25 53.75 52.95 52.42 52.12 51.78 51.93 52.15 51.70 50.43 47.21 44.38 42.58 41.78 40.06 39.48 38.91 38.04 39.27 40.05 40.01 40.41 38.83 37.68 37.49 36.59 37.47 35.85 34.07 30.97 32.41 29.75 29.81 30.00 31.57 32.84 32.30 31.54 36.04 35.77 37.49 38.51 38.47 38.72 38.87 38.70 38.23
43.66 44.72 45.76 45.72 45.60 46.35 47.23 47.81 49.25 52.46 51.98 52.00 51.90 52.05 52.24 51.71 50.72 46.11 44.37 43.38 42.20 39.60 36.95 36.42 39.23 37.88 39.58 39.84 39.93 39.88 38.59 38.02 37.95 38.02 36.36 35.37 33.15 33.82 32.67 31.74 31.00 33.84 32.20 33.31 33.03 36.56 36.86 37.76 38.07 38.60 38.25 38.07 37.26 36.65
41.77 43.14 44.35 45.42 45.34 45.10 45.84 46.77 47.66 50.36 51.90 51.57 51.72 51.59 52.04 51.52 49.84 45.54 44.12 43.27 43.37 40.78 36.56 36.59 37.27 37.72 38.47 38.94 38.92 39.15 38.99 38.17 38.14 36.40 35.58 34.75 34.49 32.77 32.42 31.57 31.55 33.40 34.70 34.19 36.44 38.52 38.37 38.07 37.55 37.22 37.52 37.05 37.61 36.75
41.23 41.62 42.74 44.45 45.07 44.92 44.63 45.14 46.01 47.08 47.56 51.48 50.97 51.00 51.41 50.79 47.34 44.97 42.14 42.38 42.95 42.95 39.32 35.16 36.84 36.11 37.34 38.22 38.09 37.47 38.18 37.88 37.86 36.70 35.84 35.10 34.08 34.02 31.62 31.56 38.10 35.91 36.66 38.45 38.58 36.62 37.31 37.34 36.88 36.53 36.97 36.76 36.68 37.05
40.89 40.99 41.44 42.64 44.20 44.78 44.52 44.39 44.42 45.08 46.67 48.26 50.86 50.91 51.07 49.23 46.10 43.40 41.34 42.57 43.51 42.65 38.32 35.56 33.61 35.61 37.07 36.76 36.41 37.33 37.27 37.38 37.80 36.72 34.93 35.02 34.99 35.41 32.89 30.98 38.88 37.22 37.55 36.51 36.53 37.29 36.47 36.02 37.00 36.11 36.52 36.22 36.63 35.90
40.87 40.63 40.86 41.28 42.46 43.90 44.44 44.25 44.30 44.25 45.27 46.86 48.63 50.83 50.62 48.83 46.09 43.41 43.63 44.67 43.19 39.44 37.36 33.69 31.54 32.32 36.40 34.26 33.86 35.42 35.71 36.47 35.63 35.67 34.49 34.29 34.21 33.70 30.58 36.36 35.49 36.06 35.59 35.01 35.51 35.99 36.06 35.17 34.50 33.51 34.43 34.41 33.61 33.28
41.11 40.24 40.20 40.71 41.63 42.69 43.74 44.37 44.22 44.25 44.88 46.79 48.26 50.64 47.28 45.34 42.30 42.25 45.19 42.98 41.98 40.33 35.75 32.52 32.19 30.93 35.31 33.12 34.26 34.16 34.83 31.95 33.28 32.62 32.45 33.07 31.89 30.10 35.69 37.53 36.38 36.78 36.09 36.49 33.72 33.68 33.17 33.72 33.01 32.49 32.92 32.94 32.94 32.01
41.23 40.89 39.76 39.68 40.44 41.28 42.34 43.72 44.03 44.28 45.26 45.96 46.25 44.40 39.59 42.57 45.42 44.87 40.77 37.94 37.11 39.12 34.97 33.16 33.74 31.14 33.93 32.61 31.78 32.26 32.15 31.20 29.28 31.22 32.28 29.95 30.62 36.32 37.34 37.59 37.97 37.14 36.23 34.28 31.89 30.48 31.27 31.53 32.39 32.05 32.59 33.50 34.01 32.88
40.86 41.21 40.33 39.12 39.67 40.22 41.41 43.05 44.22 44.12 45.19 40.52 35.59 34.17 41.39 44.52 41.70 39.89 33.88 33.32 33.32 32.36 34.38 33.87 33.44 30.66 34.27 31.87 31.60 32.33 30.24 30.12 27.32 28.51 29.24 28.41 27.79 33.09 34.86 34.35 35.80 37.88 36.36 35.44 36.03 36.00 35.94 35.78 33.55 32.52 32.13 32.81 32.65 32.19
40.85 41.37 40.30 38.96 38.85 39.57 40.70 42.67 43.91 42.65 41.81 39.34 37.54 40.14 39.91 36.75 33.92 31.96 31.32 32.46 32.22 31.96 32.21 31.55 30.96 32.83 32.33 33.69 31.99 29.90 28.41 28.17 26.06 30.06 27.67 25.42 31.54 33.82 33.11 33.44 33.51 34.88 34.32 33.58 34.75 34.36 34.05 33.82 33.87 33.18 32.37 31.56 31.29 31.73
41.06 41.25 40.17 38.96 39.02 39.93 40.58 41.80 43.38 44.02 42.75 40.21 35.06 31.87 31.88 31.24 28.83 29.33 27.68 29.51 30.94 31.32 30.93 30.53 29.89 31.43 30.54 32.15 29.89 29.04 26.93 26.28 29.26 25.93 25.30 29.14 32.81 31.64 32.29 32.02 31.26 32.68 33.99 33.18 32.42 32.87 32.60 31.30 31.58 31.43 30.18 30.86 30.92 30.98
41.09 41.04 40.46 39.48 38.94 40.53 41.11 41.34 42.84 42.68 40.05 33.26 31.26 28.13 28.48 27.52 28.88 31.39 31.64 32.50 29.49 30.81 31.76 31.15 29.50 30.55 30.69 29.88 28.84 26.90 26.12 27.74 23.72 21.65 24.36 32.45 32.21 32.62 32.47 31.79 31.28 31.08 31.97 31.03 31.49 31.15 30.46 29.92 29.79 30.26 31.54 31.05 30.87 30.18
41.17 40.82 40.60 40.16 39.66 40.14 40.65 41.20 42.21 41.49 36.22 31.63 31.60 25.26 28.30 30.23 30.75 29.43 27.75 29.75 29.95 33.01 31.40 30.21 30.27 30.99 28.84 27.51 27.26 26.20 23.77 22.62 24.41 24.71 30.19 32.50 30.72 30.95 31.55 30.80 31.75 31.34 31.09 30.86 29.37 28.71 28.45 28.35 28.60 28.97 29.96 30.63 30.97 30.15
40.95 40.15 37.69 40.11 40.13 39.84 39.71 41.23 39.41 38.37 33.50 31.81 31.40 28.71 30.56 30.21 29.97 29.85 29.00 29.64 32.09 31.55 31.32 32.21 29.68 28.42 27.54 27.90 25.06 23.96 23.14 22.47 27.92 29.67 32.06 30.28 30.47 29.82 30.79 30.59 30.96 31.14 31.05 30.29 30.21 30.35 29.63 28.84 29.20 29.96 29.09 29.15 29.07 29.09
39.90 34.78 38.81 40.35 40.43 39.26 40.17 37.89 35.91 30.69 28.68 27.83 27.63 30.98 30.39 30.85 30.49 30.37 31.02 31.21 33.64 31.75 30.23 30.65 26.96 28.07 27.38 25.49 24.36 25.27 24.13 29.29 30.64 31.78 30.42 30.08 30.29 31.05 30.95 30.56 29.72 29.00 28.99 29.16 29.35 29.53 29.49 28.92 27.55 26.78 27.10 27.56 27.55 27.41
34.62 36.29 39.97 39.95 38.71 38.85 37.25 34.75 32.04 27.50 24.08 27.13 26.40 27.49 29.70 30.85 30.00 31.18 31.93 32.78 32.86 31.89 31.34 29.23 29.61 25.87 24.10 22.45 23.48 27.70 29.13 30.92 30.75 30.67 30.90 31.24 31.40 30.83 30.18 31.00 29.70 28.98 28.86 28.02 27.62 27.05 25.09 23.90 25.73 27.58 27.28 26.47 25.56 25.50
35.17 36.00 40.00 40.19 37.53 33.64 31.27 31.29 31.42 25.22 26.02 28.01 28.75 26.26 27.60 29.22 30.45 31.50 31.86 33.40 34.10 34.25 32.86 31.32 28.02 26.96 27.56 27.53 29.57 31.05 29.73 29.57 31.82 32.37 31.93 31.86 30.60 30.61 30.08 28.95 28.21 27.31 27.06 26.17 25.59 27.26 27.49 27.72 29.20 28.82 28.48 27.08 27.30 28.13
39.82 39.69 39.69 40.34 37.36 28.95 26.10 26.01 31.90 25.55 22.44 25.69 26.03 24.25 25.16 25.79 24.86 27.55 29.64 30.92 32.61 32.81 30.73 28.21 26.76 29.01 29.94 32.03 31.65 32.37 32.60 32.32 32.55 32.00 32.47 34.26 31.24 28.80 28.45 28.47 28.36 28.30 27.57 25.71 25.50 27.95 26.91 26.48 26.63 27.04 27.08 27.25 26.71 26.98
38.69 36.41 38.87 36.56 33.46 30.43 28.24 24.05 27.41 26.15 24.17 23.10 24.42 24.19 22.70 25.71 25.12 25.06 25.53 30.36 30.01 29.22 26.32 29.02 30.20 32.02 32.91 32.98 33.31 32.66 32.27 32.26 31.93 33.08 33.45 33.31 33.88 30.55 29.86 28.51 28.25 27.83 27.15 26.62 26.83 27.41 28.88 27.53 28.54 27.65 26.88 28.07 28.07 28.33
33.77 37.84 32.76 34.89 31.01 30.16 27.81 24.01 23.99 28.65 25.19 24.38 23.68 24.18 23.31 22.85 22.53 22.25 26.45 25.27 24.87 26.65 28.04 29.67 30.51 31.21 31.17 31.07 31.75 31.93 33.53 32.85 32.33 32.31 34.07 33.50 31.05 28.88 28.08 28.38 27.03 27.18 27.48 28.08 28.31 28.74 29.01 29.38 28.22 26.99 26.43 27.22 28.56 27.52
36.60 33.93 31.27 31.18 25.51 24.88 20.06 27.45 23.12 20.55 18.74 19.93 22.66 19.97 20.70 21.54 23.08 23.14 22.76 24.29 25.03 27.36 30.83 31.10 31.39 31.69 30.97 32.29 31.28 30.38 31.62 31.78 31.69 31.40 31.74 32.51 32.62 32.29 30.48 29.91 29.60 29.60 28.92 28.79 29.43 28.74 28.22 28.86 29.69 27.43 26.56 27.37 27.01 26.67
35.54 28.28 23.53 23.83 21.29 15.68 17.83 15.70 21.33 19.75 19.03 19.92 18.95 16.13 15.46 18.39 20.03 22.00 20.15 22.05 28.05 27.96 28.17 28.87 30.20 29.48 30.07 28.19 28.86 30.57 31.65 30.75 31.58 31.58 32.07 31.76 30.82 30.78 30.76 30.94 30.02 30.73 31.10 31.12 28.55 27.77 26.43 26.41 28.05 27.41 26.26 25.89 25.54 24.95
25.18 23.76 24.17 19.55 18.97 11.94 6.69 7.73 13.85 17.09 15.73 10.35 16.34 14.49 12.05 16.98 17.77 17.69 17.41 21.51 25.43 26.03 27.28 27.56 27.62 28.73 28.29 29.53 30.64 31.50 31.42 31.02 30.09 29.35 31.47 30.04 30.80 28.56 27.36 28.19 28.91 29.73 29.13 28.42 26.73 26.65 26.07 24.80 25.50 25.57 24.81 24.24 23.85 24.45
16.18 15.46 15.89 10.29 11.72 13.12 9.96 6.89 9.10 11.41 10.38 9.43 11.61 10.58 11.44 14.85 12.83 12.92 15.62 19.29 22.13 23.58 24.77 25.27 25.23 25.24 25.96 28.19 28.40 29.23 29.87 29.41 29.45 28.68 31.16 28.21 28.48 28.59 27.58 25.62 25.00 25.80 27.45 29.49 27.92 26.68 25.04 24.77 24.43 23.42 23.75 23.74 26.77 27.03
16.97 14.81 17.18 22.69 20.30 18.04 15.90 16.84 15.89 13.78 11.12 12.42 13.32 11.41 14.31 12.03 7.68 14.19 19.91 20.88 21.74 24.07 24.56 25.08 26.43 26.64 26.88 27.14 28.20 28.96 27.62 26.73 26.99 27.91 27.52 27.31 27.71 28.74 29.53 27.84 25.14 28.41 27.65 27.13 26.58 26.15 25.27 23.96 24.19 24.12 24.58 23.92 23.07 22.73
19.37 18.93 16.10 17.72 20.25 20.50 17.80 16.87 14.74 13.56 15.82 18.51 15.89 11.53 11.96 9.88 14.74 22.30 21.70 21.40 21.41 22.96 23.55 25.83 28.77 28.80 29.34 28.25 28.80 27.91 27.02 27.21 26.11 25.05 25.44 24.31 22.46 23.90 26.39 27.40 27.14 27.99 26.01 25.57 25.75 25.81 26.35 26.33 25.45 24.28 23.08 23.29 23.62 22.77
17.81 20.35 20.92 16.15 17.25 17.58 16.68 16.41 15.99 19.08 21.69 18.93 16.04 16.49 18.04 21.35 22.43 22.40 23.43 22.09 21.87 21.57 25.91 28.88 27.75 26.06 26.74 26.32 26.10 27.20 27.61 27.77 30.51 28.98 27.54 24.18 24.72 23.25 20.64 23.48 24.14 24.97 26.95 28.38 28.84 26.13 23.78 24.20 23.34 23.51 22.73 22.14 22.41 21.01
16.45 17.07 17.33 15.67 13.19 14.39 17.86 19.54 18.42 20.26 21.77 22.68 22.58 21.33 21.67 23.22 23.41 21.50 19.99 19.09 19.36 19.15 19.61 22.77 24.29 19.15 22.06 23.37 22.33 22.52 22.30 22.06 23.31 26.48 24.76 24.14 23.30 20.50 21.63 22.56 22.27 21.93 23.44 24.17 22.91 21.61 26.30 21.35 21.43 19.02 19.18 18.05 18.40 19.10
10.41 7.78 9.17 14.71 15.81 18.73 16.84 13.13 11.24 16.42 17.29 17.93 19.09 18.31 20.44 20.56 21.56 20.05 18.02 16.93 16.91 17.86 19.96 19.92 19.70 18.63 20.23 20.74 21.25 22.15 22.54 21.79 21.37 23.29 23.90 22.58 21.47 21.35 20.85 20.49 19.85 19.65 19.79 19.52 18.38 18.30 17.73 19.72 19.30 19.00 17.53 15.24 14.86 18.41
3.86 7.77 3.42 8.14 8.19 8.13 9.42 9.10 10.17 9.85 9.30 11.50 16.22 15.31 16.73 16.76 16.93 18.05 14.95 15.07 16.13 14.80 17.18 15.76 17.88 17.86 17.86 18.34 19.24 21.80 23.86 19.13 19.10 20.24 20.16 20.99 19.91 18.54 18.32 16.79 15.14 17.32 18.04 17.13 16.61 16.16 15.64 15.77 15.81 17.49 16.99 14.06 13.27 12.91
-5.57 -7.79 -0.54 -3.56 1.77 3.39 1.66 1.04 2.93 4.57 7.37 10.06 11.61 9.45 9.72 11.22 14.18 15.16 15.01 13.26 12.22 11.86 12.39 12.84 14.04 15.48 14.14 14.53 15.42 17.96 20.03 18.22 24.01 29.62 29.58 29.19 28.35 24.08 18.82 17.44 17.22 17.07 15.82 16.80 15.21 14.45 14.12 13.83 14.26 11.96 11.40 10.54 10.59 10.82

GFSWCAN_sfc_wetblb_153.txt.gz
Wetbulb
45.73 46.41 46.50 46.60 46.85 48.17 49.30 49.66 50.80 53.85 53.25 52.69 52.28 52.08 51.86 51.75 50.25 48.66 47.44 46.47 45.38 43.05 43.61 41.06 41.90 40.78 40.27 40.77 39.03 38.95 38.01 37.66 36.96 33.52 32.74 33.58 31.21 33.29 31.75 34.05 32.86 32.83 31.92 31.23 33.25 30.31 28.73 37.77 36.32 34.30 37.94 39.63 39.73 40.37
44.52 45.92 46.26 46.23 46.32 47.00 48.51 49.04 49.75 52.87 52.96 52.66 52.19 52.20 51.80 51.79 50.41 48.62 46.18 45.70 45.53 42.48 42.56 42.29 42.96 42.52 41.66 40.80 41.68 40.75 38.79 38.74 40.74 37.05 35.96 35.19 31.79 32.28 32.56 31.73 33.90 30.18 35.92 34.48 35.56 36.28 37.58 39.54 39.67 40.32 40.86 40.85 40.34 40.96
43.21 44.74 45.76 46.13 46.04 46.11 47.41 48.21 48.74 51.15 52.85 52.55 52.15 52.37 52.06 51.85 50.81 49.09 47.54 45.72 44.50 43.02 43.62 41.11 40.70 41.87 42.59 42.73 43.35 40.73 41.08 40.74 39.77 40.57 38.83 37.01 32.87 35.50 31.77 32.75 33.30 35.35 37.01 34.03 33.43 38.95 38.74 39.57 40.86 41.41 41.01 40.97 40.72 40.66
42.01 43.14 44.14 45.64 45.99 45.74 45.81 47.09 47.75 49.08 52.95 52.64 52.52 52.15 52.04 51.81 51.28 48.01 46.35 46.72 45.33 43.49 39.25 39.14 41.96 40.36 41.96 42.49 42.18 42.57 41.19 40.81 41.06 40.78 38.78 37.31 34.57 36.85 35.27 33.88 33.05 36.13 35.12 35.52 35.68 38.88 39.71 40.23 40.95 41.63 41.12 40.81 39.77 39.79
41.44 41.86 42.80 43.95 45.44 45.44 45.31 45.68 46.25 47.01 50.10 52.48 52.16 51.66 51.70 51.57 50.96 47.91 46.63 46.35 47.33 42.98 39.08 39.60 40.17 39.97 41.08 41.24 40.91 41.62 41.59 41.05 40.62 38.45 37.59 36.32 37.60 34.85 35.91 33.85 33.31 36.11 36.31 34.88 37.67 41.24 40.73 39.78 40.09 40.19 40.15 39.42 40.12 39.05
40.92 41.34 41.66 42.81 44.16 45.15 45.03 44.97 45.29 45.71 46.91 50.03 51.07 51.15 51.07 51.20 48.71 46.14 42.93 45.72 46.08 45.98 41.30 37.48 39.02 38.09 39.47 40.47 40.12 39.91 41.10 41.01 41.18 39.73 38.88 38.62 36.73 35.74 33.77 34.17 41.04 40.01 40.63 41.94 40.08 39.81 39.83 40.07 39.84 39.64 39.99 39.88 39.85 39.77
41.01 40.66 41.04 41.48 42.40 43.89 44.84 44.70 44.92 44.98 45.49 47.17 50.69 50.81 50.94 49.84 47.17 43.50 42.04 44.43 45.56 45.97 40.24 37.65 36.61 37.47 38.97 38.98 39.09 39.49 40.01 40.41 40.36 39.79 37.34 37.92 37.11 36.56 35.21 32.83 41.44 41.63 41.19 40.74 40.29 39.80 38.13 38.49 39.27 38.79 39.23 39.02 39.24 38.99
41.13 40.63 40.51 41.08 41.68 42.60 43.87 44.69 44.65 44.72 44.88 46.48 47.92 50.60 50.88 49.09 46.42 43.55 44.11 45.13 45.45 42.14 39.98 36.77 34.35 34.37 38.52 36.20 35.79 38.66 37.85 38.86 38.32 38.33 37.04 36.05 36.50 35.96 32.06 38.40 40.80 39.97 39.02 39.11 38.89 39.41 38.28 38.27 37.61 36.84 37.84 37.09 35.87 35.49
41.02 40.98 39.84 40.14 40.82 41.50 42.46 43.43 44.53 44.45 44.89 46.48 47.10 50.42 47.50 45.68 42.76 42.41 45.07 43.63 44.18 41.64 37.85 35.80 33.90 32.48 36.51 35.72 37.10 36.37 38.04 33.80 36.16 34.55 34.96 35.14 34.78 31.79 36.83 39.20 40.71 41.23 38.17 39.14 37.91 36.58 36.01 36.19 35.51 34.83 35.13 35.46 34.66 33.71
40.15 41.00 40.43 39.49 39.93 40.36 41.33 42.83 44.16 44.45 44.84 45.45 44.91 44.04 39.65 42.98 45.53 45.23 41.77 38.49 37.98 40.13 38.61 35.60 37.71 32.34 35.79 34.96 34.04 34.78 34.94 34.10 31.23 33.76 34.55 31.42 32.53 38.50 39.78 40.64 40.84 39.81 39.37 36.80 33.23 31.76 33.24 33.64 33.95 34.19 34.67 35.94 36.08 34.84
39.66 40.78 41.05 39.78 39.19 39.65 40.68 42.36 43.87 44.19 44.34 39.88 36.02 34.69 41.49 45.19 42.81 40.19 33.31 32.92 33.49 32.51 35.78 36.98 36.68 31.85 35.35 32.99 33.24 35.19 33.39 33.39 29.31 31.34 30.79 31.57 30.10 36.03 38.20 37.16 37.82 40.63 40.05 38.31 38.86 38.58 37.63 37.46 35.82 34.81 34.85 35.41 35.69 34.87
39.68 40.53 41.22 39.71 38.78 39.50 40.21 41.85 43.53 43.04 41.66 39.31 37.54 39.72 40.10 37.38 33.87 32.07 31.41 32.81 31.84 32.65 33.97 32.66 32.78 34.68 33.07 35.54 33.39 31.69 31.09 30.15 28.40 31.67 29.32 27.85 34.27 37.43 35.83 35.29 35.50 37.43 39.03 37.50 38.27 37.63 37.44 37.39 37.29 36.25 35.50 34.68 34.47 34.28
39.85 40.95 41.01 39.24 38.67 39.96 41.18 41.48 43.24 43.64 42.53 40.48 35.67 32.11 31.91 31.69 29.45 30.27 27.99 30.61 32.04 33.77 31.99 31.52 30.91 32.44 31.75 33.52 31.90 31.03 28.71 28.98 31.63 28.11 28.05 31.24 35.14 34.59 34.86 34.41 34.11 35.22 35.45 35.34 34.69 35.38 35.48 34.59 34.80 34.47 33.25 33.21 33.08 32.39
40.11 40.82 40.78 39.50 38.72 39.70 40.83 41.30 42.06 41.70 40.45 34.82 32.06 29.13 29.56 28.88 30.52 33.12 33.49 34.21 31.54 34.29 33.78 34.38 31.28 32.22 32.17 31.08 30.87 29.78 28.93 28.83 25.79 24.33 26.73 36.15 33.02 33.15 35.15 34.42 33.64 33.94 33.99 32.72 33.14 33.33 32.43 31.63 31.58 32.38 33.18 33.35 33.12 32.20
40.33 40.74 40.85 40.28 39.51 39.46 40.10 40.86 41.63 41.89 36.39 32.14 32.17 26.18 29.60 31.48 33.16 31.55 31.47 31.37 31.51 35.51 33.29 31.91 32.22 32.85 30.37 29.07 29.87 27.79 24.39 24.55 26.62 28.07 34.02 33.94 32.31 31.98 33.45 33.14 34.16 34.00 34.39 34.11 32.86 31.09 30.59 30.19 30.06 30.79 31.74 32.59 32.77 31.60
40.47 40.19 39.57 40.14 39.73 39.50 39.41 41.40 41.36 40.19 34.25 31.61 31.45 29.04 31.62 31.27 32.18 33.02 32.10 32.30 33.78 34.06 34.11 34.42 31.60 30.39 30.19 30.75 26.40 26.58 26.20 25.85 31.30 33.18 34.89 33.00 32.53 32.63 32.50 32.84 33.02 33.91 34.19 33.71 32.62 32.27 31.23 30.41 30.59 30.93 31.26 31.01 30.59 30.40
39.78 37.33 39.19 40.21 40.12 39.33 40.20 38.12 36.56 30.49 29.19 28.76 29.86 32.35 31.78 31.95 30.76 32.03 32.85 32.90 33.95 33.16 31.60 32.33 28.80 29.87 29.38 28.06 26.85 29.30 28.40 32.19 33.64 34.57 34.31 33.81 32.41 32.56 32.96 32.83 31.78 31.34 32.02 32.56 31.73 31.45 30.90 31.11 30.08 28.82 28.55 30.06 29.73 29.36
37.31 39.04 39.69 40.36 40.16 39.16 37.90 35.74 31.75 27.99 24.16 28.41 27.75 29.68 30.77 32.08 31.89 33.13 33.82 33.57 33.63 32.84 32.64 29.59 31.15 27.52 27.35 25.45 26.65 30.33 31.42 34.47 33.77 33.71 34.05 34.12 34.19 33.58 32.24 33.05 32.06 31.37 31.20 30.16 29.56 29.14 27.75 27.07 27.88 28.84 29.08 28.68 27.53 27.34
38.08 39.23 39.94 40.41 38.84 34.96 31.72 30.90 32.14 25.92 26.28 28.71 29.50 29.84 29.85 30.52 32.13 32.95 34.14 34.98 35.65 35.71 33.32 31.47 28.73 28.17 29.06 30.93 32.14 33.15 33.13 32.74 32.12 33.32 34.02 35.09 34.39 32.91 31.63 30.42 30.24 30.01 29.72 28.94 28.58 29.04 29.24 29.18 30.16 30.51 29.83 28.13 28.13 28.94
39.90 39.97 40.35 39.81 38.20 31.60 26.72 28.10 32.34 27.96 24.82 27.81 28.37 26.21 26.85 28.25 27.36 29.58 32.07 33.17 33.49 32.98 30.43 28.25 28.16 31.20 32.38 34.16 34.66 35.67 35.83 35.09 33.37 31.56 31.64 34.08 34.98 32.46 31.78 31.49 31.33 31.17 30.15 29.53 29.07 30.34 28.71 28.25 28.49 29.25 29.56 28.69 27.80 27.71
38.19 38.06 39.01 37.95 33.34 32.05 29.94 28.37 27.60 28.72 27.92 25.22 25.81 25.02 25.70 27.69 27.46 28.12 28.64 31.20 29.01 28.18 27.63 30.73 31.88 34.09 34.98 34.82 35.58 35.37 34.37 34.08 32.83 32.85 32.34 32.39 34.91 34.28 33.10 31.92 30.93 30.68 29.81 29.24 28.41 28.56 30.07 28.66 29.73 28.90 28.58 28.40 29.07 29.08
34.20 37.83 33.85 34.67 31.02 29.35 28.26 29.90 28.71 29.89 26.96 26.70 24.50 25.03 23.76 25.17 26.31 26.06 28.27 26.07 27.23 29.88 31.10 30.44 31.21 31.96 31.83 32.05 33.16 33.84 34.14 34.00 33.91 33.74 35.36 34.90 32.88 32.83 32.19 32.23 30.17 30.04 29.60 30.34 29.70 29.36 29.73 30.71 29.73 28.83 27.88 28.33 30.13 28.70
36.48 34.11 32.06 31.30 25.95 25.33 23.78 29.58 25.00 25.35 22.15 23.30 24.54 21.75 21.62 22.16 25.32 24.94 22.07 25.76 27.95 31.24 32.01 32.02 32.22 32.75 31.81 32.85 32.18 32.09 32.57 32.13 31.80 32.44 32.76 33.39 34.01 33.94 33.52 32.50 31.70 31.33 30.86 30.54 30.76 30.45 30.37 31.35 30.55 28.63 27.53 28.23 27.13 27.15
36.24 30.35 24.63 24.28 23.95 19.88 23.73 22.76 25.61 23.67 22.14 21.26 20.11 18.28 19.81 21.73 23.54 21.42 20.20 24.94 29.44 30.71 30.04 29.89 30.73 30.29 31.11 30.39 30.02 31.07 32.17 32.24 31.69 32.35 33.37 32.91 32.12 32.69 33.74 33.28 33.92 32.62 32.50 33.04 31.02 29.89 29.59 28.87 30.34 28.94 26.47 26.40 26.62 26.38
21.02 19.79 25.11 18.18 23.55 19.04 17.35 17.58 18.16 19.32 17.88 19.28 18.24 18.03 19.16 19.79 18.63 19.30 19.49 25.43 29.52 28.74 29.79 29.02 29.01 29.05 28.42 29.60 30.61 31.57 32.36 32.53 31.31 30.20 32.27 32.84 32.27 32.33 31.80 31.31 32.39 33.14 32.19 31.38 29.25 28.76 28.87 28.12 27.68 27.79 27.46 27.20 26.73 26.07
17.91 22.09 20.58 22.08 19.22 18.00 17.03 14.59 14.85 16.01 18.95 15.36 16.47 16.77 16.86 18.33 15.83 16.14 21.28 25.12 25.78 26.19 26.01 25.44 25.45 25.24 26.71 29.07 28.39 29.03 30.60 32.49 31.68 30.57 32.22 32.36 31.57 31.33 31.07 30.61 29.26 29.25 29.85 30.91 30.45 28.38 27.75 27.11 27.26 26.52 25.35 25.04 27.99 26.05
18.81 18.65 21.58 24.13 22.80 20.28 18.21 19.10 18.64 17.06 13.76 13.20 17.31 15.01 16.59 14.82 14.19 20.05 24.34 24.99 24.83 26.71 25.98 25.50 25.84 25.69 26.89 28.47 30.07 30.64 30.38 30.32 29.92 29.70 28.70 28.62 28.44 29.19 30.80 30.01 28.20 29.83 28.88 29.38 29.66 29.32 27.89 26.65 25.94 25.58 26.15 26.08 25.02 24.79
22.27 21.80 19.20 21.54 22.11 22.95 19.92 18.46 16.93 15.43 17.86 21.15 18.80 14.18 14.55 14.67 17.71 24.93 24.92 25.54 24.86 24.94 25.15 27.17 29.55 28.50 28.10 29.52 30.05 29.39 28.93 26.96 26.14 26.59 26.61 26.79 26.22 26.13 27.67 28.70 29.01 29.65 29.13 29.33 28.63 28.90 28.37 27.82 26.97 25.83 24.71 25.08 24.54 24.09
21.00 21.50 22.07 18.10 19.77 20.20 20.08 19.44 19.43 21.34 23.47 21.20 18.58 18.02 19.52 23.05 24.75 24.25 24.88 22.75 23.55 23.77 26.11 26.82 30.08 27.75 29.93 28.65 28.53 26.87 27.57 29.26 29.69 27.65 24.34 24.94 26.41 25.15 24.70 27.05 28.00 28.89 28.93 28.45 30.18 28.07 26.55 26.52 25.61 24.63 22.49 23.19 23.07 21.78
17.36 17.36 18.67 18.49 16.31 16.97 21.20 22.70 21.77 22.57 23.32 24.05 23.97 22.83 22.89 24.45 24.91 23.01 21.38 20.79 19.66 20.05 21.40 22.38 24.44 24.25 26.54 26.99 25.82 24.98 24.26 24.00 25.15 29.10 27.35 25.60 23.81 23.17 25.15 25.29 25.26 25.52 26.28 25.83 24.67 25.08 26.71 23.43 22.87 20.30 19.87 19.15 19.61 19.18
14.22 14.80 14.21 16.93 18.61 20.71 17.63 15.97 16.22 17.71 19.60 20.39 21.86 20.46 21.10 22.96 23.48 21.10 18.28 17.49 19.26 21.01 21.89 21.55 22.83 20.66 21.94 23.24 24.06 24.42 23.01 23.66 23.36 24.45 24.51 24.12 24.13 23.73 23.06 22.29 22.44 22.96 22.54 21.52 20.83 20.16 18.95 19.33 19.00 16.77 16.86 14.36 13.28 17.35
12.97 12.07 11.21 9.65 13.68 13.43 13.09 13.24 14.42 14.93 16.08 16.34 18.62 18.91 19.99 19.70 19.73 18.71 16.04 16.26 17.85 16.80 18.63 18.35 18.66 18.78 19.68 21.10 21.74 23.77 24.82 22.29 23.06 22.88 22.33 22.70 21.58 20.61 20.58 20.06 19.57 20.75 20.35 19.26 18.23 16.88 15.12 14.62 15.21 15.08 16.35 14.04 12.76 11.82
7.17 5.50 5.93 7.24 10.05 11.43 10.61 8.20 10.03 10.78 12.57 14.46 14.42 12.55 13.78 14.05 15.53 15.99 18.62 16.58 14.51 13.81 14.28 15.57 16.47 16.70 15.69 16.11 16.89 19.78 22.38 22.63 27.72 30.50 30.35 29.17 28.04 24.62 21.04 19.72 19.05 18.22 17.08 17.17 16.31 14.68 12.53 11.31 13.34 12.68 11.35 10.56 10.15 10.13

GFSWCAN_sfc_wetblb_156.txt.gz
Wetbulb
43.80 45.91 46.51 46.71 46.69 46.91 48.26 49.18 49.72 50.19 52.33 53.20 52.68 52.29 52.00 52.06 51.71 48.27 45.94 45.94 43.34 40.47 40.03 39.54 40.39 37.24 37.56 36.79 34.31 35.49 35.15 34.93 33.29 29.98 29.03 29.02 26.25 27.99 25.25 27.84 26.92 27.88 26.02 25.48 26.73 23.87 20.99 33.31 31.64 28.70 32.96 33.58 35.26 36.06
43.46 44.08 45.73 46.33 46.32 46.30 46.79 48.11 48.86 49.08 50.14 53.19 52.54 52.30 52.03 51.92 51.21 49.84 45.31 45.40 45.11 40.26 40.16 41.09 41.06 40.53 39.35 38.64 36.98 37.15 35.33 35.84 37.20 32.07 31.06 30.02 27.70 29.17 28.08 25.03 28.36 23.92 30.12 27.85 30.54 29.96 33.49 34.28 32.98 33.73 36.30 36.02 34.06 35.31
42.28 42.90 44.49 45.23 46.14 46.31 46.11 46.87 47.82 48.01 50.15 53.02 52.61 52.50 52.12 52.07 51.40 49.22 46.49 44.05 42.44 40.37 40.52 38.82 37.73 39.24 41.56 40.71 41.00 36.60 37.21 37.85 36.75 36.13 33.82 32.73 28.68 30.91 27.17 28.97 27.87 29.57 31.71 28.05 28.74 31.67 32.62 34.29 35.31 36.28 34.83 35.79 36.00 36.78
42.13 42.01 42.47 43.51 45.09 45.93 45.86 45.98 46.72 47.46 48.65 53.14 52.93 52.63 52.03 51.92 51.69 49.39 45.57 45.13 43.55 40.99 35.52 35.69 40.93 38.06 39.73 40.69 40.30 40.17 38.42 38.27 37.70 36.41 34.24 32.85 30.46 33.47 30.09 30.33 29.36 33.26 31.81 30.24 30.32 33.53 33.13 34.39 34.38 36.32 36.50 36.70 36.04 36.14
41.78 41.59 41.89 42.49 43.60 45.12 45.59 45.51 45.88 46.52 47.25 49.42 52.55 52.20 51.90 51.63 51.28 48.27 46.58 46.19 45.76 40.79 36.08 36.60 38.30 37.92 39.36 39.34 38.62 38.59 38.77 37.46 35.71 33.88 32.58 31.93 32.77 30.82 31.19 29.58 28.26 31.92 31.91 31.41 31.56 35.16 34.76 33.15 33.57 36.26 36.04 35.40 36.20 35.16
41.86 41.28 41.46 41.62 42.30 43.22 45.02 45.28 45.36 45.70 46.07 47.39 51.90 51.62 51.55 51.33 49.95 45.70 41.85 45.68 46.12 43.94 38.41 33.88 36.49 35.91 37.10 37.73 37.76 36.79 38.05 37.03 36.24 34.76 33.80 33.86 33.81 31.56 28.43 28.35 35.72 34.55 35.78 37.24 35.51 36.04 36.50 36.54 36.34 35.37 35.89 36.09 36.26 35.84
41.17 41.12 41.13 41.27 41.66 42.46 43.31 44.78 45.12 45.26 45.56 46.74 50.89 51.22 51.09 50.59 47.76 43.41 40.90 43.39 46.54 45.13 38.26 34.06 32.08 35.36 37.10 36.78 36.71 36.52 37.06 36.36 35.79 35.26 32.64 33.03 32.89 32.46 30.55 28.60 36.23 36.37 36.34 35.50 35.16 35.61 33.35 34.43 33.90 35.17 35.85 36.02 37.76 35.66
40.72 40.81 41.18 40.79 41.05 41.69 42.31 43.21 44.39 44.97 45.23 46.17 48.06 50.70 50.89 49.78 46.93 43.34 43.45 46.13 45.63 41.47 38.33 32.19 30.77 31.70 36.95 33.75 32.29 36.17 34.22 34.75 34.77 33.34 33.26 31.98 32.29 31.36 28.58 35.15 36.04 35.07 34.32 34.84 35.00 34.01 34.05 34.23 34.06 33.93 34.15 33.63 32.68 32.05
39.61 40.98 40.99 40.25 40.40 40.78 41.23 42.21 43.73 44.54 44.87 45.94 46.63 48.95 47.62 45.54 42.44 41.66 45.08 44.62 43.82 41.35 33.26 32.23 29.10 28.50 35.29 34.03 34.05 33.07 34.37 28.75 32.06 30.21 31.33 31.97 30.54 27.63 32.95 34.51 35.94 36.60 35.41 34.67 34.11 33.44 33.18 32.69 32.30 32.61 32.80 32.72 31.31 31.23
39.35 40.00 40.91 40.84 40.00 40.06 40.54 41.67 43.56 44.25 44.70 45.00 44.96 42.64 38.21 42.99 45.67 45.38 42.18 38.69 37.52 38.49 36.69 34.02 33.43 28.36 33.67 32.61 31.84 30.73 31.30 29.59 23.82 29.66 30.67 28.69 29.73 36.36 37.15 37.25 37.64 36.53 35.65 34.27 30.57 28.95 30.34 30.76 31.95 31.97 32.31 33.18 32.67 31.49
39.43 39.50 40.86 41.03 39.85 39.48 40.26 41.52 43.32 44.27 44.24 39.87 35.71 33.68 41.13 45.58 42.86 39.10 32.34 32.28 32.89 31.81 35.34 34.81 32.89 29.19 34.18 31.07 30.35 32.45 29.00 29.09 21.92 26.36 26.58 27.94 29.33 32.70 34.82 33.90 34.11 36.08 35.57 34.92 34.95 35.19 34.37 33.95 32.79 32.04 32.19 32.81 32.25 31.19
39.21 39.28 40.48 41.04 39.35 39.68 41.24 41.60 43.25 42.59 40.27 39.18 37.42 40.13 39.72 37.43 32.29 31.68 30.83 32.03 31.47 31.22 33.74 32.49 31.28 32.46 31.74 33.94 31.72 30.60 28.91 27.61 21.22 28.12 24.05 24.81 31.35 32.33 33.40 31.55 32.78 33.62 34.27 34.49 34.75 34.78 34.79 34.61 33.86 32.92 32.28 31.83 31.23 30.62
39.55 39.62 40.73 40.28 38.60 39.23 41.12 41.64 42.88 42.90 42.14 40.07 35.55 31.83 31.81 31.02 28.91 29.48 26.75 29.42 29.46 32.87 31.36 30.94 29.91 31.07 31.46 33.58 31.68 30.57 27.89 26.75 28.17 24.64 22.32 28.93 31.31 31.23 31.79 32.10 32.18 31.82 33.06 33.29 32.83 33.18 33.59 33.05 33.09 32.09 30.95 30.94 29.99 28.85
39.43 40.15 40.85 39.82 38.69 39.37 40.41 40.92 41.75 41.59 39.64 33.98 31.47 27.58 29.03 27.15 29.50 29.91 29.96 31.77 30.53 32.62 32.39 33.08 30.74 31.43 31.58 30.73 30.61 28.69 29.37 26.75 21.58 17.37 22.31 30.14 29.95 29.65 30.35 31.41 31.55 30.83 30.44 29.36 30.01 30.77 30.55 29.81 30.20 30.53 30.28 30.02 29.54 28.72
39.55 40.15 40.80 39.76 39.32 39.20 39.90 41.08 41.73 40.88 36.41 31.32 31.13 26.48 28.80 30.69 30.89 30.80 31.00 31.45 31.05 34.51 32.43 31.45 31.17 31.84 30.01 28.74 30.25 27.46 23.97 22.08 21.86 22.03 27.18 29.85 30.29 30.04 29.46 30.66 30.67 30.39 31.36 30.73 29.97 27.49 25.81 26.38 27.29 28.06 28.36 28.68 28.41 27.50
39.49 39.51 38.97 40.34 39.64 39.31 39.80 40.72 39.79 38.66 33.41 31.23 30.67 27.93 30.49 29.75 30.81 31.44 31.65 30.83 32.46 33.46 33.26 32.98 30.45 29.63 28.03 29.70 25.36 25.14 22.62 19.12 23.05 25.70 27.20 29.96 29.76 30.03 29.48 30.29 30.54 31.36 31.53 31.15 30.20 30.01 28.97 27.88 27.81 27.56 27.83 27.59 27.10 26.55
39.63 35.88 39.55 40.38 39.76 39.67 39.95 36.29 33.89 29.33 29.20 26.53 27.91 30.75 31.20 31.29 30.57 30.85 31.06 31.08 33.54 32.14 30.69 31.32 28.01 28.10 28.31 25.75 24.97 25.85 23.12 25.96 27.14 27.28 27.52 29.43 28.59 29.18 29.48 30.08 29.97 29.68 30.36 29.94 28.99 28.72 28.03 28.24 26.22 23.45 24.74 26.13 25.84 26.35
35.70 37.96 39.67 40.17 39.37 38.29 34.91 34.60 30.33 27.61 22.60 25.13 26.75 25.75 28.99 30.19 30.82 31.81 31.01 33.36 32.81 31.58 31.26 27.91 29.82 26.73 26.62 25.61 23.25 25.53 26.46 27.82 28.32 28.55 28.97 29.44 29.69 29.59 29.70 29.08 29.84 29.25 28.81 25.23 24.67 22.92 22.38 23.63 24.08 24.83 24.17 24.76 22.96 23.01
38.16 38.36 40.62 40.22 38.09 32.39 24.88 29.77 31.02 20.73 19.72 24.15 25.48 25.67 26.10 27.78 28.95 30.34 32.93 34.18 34.47 33.84 31.78 30.38 27.44 26.96 27.42 28.57 27.35 26.73 26.23 26.72 27.72 28.89 29.20 29.45 30.33 29.59 28.37 26.00 25.62 25.26 25.12 22.99 25.46 26.14 25.92 26.13 26.12 26.38 26.03 24.78 23.92 24.19
39.99 40.08 40.32 39.46 38.07 27.27 25.73 27.25 31.45 23.16 16.15 22.38 25.15 25.21 24.72 23.42 23.04 24.80 27.02 31.79 32.10 31.07 27.95 24.58 22.46 27.75 30.41 33.04 31.80 31.90 31.63 31.71 29.43 26.39 26.00 28.01 30.09 26.96 27.95 27.07 27.68 28.61 26.83 26.60 25.00 29.44 25.89 24.77 25.27 26.05 25.21 24.62 23.69 23.83
37.15 36.85 38.00 35.78 31.41 29.60 22.67 26.39 25.98 27.09 26.52 22.46 25.28 24.17 23.22 23.26 20.47 18.14 18.35 29.78 27.77 25.78 19.71 26.39 29.35 31.07 31.74 30.97 31.52 32.80 31.36 30.88 28.75 27.90 27.45 26.95 29.63 30.59 29.09 25.90 25.70 27.79 27.01 26.83 26.39 25.68 28.37 25.01 26.11 25.84 26.08 26.35 25.60 25.19
34.23 37.56 32.15 33.41 22.80 25.71 21.40 25.43 27.33 28.73 24.04 22.87 23.44 24.11 21.51 17.38 14.35 18.98 24.85 24.38 18.34 21.85 25.97 26.77 27.44 28.63 28.01 27.66 28.53 28.95 29.88 29.47 28.71 28.89 33.39 31.73 27.47 26.89 27.11 28.22 26.57 26.88 27.88 28.54 26.94 26.33 25.60 26.56 26.59 26.05 25.41 25.90 28.73 26.05
36.22 34.36 28.32 25.18 23.37 19.71 14.50 28.34 22.21 23.29 15.45 15.77 22.61 16.74 19.64 20.86 23.64 24.28 20.82 23.79 21.57 25.41 27.69 27.19 27.52 28.44 27.96 28.91 28.86 28.36 28.95 28.39 27.26 27.21 28.26 28.90 29.19 29.31 29.14 30.41 30.66 29.15 28.21 29.28 28.63 26.26 25.86 29.23 29.28 26.38 25.67 26.91 26.56 25.83
36.18 29.19 22.37 15.48 12.55 13.29 23.56 21.18 19.70 21.53 21.22 20.74 18.20 8.88 13.71 18.02 22.62 20.12 18.75 17.49 24.28 25.17 24.94 25.07 24.54 25.37 25.74 26.00 23.52 27.07 28.51 27.07 25.99 24.69 27.77 27.07 26.00 28.13 29.12 29.57 30.43 29.73 29.48 28.45 25.79 25.69 23.97 25.81 28.78 26.35 26.02 25.67 24.62 23.83
21.14 20.46 17.08 12.21 22.60 13.11 9.90 11.85 11.93 14.47 7.47 13.30 17.40 7.24 10.27 17.10 16.79 17.14 10.55 13.86 18.80 21.94 22.63 22.25 22.31 23.42 23.18 24.47 25.28 26.39 28.20 25.66 24.78 25.25 25.70 25.56 25.96 26.79 24.18 25.90 28.60 28.59 26.79 22.46 22.57 22.80 21.20 21.21 21.06 20.92 23.78 24.44 24.73 24.09
8.62 12.99 16.84 13.93 12.40 11.93 11.28 5.51 7.91 8.07 12.19 5.35 7.11 7.28 8.14 14.07 6.07 5.15 10.98 15.14 18.92 19.63 20.24 20.70 22.37 22.73 22.86 23.64 25.13 26.15 25.98 25.56 23.50 22.43 23.61 24.74 25.28 23.69 20.15 20.98 20.75 24.69 24.99 24.70 23.24 20.16 19.87 19.79 19.92 21.27 25.18 26.46 29.23 23.25
14.08 17.24 19.43 23.88 22.24 19.65 16.07 16.97 17.40 12.03 4.80 6.22 8.53 5.87 8.78 5.93 2.59 11.37 17.83 18.10 18.59 19.86 22.14 24.70 24.58 24.38 24.14 24.70 28.08 29.65 29.50 25.87 23.17 22.73 23.17 22.15 22.06 21.88 22.36 20.84 20.59 24.64 23.84 22.52 22.86 23.04 21.04 21.35 22.45 25.23 24.18 20.08 18.89 18.61
21.35 22.17 17.51 20.01 21.51 22.22 18.80 15.03 12.64 10.89 12.62 18.33 16.62 6.57 5.67 6.72 9.47 16.89 18.97 23.44 18.52 20.75 20.47 23.50 26.30 25.98 26.28 25.52 28.66 28.76 27.81 25.10 24.37 24.46 25.23 22.09 18.49 18.97 20.33 23.95 28.08 30.53 25.59 25.12 25.26 24.67 23.20 22.38 21.45 20.53 19.92 20.89 21.51 20.36
21.12 21.30 22.12 18.04 19.57 19.57 18.13 16.73 15.21 18.88 22.38 18.54 14.37 14.15 15.51 18.12 19.15 19.15 19.35 18.05 19.82 19.49 20.04 23.02 24.13 25.81 28.49 27.55 25.98 24.80 22.69 24.59 23.67 18.06 17.90 18.34 18.32 20.24 21.90 21.79 23.57 23.51 23.34 27.14 31.31 27.07 24.61 24.61 23.91 22.25 19.42 16.82 14.23 12.81
14.92 14.85 15.48 14.67 13.87 15.02 18.27 20.41 19.90 20.78 22.84 23.50 23.13 20.08 20.35 19.93 21.79 20.04 19.04 18.63 17.12 16.48 19.16 20.41 21.74 21.11 23.19 23.77 22.82 21.94 23.20 22.19 22.55 23.59 21.81 19.08 17.64 17.16 18.11 19.84 19.97 18.99 19.60 20.74 20.12 17.98 26.21 18.27 17.87 12.35 11.13 9.83 9.57 9.25
11.63 8.74 7.31 10.03 11.04 14.85 14.26 15.23 16.30 18.85 18.59 18.96 20.68 17.83 18.46 20.20 21.49 19.82 17.50 17.05 17.83 19.00 19.25 18.57 19.76 18.65 18.38 17.76 17.85 18.30 19.77 21.19 19.96 21.73 21.83 20.60 17.86 15.87 15.33 14.60 14.42 14.69 13.72 12.61 10.78 9.39 8.48 8.71 7.34 6.05 5.91 4.02 4.61 8.80
7.02 3.53 2.24 4.49 4.72 5.43 6.31 6.71 9.72 11.61 14.98 15.37 18.00 18.79 19.44 19.07 15.65 15.15 15.72 15.09 14.49 14.15 17.48 15.89 15.08 15.85 16.99 18.42 18.22 20.06 24.05 16.63 18.47 17.93 15.53 15.84 14.21 11.85 11.44 10.72 9.99 9.69 9.25 8.51 6.99 6.54 5.50 4.33 5.02 4.48 5.00 3.24 2.69 2.73
-1.76 -2.80 -3.78 -1.69 -0.05 1.77 1.90 1.60 2.74 4.07 7.95 11.36 12.74 12.84 14.02 14.56 13.24 13.60 16.58 15.87 14.28 13.37 12.88 13.66 14.97 15.38 14.15 13.30 13.62 16.65 19.45 20.39 28.25 29.27 28.84 28.04 27.36 21.97 12.10 9.24 9.17 10.31 9.65 8.13 6.76 5.74 4.88 2.66 2.77 1.68 1.62 3.00 4.48 4.64

GFSWCAN_sfc_wetblb_159.txt.gz
Wetbulb
43.17 43.62 44.91 46.33 46.69 46.72 46.72 47.74 49.02 49.35 50.20 53.11 52.73 52.27 51.92 51.70 51.96 47.29 43.34 43.69 40.79 37.66 38.75 37.73 38.52 35.11 35.36 34.31 30.96 33.41 32.54 32.73 31.16 28.33 27.34 27.05 25.27 27.09 23.74 26.05 25.85 26.03 24.00 23.55 24.58 22.23 20.22 31.72 30.04 27.39 32.68 34.24 34.90 35.56
42.61 42.52 43.77 45.19 45.92 46.33 46.39 47.06 48.01 48.29 48.67 50.53 52.94 52.45 51.98 51.73 51.80 49.54 41.90 43.80 43.44 39.03 38.13 40.07 39.60 39.12 37.99 37.22 35.98 34.37 33.53 32.96 34.02 29.60 28.71 28.30 26.67 26.88 26.37 24.03 27.24 24.13 29.09 26.96 28.11 28.42 33.33 32.04 31.45 32.13 34.87 35.23 34.37 34.81
42.73 42.30 42.33 43.21 44.25 45.87 46.30 46.19 46.75 47.39 48.16 49.45 51.46 52.81 52.23 52.14 52.11 48.85 42.85 41.23 40.65 38.73 38.74 37.89 37.12 37.91 40.03 39.07 39.80 34.75 34.45 35.99 34.43 34.79 31.89 30.65 27.58 30.02 25.58 26.87 28.37 28.75 29.87 27.78 27.95 28.70 31.26 32.13 32.26 33.53 34.05 33.81 34.82 35.91
42.20 42.29 41.94 42.25 42.99 44.37 45.78 45.96 46.05 46.70 47.34 48.06 49.50 53.04 52.20 52.03 51.80 49.18 43.57 43.17 42.00 39.77 34.72 35.72 39.70 36.20 38.47 39.17 39.02 38.76 36.95 36.46 35.82 34.25 31.60 30.54 29.22 32.68 29.32 29.79 28.57 32.12 31.56 29.08 27.95 31.20 30.14 33.24 32.73 34.83 34.52 34.71 34.94 35.67
41.33 42.20 41.88 41.75 42.20 42.88 44.15 45.55 45.65 45.82 46.39 47.02 48.06 52.50 52.06 51.74 51.35 48.19 45.79 44.47 44.06 40.03 34.87 35.66 36.96 36.73 37.93 37.98 37.39 37.69 37.31 35.37 33.27 31.65 30.00 29.65 30.87 30.08 30.25 29.19 26.93 31.10 31.46 30.60 30.20 33.81 32.65 32.47 32.28 34.36 34.04 33.82 34.37 34.90
40.73 41.77 41.53 41.29 41.62 42.29 42.90 43.94 44.92 45.36 45.57 46.14 47.13 51.27 51.65 51.40 50.30 46.05 41.37 45.49 45.66 43.18 36.71 31.80 35.80 34.46 36.17 36.63 36.49 35.81 36.26 35.14 34.08 32.86 31.57 32.46 32.64 30.21 27.25 27.31 34.12 33.12 33.56 35.32 34.84 35.29 34.73 33.98 33.66 33.52 34.28 34.16 34.23 34.62
40.15 41.12 41.36 41.14 41.27 41.66 42.04 42.53 43.48 44.67 45.28 45.60 46.74 50.21 51.23 50.71 47.98 43.50 40.86 42.52 46.98 44.50 37.12 32.03 30.49 34.69 36.39 35.64 35.24 34.86 35.15 34.31 33.89 32.98 31.04 31.32 31.09 31.74 28.68 27.41 35.10 35.37 35.15 33.99 33.77 35.00 32.54 34.42 34.16 34.16 35.07 35.14 36.82 34.25
39.57 40.51 41.38 41.25 40.71 40.92 41.32 41.74 42.77 44.06 44.82 45.46 46.57 50.40 51.03 49.76 47.14 43.33 43.61 46.44 45.43 40.95 38.22 32.12 31.86 30.46 36.12 32.71 30.91 34.62 31.78 32.37 32.56 31.38 31.73 30.38 30.95 29.65 27.90 33.83 33.87 35.02 33.47 33.38 33.16 32.18 33.66 32.97 32.69 32.42 32.47 32.72 32.18 32.10
39.11 39.50 40.74 41.01 40.69 40.47 40.66 41.21 42.35 43.84 44.58 45.39 46.45 50.51 47.52 45.46 42.18 41.04 45.84 46.07 44.25 40.66 32.95 32.15 27.85 25.52 34.76 33.11 32.55 31.90 31.40 27.06 30.37 28.64 29.21 30.93 28.90 26.79 31.80 32.66 34.04 35.28 34.53 33.81 32.86 32.48 31.90 31.47 31.35 31.39 31.37 31.02 30.67 30.78
39.62 39.30 39.81 41.12 40.72 40.12 40.15 41.03 42.33 43.65 44.79 45.24 44.17 40.88 37.40 42.51 45.91 45.98 42.48 38.93 37.73 38.42 35.55 31.36 30.92 28.53 32.93 31.64 30.42 28.54 28.81 27.74 21.29 28.59 29.26 27.68 27.98 34.79 34.88 34.96 35.76 36.40 35.44 33.09 30.45 28.86 29.55 29.69 31.24 31.46 32.12 32.91 33.03 32.34
39.51 39.48 39.37 40.92 40.54 39.64 40.91 41.50 42.59 43.90 43.80 39.46 35.32 34.08 40.95 46.05 42.47 38.03 31.73 31.73 32.33 31.40 34.36 34.51 30.29 28.50 33.90 30.50 30.32 31.42 25.56 26.91 19.37 25.38 26.01 25.24 28.13 31.92 32.46 32.35 32.85 33.10 34.08 34.06 34.26 34.64 34.26 33.95 32.73 31.91 31.90 32.24 31.71 30.72
39.39 39.17 39.16 40.50 40.04 39.19 40.94 41.47 43.21 41.58 39.54 38.15 37.25 40.51 39.68 36.63 31.82 30.95 29.93 31.57 31.51 29.17 33.36 32.57 31.83 31.18 31.36 33.55 30.70 29.48 26.90 25.74 19.38 27.15 24.04 22.67 29.10 30.15 30.10 31.39 32.38 32.36 33.46 33.84 34.43 34.45 33.81 34.00 33.42 32.71 32.23 31.55 30.87 30.30
40.04 39.23 39.39 40.50 38.66 38.96 40.64 41.02 41.97 42.43 42.10 39.44 34.33 31.70 31.67 30.77 28.42 28.34 26.02 28.64 29.87 32.14 31.15 31.15 29.79 31.16 31.03 33.48 30.96 30.44 28.25 26.87 26.44 24.63 22.00 24.93 30.15 30.26 29.79 31.14 32.21 31.91 32.23 33.01 32.47 32.84 33.44 32.69 32.56 31.99 31.26 30.81 29.90 28.62
38.70 38.98 40.16 40.15 38.62 38.96 40.13 40.47 42.21 41.04 38.46 32.99 30.40 26.02 27.97 25.78 28.38 27.59 29.49 31.17 30.74 32.03 31.91 32.06 30.82 31.28 31.47 31.10 30.56 28.13 29.19 26.96 20.54 20.51 20.29 27.36 30.14 30.20 30.04 30.80 31.49 31.74 31.04 30.30 30.45 30.69 30.89 30.26 30.72 30.58 30.81 30.08 29.40 28.38
38.90 39.47 40.38 39.38 39.11 39.16 39.74 40.45 42.16 39.46 35.38 30.51 29.98 25.17 26.93 30.01 29.86 27.79 27.83 30.79 31.13 34.35 32.30 31.37 31.16 30.40 29.58 28.68 28.78 26.15 21.44 16.77 19.47 19.27 25.90 29.43 30.24 29.90 29.73 30.17 30.80 31.20 30.90 30.50 29.67 28.08 26.75 26.74 27.90 28.58 28.56 28.39 28.51 27.88
39.17 39.34 37.79 40.35 39.37 39.27 39.85 39.25 37.44 36.45 32.12 28.79 28.92 27.28 30.00 28.60 29.14 30.45 30.62 29.55 32.38 33.17 33.51 33.16 29.43 28.07 25.08 27.31 22.70 21.06 20.83 17.35 20.87 24.41 28.84 29.82 29.28 29.27 29.07 29.89 30.52 31.28 31.73 31.65 30.66 30.11 28.92 27.97 28.08 28.19 27.33 27.49 27.37 27.11
39.13 33.32 39.50 40.08 39.59 40.09 39.66 33.49 30.47 26.48 22.83 21.68 23.45 30.52 30.20 30.38 29.18 29.66 30.58 30.33 33.76 32.79 30.69 30.98 25.06 24.41 28.46 23.17 22.91 25.19 22.26 24.50 25.81 26.17 27.76 29.25 29.19 29.18 29.38 29.78 29.73 29.67 30.42 29.95 29.09 29.01 28.46 28.26 25.96 23.22 24.68 26.07 26.01 26.25
32.73 34.89 39.64 40.31 37.91 36.11 31.97 32.07 29.35 23.19 16.26 18.18 25.71 24.09 28.45 30.40 31.12 30.31 31.14 33.45 32.74 31.53 29.91 22.52 27.38 22.93 23.03 21.66 23.75 24.74 25.05 25.58 26.13 26.62 27.91 28.41 29.72 29.66 29.57 29.10 29.44 29.29 28.97 25.13 24.19 22.63 21.62 22.58 24.26 25.15 24.38 24.75 23.19 22.91
35.74 35.54 40.05 40.19 36.16 29.32 18.72 25.27 29.44 12.63 12.96 19.07 23.19 24.13 25.10 26.88 27.20 28.85 32.78 33.87 32.55 32.38 31.16 29.91 25.92 22.09 25.80 26.07 25.91 25.59 25.21 25.51 27.52 28.33 28.81 28.12 30.02 29.74 28.83 27.15 26.20 25.97 25.79 24.45 26.03 26.98 26.70 26.84 26.65 26.33 25.73 24.71 24.52 24.23
39.52 39.98 40.19 39.39 35.28 20.81 24.66 25.66 30.56 17.86 11.45 23.17 26.12 24.29 24.14 23.90 24.38 22.59 27.35 31.05 31.07 27.95 27.55 21.26 24.99 29.49 30.89 32.78 32.22 31.03 30.79 30.56 29.36 26.76 25.72 27.28 28.91 26.67 27.81 27.10 27.87 28.60 27.04 26.69 24.87 29.36 25.92 25.27 25.51 25.76 25.31 25.22 23.98 24.41
36.37 35.72 36.92 33.09 29.28 22.87 18.52 25.28 24.79 25.85 25.33 19.74 23.81 23.44 22.53 24.48 15.84 15.36 20.92 28.92 21.12 14.36 17.93 25.82 28.13 29.38 30.47 30.88 30.05 30.31 29.22 29.07 27.73 27.35 26.61 25.92 28.06 29.67 29.20 27.43 26.20 28.20 27.60 27.47 26.69 26.80 29.16 25.47 26.18 25.54 25.48 26.97 25.65 25.17
34.39 36.44 30.48 29.66 17.34 16.50 18.09 27.73 25.96 27.13 23.98 22.97 22.70 23.12 17.67 10.05 22.25 18.26 25.42 23.20 13.75 19.01 23.31 26.71 26.31 26.76 26.38 25.86 26.74 27.10 27.96 27.63 27.27 27.02 31.15 30.28 26.73 25.23 26.00 28.41 25.88 26.43 26.78 27.37 27.40 26.72 26.46 27.16 27.07 25.72 24.89 26.21 28.16 25.17
35.83 30.74 28.23 19.68 13.94 12.11 17.77 26.81 20.08 21.60 15.91 16.26 21.99 14.91 5.75 19.00 21.87 23.76 19.65 22.57 18.61 21.75 25.94 25.94 26.04 26.89 26.59 27.42 27.08 26.74 26.85 26.31 25.21 25.40 26.26 26.92 27.43 27.64 26.45 26.71 27.67 25.99 26.76 28.03 27.31 25.83 25.44 29.37 28.09 27.92 25.10 25.82 24.76 25.64
34.73 24.75 17.76 10.44 6.52 11.67 22.24 20.52 16.23 21.47 20.60 19.24 14.97 4.86 11.61 19.14 21.85 19.11 14.89 13.72 20.70 23.33 23.25 22.45 22.23 22.79 23.39 23.68 21.02 24.65 26.22 23.38 23.71 23.14 25.60 24.19 21.64 25.21 26.56 27.24 27.44 27.05 27.64 27.42 24.11 24.78 24.15 26.54 29.04 25.86 24.45 21.07 21.71 24.82
21.65 20.24 14.22 12.88 17.47 6.53 4.95 6.51 6.06 14.78 3.05 14.69 16.78 3.18 12.29 16.37 15.46 16.03 11.84 10.45 14.09 19.70 20.32 20.50 20.38 21.70 20.58 22.33 22.87 23.82 26.30 23.84 21.41 21.78 23.25 22.12 23.99 24.64 23.09 22.89 26.05 27.28 25.79 20.68 21.53 21.62 20.66 19.38 19.49 18.94 18.10 18.18 19.35 23.88
8.40 14.03 16.58 6.32 4.95 7.86 6.38 5.67 5.70 5.68 10.60 4.90 8.94 3.95 6.19 15.52 3.67 2.99 7.41 10.73 16.55 17.23 18.28 19.50 23.19 21.24 23.05 25.01 23.48 24.24 26.04 23.48 21.78 21.73 21.82 22.30 21.82 20.89 17.07 18.25 18.98 24.28 23.05 22.53 21.82 19.35 18.53 18.36 17.58 16.53 18.03 20.17 28.02 23.51
6.45 9.37 15.04 23.84 21.34 19.64 15.55 15.02 14.15 7.64 1.57 3.25 3.96 5.24 3.99 -0.06 -1.38 8.34 14.97 14.80 17.90 19.83 19.77 21.17 22.13 22.52 22.97 23.91 25.11 26.35 28.48 28.29 27.32 27.11 21.52 20.05 20.00 19.99 20.97 19.14 18.91 23.48 22.59 19.98 20.41 20.17 18.79 18.25 18.53 19.92 21.00 20.47 19.61 19.11
15.87 18.08 15.45 18.39 19.89 19.19 13.51 11.74 8.36 4.57 5.73 13.43 12.47 3.63 2.33 4.95 8.39 13.71 16.39 19.67 14.37 14.15 14.17 17.58 24.39 24.92 23.84 23.55 23.64 24.15 26.03 25.62 24.98 24.80 19.54 17.76 18.03 20.85 22.16 24.13 25.15 29.77 22.96 21.80 20.40 19.50 19.55 17.74 16.24 16.29 16.40 17.03 17.01 16.65
19.81 20.44 20.95 16.93 18.87 18.37 17.35 15.14 13.12 15.65 19.93 16.03 12.27 10.11 12.88 16.36 14.88 16.98 17.78 15.35 13.25 10.45 15.78 19.34 19.56 22.03 24.90 23.54 22.98 23.56 23.90 24.40 21.84 18.98 17.80 16.39 18.10 19.51 18.73 18.28 19.74 20.77 20.71 25.86 31.18 26.61 21.02 19.20 16.97 16.98 15.00 15.51 13.33 10.14
13.91 14.82 16.07 16.57 14.94 14.37 15.91 17.88 15.76 17.77 21.14 21.50 22.20 18.96 19.42 19.44 19.44 18.90 14.02 11.11 15.55 15.74 16.66 17.59 17.16 14.46 18.28 21.04 21.88 22.91 23.06 22.30 22.60 22.82 20.70 17.89 16.29 15.03 12.94 14.40 14.11 12.97 12.21 14.95 14.47 12.51 24.83 15.03 15.67 9.72 8.29 7.65 6.52 5.70
9.72 5.88 5.52 6.89 8.44 11.69 12.42 14.31 15.39 19.60 17.89 17.09 17.76 16.38 17.49 17.95 17.81 17.30 14.93 15.13 16.42 16.96 17.71 14.87 17.11 16.90 17.12 18.70 18.18 19.19 19.95 20.70 20.76 21.04 19.72 17.19 12.78 12.45 11.51 10.38 8.84 10.07 10.90 10.65 9.75 7.13 6.40 5.80 3.39 2.93 3.59 2.87 4.35 7.22
3.45 2.76 0.18 4.57 2.30 1.15 1.11 -0.13 2.64 6.84 11.71 13.66 12.18 11.77 15.29 17.62 14.55 14.87 15.93 14.05 13.52 13.12 16.73 14.13 14.51 15.74 17.48 20.04 21.88 23.49 23.47 18.41 20.38 19.09 16.41 16.75 13.30 9.41 9.37 8.29 6.96 7.15 6.66 5.74 4.00 3.36 2.69 1.81 2.17 1.65 2.38 0.02 1.25 1.56
-7.57 -8.23 -9.43 -5.78 -2.26 -0.77 -1.44 -2.33 -2.41 -2.51 2.26 8.30 11.91 12.13 12.51 13.06 11.34 14.03 16.38 15.50 14.56 13.39 13.20 14.31 15.81 16.07 14.64 14.12 15.06 16.89 19.86 20.19 27.23 28.12 27.75 27.18 26.63 20.71 10.28 6.74 6.81 6.10 5.58 4.67 3.05 2.21 2.17 0.41 0.84 -0.63 -0.81 -0.94 1.72 1.98